ECMWFNIL_sfc_temp_000.txt.gz
Temp
82 82 81 80 80 80 79 79 79 80 78 79 77 79 79 80 80 80 80 80 80 80 80 79 80 79 79 79 78 78 78 77 78 77 77 76 75 76 76 75 75 74
83 83 82 81 79 80 79 79 79 78 79 79 79 79 80 80 81 81 80 80 80 79 80 80 79 79 79 78 78 77 77 77 76 79 76 76 75 75 76 76 75 75
83 83 81 80 80 81 82 82 80 80 79 80 81 80 80 81 80 81 80 80 79 79 79 79 79 79 79 78 78 77 77 76 76 77 76 75 76 75 75 77 75 75
82 82 82 83 82 82 81 80 80 79 80 79 80 81 81 82 80 80 80 80 79 79 79 79 79 79 78 78 78 77 77 77 77 77 76 75 76 76 75 75 74 73
82 81 82 82 82 82 81 81 81 80 80 80 81 81 80 80 79 80 79 79 79 79 79 79 79 79 79 78 78 76 77 76 77 76 75 74 75 76 76 74 73 72
83 83 82 82 81 81 80 80 80 81 80 80 80 81 80 80 79 79 79 79 80 80 79 79 79 79 79 78 78 77 76 75 77 76 76 75 75 76 76 74 73 72
82 82 82 82 82 81 80 80 81 81 81 80 79 79 80 79 79 78 78 78 79 78 78 78 77 77 78 78 77 76 76 76 76 76 75 75 75 74 75 74 73 72
83 83 82 82 82 81 80 80 81 80 80 80 79 79 80 80 79 79 79 78 79 78 77 78 77 77 78 78 76 76 76 77 77 76 75 75 74 74 74 75 74 72
83 82 82 82 81 81 82 83 83 80 79 78 79 81 80 80 80 80 78 78 77 77 77 77 77 77 77 76 75 76 76 76 77 75 75 74 74 73 74 74 72 72
82 82 83 83 83 81 82 83 84 83 81 80 81 81 80 80 80 78 78 77 77 77 77 77 78 77 75 75 75 75 74 74 75 74 75 75 74 74 74 73 72 71
82 82 82 82 82 85 84 85 86 86 83 81 80 80 80 79 79 80 78 77 78 78 77 77 78 75 74 74 75 75 74 75 74 72 71 73 74 74 74 72 72 71
82 82 83 82 82 83 83 84 84 82 81 83 81 81 81 81 79 79 78 77 78 78 77 77 77 76 75 76 76 76 75 75 74 73 72 73 74 74 74 73 72 71
82 82 82 83 82 82 82 83 84 85 86 83 82 82 82 81 80 79 79 78 78 78 78 78 77 77 77 76 75 74 74 73 72 71 72 73 73 74 74 74 73 72
83 82 82 81 82 82 82 82 82 82 81 81 82 81 82 81 82 80 80 79 78 78 78 77 77 77 77 75 71 70 70 69 69 68 70 72 73 74 74 74 74 74
82 83 83 82 82 81 80 81 81 81 80 80 80 80 80 81 81 81 78 77 78 77 77 78 78 77 73 71 70 71 72 69 69 68 69 72 72 73 74 74 74 74
82 82 82 81 81 80 80 80 81 80 81 80 79 80 79 79 79 79 80 79 77 77 78 79 77 72 70 68 68 71 73 73 73 73 74 73 73 72 73 74 74 74
81 81 81 81 80 81 81 81 80 81 79 79 79 79 78 78 78 78 79 79 78 78 77 77 71 71 68 66 66 67 71 73 74 73 73 73 73 72 71 72 73 73
81 81 80 80 80 80 80 80 80 80 79 78 78 79 78 79 78 78 78 78 78 78 78 73 72 68 62 64 66 66 69 72 75 74 74 73 72 72 72 72 72 73
81 81 80 80 80 81 80 80 79 79 79 79 79 79 79 77 77 78 77 77 77 77 76 76 75 69 63 63 64 64 65 68 73 74 73 73 72 72 71 71 71 68
81 81 81 80 80 80 80 80 79 79 79 80 80 79 78 77 78 78 78 77 77 77 76 76 75 68 61 61 62 61 62 65 73 73 73 73 72 72 72 71 69 64
81 81 80 80 80 80 79 79 79 79 79 80 81 79 78 77 77 78 78 77 78 77 77 77 79 64 60 60 58 58 59 63 70 71 71 72 71 71 72 71 68 68
82 80 80 80 80 79 79 79 79 79 78 78 78 79 79 79 79 79 77 77 78 77 77 76 76 61 61 59 57 58 60 66 69 70 70 70 70 71 71 70 68 67
82 81 80 79 80 80 79 79 78 77 77 77 75 75 77 78 78 78 78 78 78 77 75 73 75 66 60 60 59 59 61 68 69 70 70 70 70 71 71 72 71 67
81 80 79 79 79 79 79 79 78 78 78 77 75 76 77 80 80 78 78 78 77 77 79 75 75 70 58 59 60 60 62 68 69 69 69 69 69 71 71 70 71 72
82 81 81 81 80 80 80 79 79 79 77 76 77 78 78 78 78 78 77 74 79 80 76 76 78 68 55 61 61 58 62 69 69 70 68 68 69 69 70 69 69 69
83 81 80 80 80 79 79 79 79 80 79 78 77 79 78 78 78 77 74 74 78 80 80 79 76 75 72 61 59 58 58 65 69 68 67 68 68 68 68 69 70 71

ECMWFNIL_sfc_temp_003.txt.gz
Temp
74 73 72 70 71 72 71 70 70 69 69 69 70 69 71 71 74 72 72 73 73 73 72 72 72 72 73 71 71 71 71 70 70 70 70 70 69 69 69 68 68 68
74 74 75 73 73 73 70 69 69 69 68 68 69 70 70 72 72 73 72 73 73 72 72 72 71 71 70 71 71 70 70 70 70 73 70 69 69 69 69 68 69 68
74 74 73 72 71 71 73 71 71 69 69 70 71 71 72 72 71 71 71 72 71 71 71 71 70 70 71 70 71 71 71 69 70 70 70 69 69 68 68 70 68 68
74 74 74 74 73 72 72 72 70 70 71 71 70 72 73 74 72 72 71 74 71 70 70 71 71 71 71 71 71 71 71 70 70 70 69 69 69 69 68 67 68 68
74 74 74 74 73 72 72 72 71 71 71 71 71 71 72 72 71 71 71 71 70 70 70 70 70 70 71 70 70 70 70 70 70 69 69 68 69 69 69 68 67 66
75 74 74 73 73 72 72 71 71 71 70 72 71 71 71 71 71 71 71 70 71 71 71 70 70 70 70 70 70 70 71 71 71 70 69 68 68 69 71 68 66 65
74 74 74 74 73 72 72 71 72 73 72 72 71 71 71 71 71 70 70 70 70 70 70 69 69 69 70 70 69 69 70 70 70 69 69 68 68 68 69 68 67 65
75 75 75 74 73 73 72 72 72 72 72 71 71 70 71 71 71 71 71 71 70 69 68 69 69 70 71 70 69 67 68 71 71 68 67 67 67 68 67 69 68 65
75 74 74 74 74 73 74 74 73 73 73 72 71 71 71 72 72 72 71 71 70 69 68 69 70 70 71 70 69 69 68 68 69 68 67 68 68 67 67 67 67 66
74 74 75 75 75 73 74 75 76 75 73 72 72 71 71 72 72 71 71 69 69 69 69 69 70 70 70 70 70 68 67 68 68 69 69 68 67 67 67 67 67 65
75 75 75 74 75 76 76 77 78 76 73 73 72 72 72 72 71 70 69 70 71 70 70 69 70 69 69 68 68 67 67 68 67 68 68 66 66 67 69 67 67 67
75 75 75 75 75 75 76 77 76 73 72 73 73 72 70 71 71 71 71 69 69 69 69 69 69 68 68 68 67 65 65 67 68 68 67 66 66 67 68 68 67 67
76 75 75 76 75 75 75 75 75 77 78 76 73 74 73 71 70 70 71 70 69 69 69 69 68 69 68 67 65 65 66 66 66 66 66 66 66 67 68 68 68 67
77 76 76 74 75 74 74 74 73 72 72 71 73 72 73 71 72 72 71 71 69 68 69 69 69 67 67 66 66 66 65 65 66 66 66 65 65 65 67 68 68 68
76 76 75 74 74 73 73 73 72 71 71 70 71 71 73 73 73 73 72 69 69 69 69 70 69 68 68 67 65 65 66 66 66 65 65 65 65 66 67 67 67 68
75 75 75 74 73 73 72 72 72 72 71 70 71 72 72 73 72 72 72 71 69 69 68 70 68 69 69 67 67 67 66 67 66 66 65 65 65 65 66 66 67 67
75 74 74 73 73 73 72 72 72 72 71 70 71 71 72 72 72 71 72 71 69 68 67 68 68 69 66 64 64 66 66 65 65 65 66 65 65 64 64 65 65 65
74 74 73 73 72 72 72 72 71 71 71 70 71 71 71 72 72 71 71 70 70 70 69 68 67 66 64 63 64 64 66 64 65 66 67 66 65 64 65 64 64 65
74 73 73 72 72 73 72 71 71 71 71 71 71 72 72 70 70 71 70 69 70 69 69 69 69 67 63 63 63 63 64 64 64 65 66 66 66 65 64 64 63 64
73 73 73 73 73 72 72 71 70 71 71 73 72 71 70 70 71 70 70 69 69 69 69 69 69 66 62 61 61 61 62 63 63 64 65 65 66 66 66 64 64 64
74 73 73 73 73 72 71 71 71 71 72 72 72 71 71 70 70 69 69 69 70 70 69 70 71 64 60 61 60 59 58 62 61 64 64 64 65 65 65 65 65 65
75 74 73 73 72 72 71 71 71 71 71 71 71 70 71 70 68 69 69 69 70 69 69 69 69 61 60 59 57 57 59 62 61 62 62 63 64 64 64 64 64 64
75 74 73 73 73 72 72 71 71 71 70 71 71 70 70 69 69 70 69 69 68 68 67 67 68 61 58 57 56 57 59 61 62 63 62 63 63 64 64 64 65 64
75 75 74 74 73 72 72 72 72 72 72 72 71 71 70 71 70 69 68 68 68 69 70 68 69 65 58 56 56 56 58 62 63 63 62 63 63 64 64 64 64 69
76 75 75 74 73 73 74 73 72 72 73 71 72 72 71 69 69 69 68 67 70 68 68 67 66 61 55 57 57 57 60 62 62 62 62 62 62 62 64 64 63 65
76 75 74 75 74 74 73 73 72 72 72 73 71 70 69 68 70 67 65 67 67 65 66 65 64 64 62 55 55 56 56 59 61 61 61 62 62 62 62 63 63 62

ECMWFNIL_sfc_temp_006.txt.gz
Temp
70 70 70 68 67 69 68 67 67 67 66 66 68 67 67 68 68 68 69 68 69 68 68 67 68 68 70 68 68 68 68 68 67 67 67 67 66 66 67 65 64 64
70 71 72 70 71 71 68 68 67 67 66 66 65 66 66 67 68 69 68 68 69 68 67 68 67 67 67 67 67 67 67 67 68 70 67 67 67 66 66 65 65 63
70 70 70 69 70 69 69 68 68 66 66 67 66 66 68 69 68 67 67 68 68 68 67 68 67 67 67 67 67 67 68 67 67 68 68 67 67 67 67 66 65 65
70 71 71 70 70 69 68 68 67 66 66 67 67 69 69 70 69 68 67 71 68 67 67 67 67 67 67 66 67 67 67 67 68 67 67 68 67 68 67 66 66 65
71 70 70 70 69 69 69 69 68 67 67 68 68 67 69 68 68 67 67 67 66 66 66 66 66 66 67 66 66 66 66 67 67 66 66 66 67 68 67 67 66 65
71 71 70 71 69 69 69 69 69 68 67 67 68 69 68 69 67 68 67 67 67 67 67 66 66 66 66 66 65 65 66 68 67 67 66 66 67 67 69 67 66 65
71 71 71 71 69 69 69 69 69 70 68 69 68 68 68 68 68 67 67 67 66 67 67 66 66 67 66 66 66 66 66 66 66 66 66 66 67 66 67 67 66 66
72 72 71 70 70 69 70 69 69 69 69 67 68 69 68 69 67 68 67 67 66 66 65 66 66 65 66 65 66 65 66 67 67 65 66 66 66 66 66 67 67 65
72 71 71 70 70 69 70 70 70 70 69 69 69 69 68 68 69 69 68 67 66 66 65 65 65 66 66 66 65 65 65 64 66 66 66 65 65 65 65 66 65 65
72 72 72 72 71 70 71 71 72 71 70 69 70 69 68 69 68 68 68 66 66 66 66 66 66 66 67 66 66 65 66 66 66 66 65 64 65 65 65 64 64 64
72 72 72 72 72 72 72 73 73 74 72 71 70 69 69 68 69 68 67 66 67 67 66 66 67 67 66 66 66 66 66 66 65 65 64 64 64 65 66 64 64 64
73 72 73 72 73 72 73 73 74 73 72 71 71 70 69 68 68 67 68 66 66 66 66 66 65 65 66 65 65 65 65 65 65 64 64 64 64 64 64 64 64 64
73 72 73 73 73 72 72 73 73 74 73 72 71 71 70 69 68 67 67 67 66 65 66 66 66 65 63 65 65 65 65 64 63 63 64 64 64 64 65 65 65 65
73 73 73 73 73 72 72 72 72 71 70 70 70 69 70 69 69 68 67 67 66 66 67 66 64 63 64 65 65 65 65 64 63 63 63 62 63 63 64 64 65 65
72 73 73 73 73 72 71 71 71 70 70 69 69 70 71 70 70 69 67 66 65 66 66 66 66 66 66 66 65 64 64 64 64 64 63 63 63 63 63 63 63 64
71 73 72 72 72 72 71 71 71 70 69 68 69 69 69 69 68 68 68 68 67 66 66 67 67 67 68 67 67 67 64 65 64 63 62 63 63 63 64 64 64 63
71 72 72 72 72 72 71 70 70 70 69 68 68 68 69 69 69 67 68 69 68 68 67 67 67 68 66 65 65 67 66 63 63 63 63 63 63 63 63 64 64 63
71 72 72 72 71 71 70 70 70 69 68 68 68 68 68 68 68 68 68 68 69 68 67 67 67 66 64 64 65 64 66 65 63 63 64 63 62 62 62 62 62 63
72 72 72 71 71 71 70 69 68 68 68 68 68 69 69 67 68 68 68 68 68 67 68 68 68 67 64 64 64 63 64 64 63 62 62 62 61 61 61 62 62 62
72 72 72 72 72 71 70 69 68 69 69 70 70 69 68 68 68 68 68 67 67 67 68 68 67 66 64 62 61 62 62 64 62 61 61 61 61 61 62 62 62 62
73 72 72 72 72 71 69 69 69 69 69 69 70 69 68 68 68 68 68 68 68 67 67 68 69 65 62 60 59 59 61 63 60 61 60 59 60 61 61 62 62 62
73 73 72 72 71 70 69 69 69 69 69 69 69 69 69 69 68 68 68 68 67 67 66 67 68 63 60 59 59 59 60 62 59 59 59 59 60 61 61 61 61 61
74 73 72 72 71 70 69 69 69 69 69 69 69 69 69 68 68 68 68 67 66 66 65 65 66 62 58 58 58 57 59 60 59 59 59 59 60 60 61 61 61 61
74 74 73 72 71 70 70 71 71 71 70 70 69 69 68 70 67 65 64 65 66 66 66 65 65 62 56 56 56 57 60 59 59 59 59 59 60 60 60 59 61 67
75 74 74 73 71 72 72 72 71 70 71 69 70 70 69 65 65 65 63 63 66 65 68 65 63 60 54 55 55 55 57 58 58 57 58 59 58 58 58 59 59 62
75 74 74 73 72 72 72 72 71 70 68 68 66 66 66 64 65 64 63 62 63 65 66 64 63 61 59 54 54 54 56 58 58 57 57 58 57 58 59 58 58 58

ECMWFNIL_sfc_temp_009.txt.gz
Temp
70 69 69 68 67 68 67 66 65 67 66 65 66 66 67 69 68 68 67 65 67 66 66 65 66 67 68 66 66 66 66 65 66 65 65 65 65 64 66 64 62 64
70 70 71 69 68 70 67 68 66 67 66 65 66 66 67 67 67 67 66 66 67 67 65 66 65 66 65 65 65 65 64 64 66 68 65 64 65 64 65 65 64 63
69 69 70 68 69 67 67 67 67 67 67 67 66 67 68 67 67 65 65 66 67 67 66 65 65 66 66 65 65 65 66 65 65 65 65 66 66 65 66 66 64 64
70 70 70 70 69 68 67 67 66 66 67 66 66 68 68 69 67 66 65 70 66 66 65 65 65 65 65 65 64 65 65 65 66 65 65 66 66 66 66 66 65 64
70 70 70 70 69 69 67 68 67 66 66 68 67 66 68 66 66 65 65 65 66 65 65 65 65 65 65 64 63 65 65 65 65 63 64 65 66 66 67 66 64 64
70 70 70 69 69 68 67 68 68 67 67 66 67 67 66 66 65 66 65 65 65 66 65 64 64 64 64 65 63 65 65 66 65 64 63 64 65 65 67 66 65 64
70 70 69 70 69 68 68 67 67 69 68 68 67 66 66 66 66 65 65 66 65 66 65 64 64 65 65 64 63 64 64 64 64 63 64 65 65 65 65 65 65 65
72 71 70 69 69 68 68 67 67 68 68 67 67 67 66 67 66 66 66 65 65 64 64 64 64 64 65 63 64 63 63 65 65 64 64 64 64 64 65 65 65 64
72 71 69 69 69 67 68 68 68 68 68 68 67 67 66 67 67 66 66 65 64 65 64 64 64 64 65 64 63 63 63 64 65 64 64 64 64 64 64 63 62 63
71 70 69 69 69 68 68 69 69 69 68 68 68 66 66 67 66 66 66 65 65 64 64 64 65 65 65 63 64 63 63 64 64 63 64 64 64 63 63 63 63 62
70 67 67 68 70 69 70 71 71 70 69 68 67 66 66 66 67 65 65 64 66 65 65 64 65 65 64 64 64 63 64 64 64 63 63 63 63 63 65 63 63 63
67 68 68 69 70 70 71 72 72 70 69 69 68 68 66 66 66 65 67 65 65 65 65 65 64 64 64 64 64 63 63 63 64 63 63 62 62 62 62 62 63 62
67 68 68 69 70 72 72 71 71 72 71 70 69 69 68 66 65 65 66 66 65 65 65 65 65 64 63 63 63 63 63 63 63 62 63 62 62 63 63 63 62 63
67 68 68 70 72 71 71 71 71 70 70 70 69 68 68 67 66 66 66 65 65 65 66 65 64 63 63 63 63 63 63 63 63 63 62 62 62 62 62 62 62 63
67 69 70 70 71 70 70 70 70 70 69 69 68 68 69 68 68 67 65 64 64 65 65 65 65 65 64 64 63 63 63 63 63 63 62 62 61 61 61 61 61 62
68 69 69 69 69 70 70 70 70 69 69 68 68 68 68 68 66 66 66 66 66 65 64 65 65 65 67 66 67 66 64 64 64 63 62 62 62 62 62 62 62 62
69 68 69 69 69 70 70 70 69 69 68 68 67 67 67 67 67 66 66 67 67 67 66 66 66 67 66 64 65 67 67 64 63 63 62 62 62 61 61 63 62 62
67 68 68 68 68 69 70 70 69 68 67 67 67 66 67 67 66 67 67 67 67 67 67 67 66 66 64 64 65 65 67 66 63 63 63 62 61 61 61 61 61 61
67 68 67 68 69 70 70 69 69 68 67 67 67 68 67 66 67 67 66 66 66 66 66 67 67 66 64 64 64 64 65 66 64 62 62 61 61 61 60 60 60 60
67 68 68 68 69 70 70 69 69 68 69 69 69 68 67 67 67 67 67 65 65 66 66 67 66 65 64 62 62 63 63 64 63 62 61 61 61 60 60 60 59 59
68 68 68 68 69 69 69 69 69 69 69 69 69 68 68 67 67 67 67 67 66 66 66 67 68 64 62 61 60 60 61 63 62 62 61 60 59 59 59 59 59 60
68 68 68 69 69 69 69 69 69 69 69 69 69 69 68 67 67 67 67 67 67 65 64 65 67 63 62 61 60 59 61 63 61 60 59 58 58 58 59 59 59 59
69 68 68 69 69 69 69 70 70 70 70 70 68 68 67 66 67 67 67 66 64 64 64 65 66 64 60 59 58 59 59 60 59 59 58 58 58 58 57 58 58 58
69 69 68 69 69 69 70 71 71 72 71 70 69 68 67 68 67 65 64 64 64 64 66 65 66 64 60 57 56 57 59 59 58 59 58 58 58 56 56 56 58 65
70 68 68 70 70 70 71 71 71 71 72 69 69 68 69 67 66 65 63 62 65 66 68 67 65 63 58 55 55 55 59 58 59 58 57 57 56 56 55 56 57 60
68 68 69 70 70 71 72 72 72 71 69 67 66 66 66 63 65 64 63 63 63 65 65 65 64 63 60 53 53 53 57 58 57 56 58 57 54 55 57 55 55 56

ECMWFNIL_sfc_temp_012.txt.gz
Temp
71 70 70 69 69 70 68 68 67 69 68 68 68 68 69 70 70 70 71 70 70 70 69 69 70 70 71 69 69 69 69 68 68 68 68 68 68 68 68 68 66 66
70 71 71 70 69 70 69 69 68 68 68 68 69 68 69 70 70 71 70 69 70 70 70 69 69 70 70 70 68 68 68 68 68 69 68 68 68 68 68 69 67 67
70 70 70 69 69 69 69 69 68 68 68 68 68 68 69 70 70 70 69 70 70 70 69 69 69 69 69 69 68 69 70 68 68 69 69 68 69 68 69 70 69 68
70 70 70 70 69 69 68 68 67 68 68 67 68 69 70 71 70 69 68 71 69 70 70 68 69 69 69 69 68 68 68 68 69 68 68 68 68 69 69 69 69 69
70 70 70 70 69 69 68 68 68 67 68 69 68 69 70 70 69 69 68 69 68 69 68 69 68 69 68 68 68 68 68 68 68 67 67 67 68 68 69 68 68 68
70 70 70 69 69 68 68 68 68 68 68 68 68 69 69 69 69 69 68 68 68 69 69 68 69 69 68 68 67 67 68 68 68 67 67 67 68 69 68 68 68 67
70 70 70 70 69 68 68 68 68 69 68 69 69 68 68 68 68 68 68 68 68 68 69 69 68 69 68 67 67 67 67 67 67 67 67 67 68 68 68 68 67 67
71 71 71 69 69 68 69 68 69 69 69 68 68 68 68 69 68 69 69 68 68 68 68 68 68 68 68 67 67 67 67 67 67 67 67 67 67 67 68 68 68 67
71 70 70 69 69 68 70 70 69 69 69 68 69 69 68 68 69 68 68 68 68 68 67 68 68 68 68 67 67 67 67 67 67 67 67 67 67 67 67 67 66 66
70 70 70 70 70 70 70 70 70 69 69 68 69 69 68 68 68 68 68 67 68 68 67 68 67 67 67 67 67 67 67 67 67 67 67 67 67 67 67 66 66 66
70 71 69 69 70 70 70 70 70 70 69 69 69 68 69 68 68 68 67 67 68 68 68 67 68 67 67 67 67 67 67 67 67 67 67 67 67 67 67 67 66 66
71 69 68 68 69 69 70 69 69 68 68 69 69 69 69 69 68 68 68 67 68 68 68 68 68 68 67 68 68 67 66 66 67 67 67 67 66 66 66 66 66 66
70 68 67 68 68 67 67 67 68 68 69 70 70 71 70 69 68 67 68 68 68 68 68 68 68 68 67 67 67 66 66 66 66 66 66 66 66 66 67 66 66 66
69 67 67 67 68 68 68 69 68 68 68 69 70 70 71 70 69 68 68 69 69 68 68 68 68 67 67 66 66 66 66 66 66 66 66 66 66 66 66 66 66 66
68 67 68 70 70 68 68 67 67 67 68 68 69 70 71 71 71 70 68 67 67 67 68 68 67 67 67 67 66 66 66 66 66 66 66 66 66 66 65 65 66 66
67 67 68 68 67 67 66 67 67 66 67 68 68 69 70 70 69 69 69 68 67 67 67 67 67 67 67 66 67 68 67 67 67 66 66 66 66 66 66 65 65 66
66 67 68 67 67 66 66 66 67 66 66 67 68 68 69 69 69 68 68 69 68 68 67 67 67 68 65 64 64 66 69 68 67 67 66 66 66 66 66 67 66 66
66 66 66 67 66 66 66 66 67 67 67 68 68 68 68 68 68 68 68 68 68 68 68 68 68 66 63 63 64 64 66 69 68 67 67 66 66 66 66 66 66 66
67 66 66 66 66 66 66 66 67 67 67 68 68 69 69 67 67 68 68 68 68 68 68 69 70 66 63 63 64 64 64 66 69 68 67 66 66 65 65 65 65 64
67 67 67 67 66 66 66 66 66 67 68 69 70 69 68 68 68 68 68 67 68 68 68 70 69 66 63 62 62 62 63 65 68 67 67 67 66 65 65 64 64 63
67 67 66 66 66 66 66 66 66 67 68 69 70 69 69 68 68 68 68 68 69 69 69 69 71 64 61 61 60 60 61 63 66 67 66 65 65 65 64 64 63 63
67 67 67 66 66 66 66 66 66 67 67 68 69 69 70 69 69 69 69 69 69 69 69 69 71 63 61 60 59 59 60 65 65 65 65 65 64 63 63 63 63 62
68 67 66 66 65 66 66 66 66 67 68 69 69 69 69 68 69 69 69 70 69 69 68 68 69 65 59 57 57 58 60 65 64 64 64 63 63 63 62 63 62 63
67 67 66 66 66 66 66 67 69 69 69 70 69 69 69 70 70 69 69 69 70 69 69 68 69 65 59 56 56 57 60 64 63 63 63 62 63 62 61 61 61 63
68 67 67 67 66 66 68 67 68 69 70 70 70 70 70 69 69 68 68 68 69 69 67 69 69 66 58 57 56 55 60 64 63 62 62 62 62 61 59 60 60 62
69 68 67 67 66 67 68 68 70 70 70 70 69 69 69 68 67 68 67 68 67 68 68 68 68 67 64 55 54 52 57 63 62 62 62 62 59 59 61 61 61 60

ECMWFNIL_sfc_temp_015.txt.gz
Temp
82 82 81 80 80 80 79 79 79 79 79 80 79 80 79 80 81 80 80 80 80 80 80 80 80 79 80 79 79 78 78 78 79 79 79 78 78 78 78 78 78 77
81 81 81 80 80 79 79 79 78 79 78 79 80 80 80 80 80 80 80 80 80 80 80 80 80 80 79 80 78 78 77 78 78 80 78 78 78 78 79 78 78 78
81 80 80 79 80 79 80 79 79 79 79 79 80 80 80 80 80 80 80 80 79 80 80 80 80 79 80 79 79 78 78 77 77 79 78 77 78 78 78 80 79 78
79 79 79 80 80 79 79 78 78 78 79 78 79 80 80 80 80 80 79 79 80 80 80 80 80 80 79 79 78 78 79 78 79 79 78 78 78 78 78 79 79 78
79 78 79 79 79 79 78 77 78 78 79 79 80 79 79 78 79 79 79 79 79 80 79 79 79 79 79 79 79 78 78 78 79 78 77 77 78 78 79 78 77 77
79 79 78 78 78 78 78 78 78 78 79 79 78 79 79 79 79 79 79 79 80 80 80 79 78 79 79 79 78 77 78 78 79 77 77 77 78 79 79 78 77 76
78 78 78 79 79 78 78 78 78 78 79 80 78 78 79 79 78 78 78 78 79 78 78 78 77 78 79 79 77 77 77 77 78 77 76 77 77 77 78 77 76 76
79 79 79 78 78 78 78 78 78 78 78 78 77 77 77 78 76 77 77 77 78 77 76 77 77 78 80 78 77 76 77 78 77 77 76 76 77 76 77 77 76 75
78 77 77 77 78 78 81 80 79 78 78 77 77 77 76 77 76 76 75 76 75 75 75 76 76 77 77 76 76 76 77 78 78 77 77 76 76 76 76 77 76 76
76 76 77 79 80 80 82 83 82 80 78 77 77 76 74 74 75 74 74 74 74 74 74 75 76 76 76 76 76 76 76 76 77 77 76 76 76 76 77 77 77 76
76 77 76 78 80 82 83 83 82 82 78 78 77 76 74 73 72 73 73 72 72 73 73 74 75 75 75 76 76 76 76 77 77 77 76 76 76 76 75 76 77 77
75 76 76 78 81 82 83 82 82 80 77 75 74 73 72 71 71 71 72 71 72 73 73 74 75 76 76 76 77 77 76 76 77 76 77 77 77 77 77 77 77 77
77 77 77 78 78 78 79 80 80 80 78 75 72 70 69 69 69 70 71 72 72 73 74 75 75 75 75 75 75 76 76 76 76 76 76 77 77 78 79 79 78 77
77 78 78 77 77 77 77 79 79 77 74 72 70 69 67 67 68 70 72 72 73 73 74 75 75 75 75 75 75 76 76 76 76 76 77 77 77 78 79 79 78 79
78 79 79 78 77 76 76 77 76 73 70 70 69 68 67 67 70 72 72 72 73 74 75 75 75 75 76 76 76 75 76 76 76 76 77 77 77 78 78 78 77 78
77 78 79 79 77 74 73 73 71 68 68 69 68 67 67 68 69 71 73 73 73 73 74 74 74 75 71 67 69 76 77 77 76 76 77 77 77 77 78 77 77 78
76 77 78 77 75 71 71 69 68 67 67 67 67 67 67 68 69 70 72 74 74 74 74 74 75 75 67 65 64 65 73 77 77 76 77 76 77 76 76 77 78 77
76 76 77 77 75 72 72 69 67 66 66 66 65 66 66 67 68 70 72 73 74 75 76 76 76 68 65 64 64 64 66 75 78 78 78 77 77 77 77 77 77 78
75 75 76 76 75 73 72 69 67 67 66 66 66 67 67 67 69 70 71 73 74 74 75 77 78 69 64 63 63 63 63 67 77 78 78 78 78 77 77 76 75 73
75 75 75 75 74 72 71 70 68 67 66 66 66 66 67 69 70 71 72 72 73 74 74 76 77 69 64 62 62 62 62 65 75 77 78 78 77 77 77 75 73 71
75 75 74 74 73 72 71 71 70 68 68 68 68 68 68 69 71 72 72 73 75 75 75 76 78 66 63 62 60 60 61 64 74 75 75 75 74 74 74 74 74 73
74 74 74 74 73 72 72 70 69 68 68 69 70 71 71 72 73 74 74 74 74 75 75 75 80 66 62 61 59 59 60 69 73 73 73 72 72 73 74 74 74 74
75 74 73 73 72 71 71 70 69 69 70 71 70 71 72 73 73 75 75 75 75 74 74 75 78 69 60 58 58 57 62 71 72 73 72 70 70 72 73 73 73 73
75 74 73 73 72 71 71 72 72 72 72 72 71 71 72 74 75 75 76 76 76 76 78 77 78 71 59 56 56 57 63 72 72 70 66 64 66 70 71 71 71 68
75 74 74 73 72 71 72 72 72 72 73 73 73 73 73 74 75 75 76 76 79 79 72 75 77 70 56 58 56 55 61 70 70 67 66 67 69 71 71 71 71 68
76 74 74 73 72 71 71 72 73 74 73 73 73 74 74 75 75 76 75 77 78 77 76 75 75 74 63 54 54 52 57 68 68 67 68 69 71 71 71 71 71 70

ECMWFNIL_sfc_temp_018.txt.gz
Temp
88 88 88 88 88 88 87 87 87 87 86 87 87 87 86 86 86 86 86 85 85 85 84 84 84 83 84 83 83 83 83 82 83 84 83 83 82 82 82 82 82 81
87 88 88 88 88 88 87 88 87 86 86 86 87 87 86 86 86 86 85 85 85 85 84 84 83 83 83 83 83 82 82 82 82 84 82 82 82 82 83 82 82 82
88 87 88 87 88 88 88 88 87 87 87 87 87 86 86 86 86 85 85 85 85 85 84 84 84 83 83 83 82 82 82 81 81 84 82 81 82 81 82 85 84 83
87 88 88 88 89 88 88 87 86 86 88 86 86 87 87 87 86 85 84 84 84 84 84 84 84 84 83 82 82 81 82 82 83 83 82 82 81 81 81 82 82 82
87 88 88 89 89 88 88 86 87 87 88 87 87 86 85 85 85 85 84 83 83 83 83 83 83 83 82 82 81 81 82 82 83 82 81 80 81 81 82 82 81 81
88 88 87 88 88 87 87 87 87 87 88 88 86 87 86 85 84 84 84 84 84 84 83 83 82 82 82 81 81 81 82 83 84 82 80 80 81 82 83 82 81 80
88 87 87 88 88 87 86 86 87 87 87 87 86 85 86 85 84 83 83 83 84 82 83 81 80 80 81 81 81 81 81 81 82 81 80 80 80 80 82 82 81 80
88 88 88 87 87 87 86 87 87 86 86 86 85 85 86 86 84 84 83 83 83 82 81 81 80 80 82 81 81 81 81 82 81 80 79 79 80 79 80 81 81 80
88 87 87 87 87 87 89 89 88 87 86 85 86 87 85 85 84 83 81 80 81 81 81 80 79 80 81 81 81 81 80 81 81 81 80 79 79 79 80 81 80 80
86 87 88 89 89 88 88 87 90 88 86 86 86 87 85 84 84 83 80 79 79 79 79 79 77 78 79 81 81 80 80 79 79 80 80 80 80 81 81 81 80 80
87 88 87 87 89 90 88 89 91 90 88 88 87 87 85 83 81 81 79 77 77 78 77 77 78 79 79 81 81 81 80 80 80 80 80 80 81 81 80 80 81 81
87 86 86 88 89 90 89 90 92 90 89 89 88 87 84 83 80 79 78 77 77 77 77 77 77 78 79 80 81 82 80 80 81 81 81 81 81 81 82 82 81 81
87 86 87 88 86 87 88 89 91 92 89 87 87 87 84 83 82 78 76 74 74 75 75 75 76 77 79 79 80 80 80 80 81 81 81 81 82 83 84 83 83 82
87 87 87 86 85 84 85 88 89 89 86 85 85 84 84 83 79 75 73 72 72 73 74 75 76 78 79 79 80 80 80 81 81 81 81 82 82 82 83 84 84 84
87 87 87 85 84 84 85 86 87 85 84 82 82 83 84 83 80 76 72 71 72 71 73 75 76 77 79 80 80 80 81 81 81 81 81 81 81 83 83 83 83 84
86 86 84 83 82 83 78 77 79 79 79 79 79 81 79 78 77 76 75 72 71 71 73 75 76 79 75 69 73 81 81 82 82 81 81 81 81 81 82 83 84 85
85 85 84 81 81 81 77 79 78 78 77 77 77 77 76 75 75 75 75 74 72 72 74 76 78 79 68 66 67 69 78 81 81 80 81 81 81 80 80 81 83 83
85 84 83 81 81 81 78 80 77 76 76 77 77 76 75 76 76 76 75 75 75 76 77 78 79 70 65 65 66 65 68 79 82 81 82 82 82 81 81 81 81 81
84 83 83 82 81 82 79 79 78 78 77 77 76 77 76 75 75 76 75 75 76 75 78 81 83 69 65 64 64 64 64 69 81 81 82 82 82 82 82 81 79 79
84 83 83 82 81 81 79 78 77 78 78 79 78 76 74 75 76 76 75 75 76 76 77 81 82 70 64 63 63 62 63 66 79 80 81 81 81 81 82 80 75 70
83 83 82 82 82 81 79 77 77 78 78 79 78 76 75 75 76 75 75 76 78 78 79 81 83 68 62 61 61 60 61 65 78 79 79 80 79 80 80 79 77 75
83 82 82 82 82 81 79 77 77 77 77 77 76 75 76 77 77 77 76 77 78 79 80 80 84 65 62 61 60 59 61 72 76 76 77 77 78 78 77 78 78 76
84 83 82 81 81 80 79 78 77 77 77 77 75 74 73 72 75 75 76 79 79 78 77 79 83 69 59 59 59 58 64 76 76 77 76 76 76 76 76 76 76 75
84 83 81 81 80 80 79 79 79 79 79 77 75 73 73 73 73 73 75 78 79 78 79 81 82 69 57 58 58 57 67 77 75 73 72 72 73 75 76 74 73 73
84 83 82 82 81 82 81 80 79 78 78 77 77 76 74 73 72 73 75 77 80 80 74 79 81 71 55 58 56 56 67 76 73 73 72 72 74 74 73 71 72 72
84 82 82 81 80 81 82 82 82 82 80 78 76 75 74 74 74 75 76 77 80 81 82 82 81 80 67 54 55 54 60 73 73 71 71 71 70 69 70 72 73 74

ECMWFNIL_sfc_temp_021.txt.gz
Temp
89 89 89 89 89 90 89 88 89 88 87 89 88 87 87 88 89 89 89 88 87 86 86 85 85 85 85 85 84 84 84 84 84 85 83 84 84 84 84 83 83 83
89 89 89 89 89 89 89 90 88 88 87 88 89 89 89 89 89 89 88 87 86 86 86 86 85 84 84 84 83 83 82 83 82 86 83 83 83 84 84 83 83 83
90 89 89 89 90 90 91 90 89 89 89 89 90 89 90 90 89 88 87 87 86 87 85 85 85 84 84 84 83 83 83 82 82 85 83 82 83 83 84 87 86 84
89 90 90 90 91 90 90 90 89 89 90 89 89 90 90 90 88 88 87 86 86 85 86 85 85 85 84 84 83 83 83 82 83 83 83 83 83 83 83 84 84 83
90 90 90 91 91 90 90 89 90 90 90 90 90 89 88 87 87 87 86 85 85 86 85 84 85 85 83 83 83 82 82 82 83 83 82 82 82 83 83 82 82 81
90 90 90 90 90 90 90 90 90 90 90 92 89 90 88 87 86 86 85 85 86 86 85 85 84 85 85 83 81 80 81 82 83 82 82 81 82 83 84 82 81 81
90 90 90 91 91 91 89 89 89 90 91 91 90 88 88 87 85 85 85 85 85 84 84 83 82 83 83 81 79 78 79 80 82 82 81 82 81 81 82 82 81 81
91 92 91 91 91 90 89 90 90 90 90 90 89 88 87 88 85 87 86 85 86 83 82 82 81 82 84 82 79 78 78 80 80 80 80 80 80 79 80 81 81 80
92 91 91 91 91 91 93 92 92 90 90 89 88 89 88 87 86 87 84 84 84 83 82 82 81 81 82 81 80 79 78 79 81 80 79 80 79 79 80 81 81 80
91 91 92 93 93 93 93 93 94 91 89 89 89 90 88 87 86 85 84 83 83 82 82 81 81 81 81 81 80 79 78 78 79 80 81 81 80 81 81 81 81 80
92 93 92 92 93 94 94 94 95 94 91 91 90 91 89 87 85 85 83 82 83 82 81 80 80 80 79 80 80 80 79 79 79 79 80 81 81 81 81 81 81 81
92 91 91 92 94 94 95 95 96 93 92 91 91 91 89 88 85 85 84 82 82 82 81 81 80 79 79 78 80 80 79 80 80 80 81 81 81 82 82 82 81 81
91 91 91 93 91 92 94 94 95 95 94 92 91 91 91 89 87 85 83 82 82 82 82 81 80 80 79 78 79 79 79 79 80 81 81 81 82 82 84 83 83 82
91 91 91 90 91 91 91 92 93 93 93 91 91 91 92 90 88 85 84 84 82 82 82 81 80 80 79 78 78 79 79 80 80 81 81 81 82 82 83 84 84 85
91 91 91 90 90 90 90 90 90 91 91 91 89 90 91 91 88 86 84 82 82 82 81 81 80 80 80 79 78 78 80 81 81 81 81 81 81 83 83 83 84 84
90 90 90 89 89 88 89 89 89 90 91 90 89 89 88 88 86 85 85 83 82 81 81 81 79 79 74 69 72 79 80 81 81 81 81 81 81 81 82 83 84 85
89 89 89 88 87 88 88 87 87 88 89 87 86 86 87 85 85 85 85 84 82 82 81 81 80 79 69 66 67 71 79 80 81 81 82 81 81 80 80 81 83 84
89 88 87 87 87 86 86 87 87 87 86 85 85 85 85 85 85 83 83 83 83 83 82 81 80 71 66 65 66 67 71 81 82 82 82 82 82 82 81 82 82 83
88 87 86 85 85 86 86 86 85 85 84 84 84 84 85 83 82 82 82 83 82 80 81 81 82 70 64 64 65 65 66 73 84 83 83 83 83 82 82 82 81 77
87 87 86 85 85 84 85 85 85 84 84 85 85 84 83 82 82 81 81 80 80 80 79 81 82 69 63 63 64 64 65 69 81 82 83 83 83 83 83 82 73 72
87 87 86 86 85 84 82 83 84 84 84 85 85 84 82 81 81 81 80 80 81 81 80 81 83 66 62 62 62 62 63 67 79 81 82 82 82 82 81 82 74 73
87 87 86 86 86 85 83 82 82 83 83 84 84 84 83 83 82 83 81 80 80 79 80 78 82 62 62 61 61 61 62 73 78 79 80 81 81 82 81 81 78 75
88 87 86 85 85 84 83 82 81 81 82 84 84 84 83 82 81 82 81 81 79 78 79 79 82 64 60 59 60 59 64 75 78 79 79 80 80 80 80 78 77 78
88 87 85 85 85 84 84 84 83 82 82 83 83 84 84 84 83 82 81 80 79 79 80 79 81 67 57 57 58 57 67 77 78 78 78 78 78 78 78 77 77 76
88 87 86 86 85 85 86 84 82 82 83 83 83 83 83 83 83 82 81 80 82 81 75 78 81 69 55 57 57 56 68 78 78 78 77 76 76 76 76 77 76 74
88 86 86 85 85 85 86 86 84 84 83 82 82 83 82 83 82 81 79 78 79 79 79 80 79 77 65 56 56 56 61 76 77 76 76 75 76 76 75 73 72 72

ECMWFNIL_sfc_temp_024.txt.gz
Temp
86 86 86 85 85 85 85 84 85 85 84 84 83 83 83 84 85 84 84 83 83 83 83 82 82 81 83 81 81 80 79 80 80 79 80 80 79 80 80 80 81 78
86 86 85 86 85 85 85 86 85 84 84 84 84 84 84 84 86 85 84 83 83 83 83 82 81 81 81 80 80 79 79 80 79 82 79 79 79 80 81 80 80 79
87 86 86 86 86 86 88 87 86 85 85 86 85 85 85 86 85 84 83 84 83 83 82 81 81 80 80 80 79 79 79 78 78 81 79 78 79 78 79 82 80 79
86 87 87 87 87 87 87 86 86 85 86 85 85 87 87 87 85 85 84 84 82 82 82 82 81 81 80 80 79 78 79 78 79 79 79 78 78 78 78 79 80 79
87 87 87 87 87 87 87 86 87 86 87 86 87 86 85 84 84 85 83 83 82 82 81 81 81 80 79 79 79 77 78 78 79 78 77 77 77 78 79 79 78 78
87 87 86 87 87 86 86 87 87 87 87 87 86 87 86 85 84 84 83 83 84 83 82 82 81 81 81 79 79 78 78 79 79 78 78 77 78 78 79 78 77 76
87 87 87 88 88 87 87 86 87 86 87 87 86 86 86 85 84 83 83 82 83 82 82 80 79 80 79 79 77 77 77 77 78 77 76 76 77 77 78 78 77 77
88 89 88 88 88 87 87 87 87 87 86 86 86 86 86 86 84 84 83 82 83 81 80 80 79 79 81 79 77 77 77 79 78 77 76 76 76 75 76 77 76 76
88 88 88 88 88 88 90 90 89 88 87 86 87 88 86 86 84 84 82 81 81 80 80 80 79 79 79 79 77 77 77 78 78 77 77 77 76 75 76 77 76 76
87 88 89 90 89 90 90 90 91 89 88 88 88 89 86 85 84 83 82 80 80 80 80 79 79 79 79 79 78 77 77 76 77 77 76 76 76 76 77 76 76 75
89 89 89 89 89 91 91 92 91 91 89 89 89 89 87 85 83 83 81 80 80 80 79 79 79 79 79 79 79 78 77 77 77 76 76 76 76 76 77 76 76 76
89 89 89 89 90 91 91 92 92 91 90 89 89 89 87 86 84 83 82 80 80 80 80 79 79 79 78 78 80 79 77 78 77 77 77 77 77 77 77 77 77 77
88 88 89 90 89 89 91 91 92 93 92 90 90 89 88 87 85 83 82 81 80 80 80 79 79 79 78 78 78 77 77 77 77 77 77 77 78 78 79 79 78 78
88 88 88 88 88 88 89 91 92 91 90 88 88 88 88 87 86 83 83 82 81 80 80 79 79 79 78 78 78 78 77 77 77 77 77 77 77 78 79 80 79 80
88 89 89 88 88 88 88 89 89 89 88 88 86 88 88 89 87 85 82 80 81 80 80 80 79 79 79 78 77 77 77 77 77 77 77 76 77 78 79 79 79 80
88 88 87 87 87 87 87 87 89 88 89 87 86 87 86 86 85 83 83 81 80 80 80 79 79 79 74 70 72 77 76 77 77 76 77 77 76 77 78 79 80 82
88 87 87 87 87 87 86 87 87 87 86 86 85 85 85 84 84 83 83 82 81 80 80 79 79 79 68 66 69 71 76 76 76 76 77 77 77 76 76 77 79 79
88 87 87 87 87 86 86 86 86 86 86 85 85 85 84 85 84 82 82 82 81 81 81 80 80 70 65 66 67 68 72 77 77 77 77 77 77 77 77 77 78 79
88 87 87 86 86 86 86 86 86 85 85 85 85 85 85 83 82 82 81 82 81 80 80 80 81 68 65 64 66 65 67 73 78 78 77 77 77 77 77 77 76 77
88 87 86 86 86 86 86 85 85 84 85 85 85 83 83 83 83 82 81 81 80 80 79 80 80 66 64 62 64 64 65 68 76 78 78 78 78 78 78 77 77 75
87 86 86 86 85 85 84 84 84 84 84 84 84 83 82 81 82 82 81 81 81 81 80 80 81 62 62 62 62 62 64 66 74 76 77 77 77 78 77 78 77 76
87 86 85 84 84 84 84 83 83 83 82 83 83 83 83 83 82 83 81 81 81 80 80 79 78 61 62 61 60 61 63 69 73 74 74 75 76 77 77 76 76 75
86 85 84 83 83 82 82 82 82 82 83 83 82 83 83 82 81 82 81 81 80 79 79 77 76 62 60 59 60 60 63 70 72 73 73 73 74 76 76 76 75 75
86 86 84 83 83 82 82 82 83 83 83 83 82 83 85 84 83 82 82 81 80 79 80 78 79 65 59 58 59 60 64 71 71 71 72 72 73 76 76 75 75 76
87 86 85 84 83 83 84 83 82 82 83 83 84 84 84 83 82 81 81 80 82 81 73 78 80 69 56 59 58 58 64 71 71 71 71 72 73 74 75 74 73 72
87 85 84 84 83 84 84 83 83 84 83 83 84 84 81 82 82 82 81 82 82 81 79 79 80 74 62 56 56 56 60 71 71 71 71 71 72 71 67 67 68 69

ECMWFNIL_sfc_temp_027.txt.gz
Temp
82 81 81 81 80 79 80 80 79 79 79 79 78 78 78 79 80 79 79 79 78 77 76 76 75 76 76 73 74 75 74 74 74 73 73 73 71 72 73 73 71 70
82 82 81 81 80 79 80 81 80 80 79 79 79 79 78 79 80 79 79 79 78 77 76 76 76 75 75 74 73 74 73 73 73 75 74 73 73 73 73 73 72 72
82 81 81 81 81 81 81 81 81 80 80 80 80 79 79 80 79 79 79 79 77 77 76 76 75 75 74 73 73 74 74 72 72 74 73 72 72 73 73 74 73 72
82 82 82 82 82 82 81 81 80 80 80 79 80 81 81 81 79 79 79 80 77 76 76 76 76 75 74 73 73 73 73 72 72 72 72 73 73 73 72 71 73 74
82 82 82 83 83 82 82 81 81 81 81 80 81 81 80 80 78 78 78 78 77 77 76 76 76 75 74 73 73 72 72 72 72 72 71 72 72 73 73 73 71 72
82 82 82 83 82 82 82 81 81 81 81 81 81 81 81 80 79 79 78 78 78 78 77 76 76 75 75 73 73 73 73 72 73 72 71 71 72 73 74 73 72 70
82 82 82 83 83 83 82 81 81 82 82 82 81 81 81 80 80 79 79 78 78 77 77 76 75 75 75 73 72 72 72 72 72 72 71 71 71 71 73 73 72 70
83 83 83 83 83 82 82 82 82 81 82 82 81 81 81 81 80 80 79 78 78 77 76 76 75 74 75 74 72 72 72 73 73 72 72 71 70 70 71 72 72 70
83 83 83 82 83 83 83 83 83 82 82 81 82 82 81 82 80 80 79 78 78 77 76 76 75 75 75 74 73 72 73 73 73 73 72 71 70 71 71 71 70 70
83 83 83 83 83 83 83 84 84 83 82 82 82 83 81 81 81 80 79 78 77 76 76 75 75 75 74 74 74 73 73 73 73 73 73 72 72 71 71 71 71 70
83 83 83 83 84 84 84 85 85 85 83 83 82 82 82 81 80 80 78 78 77 76 76 75 75 75 74 74 74 74 74 73 73 73 72 72 73 72 74 72 71 71
83 83 83 83 84 84 85 85 86 85 84 83 83 82 82 82 80 80 79 77 77 77 76 76 75 75 75 74 75 74 74 74 73 73 73 72 72 72 73 73 72 71
83 83 83 84 84 84 85 85 86 86 85 84 84 84 83 81 80 79 79 78 77 77 77 76 76 75 75 75 74 74 74 74 74 73 73 73 72 72 73 73 72 72
84 84 84 84 84 84 84 85 85 85 84 84 84 83 83 82 81 79 79 78 78 77 77 77 76 75 75 75 74 74 74 74 74 74 73 73 73 73 73 73 73 74
84 84 84 84 84 83 84 84 84 84 84 84 83 83 83 83 82 80 79 77 77 77 76 76 75 75 75 75 74 74 74 74 74 74 73 72 72 73 73 73 74 75
84 84 83 83 83 83 83 83 84 84 84 83 82 83 83 82 81 79 79 78 76 76 76 76 76 76 72 68 71 75 74 74 74 73 73 72 72 71 72 73 74 75
84 83 83 82 83 83 83 83 83 83 83 82 82 82 82 81 80 79 79 78 77 76 76 76 76 76 67 65 68 70 74 74 73 73 73 72 72 72 72 73 74 74
83 83 82 82 82 82 82 83 83 82 82 81 81 81 81 81 80 79 79 78 77 77 77 76 76 69 65 65 67 67 70 74 73 73 73 72 73 73 73 73 74 75
83 83 82 82 82 82 83 82 82 81 81 80 80 81 81 80 79 79 78 78 77 76 76 77 77 68 64 64 66 66 67 72 73 73 73 73 73 72 72 73 73 73
83 83 82 82 82 82 82 82 81 81 81 81 80 80 80 80 79 77 77 76 77 76 76 77 77 67 63 63 64 64 65 69 74 74 73 73 73 73 73 73 73 72
83 83 82 82 82 82 82 81 81 81 80 79 80 80 79 79 79 77 76 76 77 77 76 76 78 64 61 61 62 62 63 67 73 73 73 73 73 74 73 73 73 74
84 83 83 82 82 82 81 81 81 81 80 79 78 78 79 80 79 78 76 76 77 77 76 75 77 61 61 61 61 61 63 69 72 72 72 72 73 73 73 74 74 74
84 84 83 82 82 82 81 81 80 79 79 78 78 77 77 77 77 77 77 77 76 76 75 75 73 61 59 59 60 60 62 71 71 72 71 70 70 70 71 71 72 72
85 84 83 82 82 81 81 81 81 80 79 79 79 78 77 77 77 76 77 77 76 75 76 74 71 62 58 58 59 59 64 71 71 71 71 71 70 69 69 70 71 77
85 84 83 82 81 81 81 80 80 79 79 79 79 79 78 77 76 76 75 75 77 77 72 74 72 64 56 58 58 57 64 71 71 70 70 70 70 69 69 67 65 69
84 83 82 81 81 80 80 80 80 79 79 79 78 79 77 77 76 75 74 74 75 75 74 75 73 69 62 56 56 55 60 71 70 69 69 69 69 69 69 65 65 65

ECMWFNIL_sfc_temp_030.txt.gz
Temp
80 79 79 79 79 79 78 77 77 77 76 77 76 76 76 77 77 77 77 77 76 76 74 74 74 73 74 73 72 72 72 72 72 71 70 70 69 69 70 68 67 67
80 80 80 79 79 79 79 79 78 78 77 77 77 77 77 77 77 78 77 76 77 77 75 74 73 73 72 73 72 72 71 71 71 72 71 70 70 69 70 68 68 67
80 79 79 79 79 78 79 79 78 78 78 78 78 77 77 78 77 77 77 77 77 77 75 74 73 73 72 72 72 72 72 70 71 71 71 70 70 70 70 70 68 68
80 80 80 80 80 79 79 79 78 78 78 77 77 78 78 78 78 77 77 78 76 76 75 74 74 74 73 71 72 72 72 71 72 71 70 70 70 70 70 69 70 69
80 80 80 80 80 80 79 79 78 78 78 78 78 78 77 77 77 77 77 77 76 75 74 74 74 74 73 71 71 71 71 71 71 70 70 70 70 70 70 70 69 69
80 81 80 80 80 80 79 79 79 79 78 78 78 78 78 77 77 77 77 77 76 76 75 74 74 74 73 72 71 71 71 71 71 70 70 70 70 70 71 70 69 68
80 80 80 81 80 80 79 79 79 79 79 79 79 78 78 77 77 77 77 77 76 75 75 74 73 73 73 72 71 70 70 71 70 70 70 70 70 69 70 70 69 69
81 81 81 81 80 80 80 79 79 79 79 79 78 78 78 78 77 77 77 77 76 75 75 75 74 73 73 72 71 71 70 71 71 70 69 70 69 70 70 70 70 68
81 81 80 80 80 80 80 80 80 80 80 79 79 79 79 79 78 77 77 77 76 75 75 75 74 74 73 72 72 71 71 71 72 71 70 70 69 70 71 71 69 69
80 81 81 81 80 81 80 81 81 80 80 79 79 80 78 79 79 78 77 76 76 75 75 75 74 74 73 73 72 72 71 71 71 71 71 71 71 70 70 70 70 68
80 81 80 80 81 81 81 82 82 82 81 80 80 79 79 78 78 78 77 76 76 75 75 74 74 74 73 73 73 73 72 72 71 71 71 71 71 71 72 69 69 69
80 80 80 80 81 81 82 82 82 82 81 81 80 80 79 79 78 78 77 76 76 76 76 75 75 74 73 73 73 73 72 72 72 71 71 71 71 71 70 69 69 69
80 80 81 81 81 81 82 82 82 83 82 81 81 81 80 79 79 78 78 77 76 76 76 75 75 74 74 73 73 73 72 71 71 71 71 71 71 71 71 70 70 70
81 81 81 81 81 81 81 82 82 82 81 81 81 80 80 79 79 78 78 77 77 76 76 76 75 74 74 73 73 73 72 71 71 71 71 71 70 71 71 71 71 71
81 81 81 81 81 81 81 81 81 81 81 81 80 80 81 81 80 79 77 76 76 76 76 75 74 74 74 74 72 72 72 72 71 71 71 70 70 70 70 71 71 72
81 81 81 81 80 80 80 81 81 81 81 80 80 80 80 80 79 79 78 77 76 75 75 75 74 74 71 66 69 73 72 72 72 71 71 71 70 70 71 70 71 72
81 80 80 80 80 80 80 80 80 81 80 80 80 79 79 79 79 78 78 78 77 76 75 75 75 75 67 64 66 68 72 72 71 71 71 71 71 70 70 70 71 71
81 80 80 80 80 80 80 80 80 80 79 79 79 79 79 79 78 78 78 78 77 76 76 75 75 69 65 64 65 66 69 73 72 72 71 71 71 71 71 71 70 71
81 80 80 80 80 80 80 80 80 79 79 79 79 79 79 78 78 78 77 78 77 76 76 76 76 68 64 63 64 65 66 71 73 73 72 71 71 71 70 70 69 70
81 81 80 80 80 80 80 80 79 79 79 80 80 79 79 78 79 78 78 77 77 76 76 76 76 67 63 62 62 63 65 68 74 73 72 71 71 71 71 70 69 69
81 80 80 80 80 80 80 79 79 79 79 80 80 79 79 78 79 78 78 77 77 77 76 76 77 66 61 60 60 61 64 66 74 73 71 71 71 71 70 70 70 70
81 81 80 80 80 80 79 79 79 79 79 79 79 79 80 80 79 79 78 77 77 76 76 75 77 62 60 59 60 60 63 69 73 72 70 70 71 71 71 71 71 71
82 81 80 80 80 79 79 79 79 79 79 80 79 79 79 79 79 79 79 78 76 76 76 75 72 61 59 58 59 59 62 71 71 72 71 70 70 71 70 70 70 70
83 82 81 80 80 79 79 80 80 80 80 80 79 79 79 79 80 79 78 78 76 76 76 74 71 60 57 56 58 58 63 71 71 70 70 70 70 69 69 68 70 75
83 83 82 81 80 80 80 80 80 80 80 80 80 80 79 79 78 78 76 76 77 76 72 73 69 60 55 57 57 57 64 72 71 70 69 69 69 67 66 65 66 71
84 82 82 81 81 81 81 81 81 81 80 79 80 80 79 77 76 76 75 73 73 73 73 72 69 65 59 56 56 56 60 71 70 69 69 69 69 67 65 63 63 64

ECMWFNIL_sfc_temp_033.txt.gz
Temp
78 78 77 77 77 77 76 76 76 76 75 76 75 75 75 75 76 75 75 75 75 74 74 73 73 72 72 71 70 70 70 70 70 69 69 69 68 67 68 67 65 66
78 78 78 77 77 77 77 77 76 76 76 76 76 76 76 75 76 76 75 75 75 74 74 74 73 72 71 70 70 69 69 70 70 71 69 68 68 67 68 67 67 65
78 78 77 77 77 77 77 77 77 77 77 77 77 76 76 76 76 76 75 75 74 75 74 74 73 73 71 71 70 70 70 69 69 69 69 68 68 68 68 68 66 66
78 78 78 78 78 77 78 77 76 76 77 76 76 77 77 76 76 76 75 76 75 74 74 74 74 73 72 71 70 70 70 70 70 69 69 69 69 68 68 67 67 66
78 78 79 79 79 78 78 77 77 76 76 77 77 76 76 75 75 75 75 75 75 75 74 73 73 72 71 71 70 70 70 70 69 69 69 68 68 68 68 68 67 66
79 79 79 79 79 78 78 77 77 77 77 76 76 77 76 76 76 75 75 75 75 75 75 74 73 72 71 70 70 70 71 70 70 69 69 69 68 68 69 68 67 66
79 78 78 79 79 78 78 78 78 78 77 78 77 76 76 76 75 75 75 75 75 75 75 74 73 72 71 71 69 69 70 70 70 69 69 69 68 67 68 68 67 67
79 79 79 79 79 78 78 78 78 78 78 77 76 77 76 76 76 76 76 76 75 75 75 74 73 73 72 71 70 69 69 70 70 69 69 69 68 68 67 68 67 67
79 79 79 78 78 78 78 79 79 78 78 77 77 77 77 77 76 76 76 75 75 75 74 74 73 73 72 71 71 70 70 70 70 69 69 69 68 68 68 67 67 67
79 79 79 79 78 79 79 79 80 79 78 78 78 78 77 77 77 76 76 75 75 74 74 74 73 73 72 72 71 71 71 70 70 69 69 69 69 68 68 67 68 67
79 79 79 79 79 79 79 80 80 80 79 78 78 77 77 77 76 76 75 75 75 75 74 74 74 73 72 72 72 72 72 71 70 69 69 69 69 68 70 68 68 69
79 79 79 79 79 79 80 80 80 80 79 79 78 78 77 77 76 76 76 75 75 75 75 74 74 73 73 72 72 72 72 72 71 70 70 69 68 68 69 68 69 69
79 79 79 79 79 79 80 80 80 80 80 79 79 79 78 77 77 76 76 76 75 75 75 74 74 73 73 72 72 72 71 71 71 70 69 69 69 69 69 69 69 69
80 80 80 79 80 79 79 80 80 80 79 79 79 78 78 78 77 76 76 76 75 75 75 75 74 73 73 72 72 72 71 71 70 70 69 69 69 68 69 69 69 70
80 80 80 79 79 79 79 79 79 79 79 79 78 78 79 79 78 77 76 75 75 75 75 75 74 74 74 73 72 71 71 71 70 70 69 69 69 69 69 69 69 70
80 80 79 79 79 78 78 79 79 79 79 78 78 78 78 78 78 77 77 76 75 74 74 74 74 74 71 66 68 73 71 71 70 70 69 69 69 68 68 69 70 70
79 79 79 78 79 79 78 78 78 78 78 78 78 77 77 77 77 77 76 76 76 75 74 74 74 74 66 64 65 68 71 71 70 69 69 69 69 69 68 69 69 69
79 79 79 78 78 78 78 78 78 78 77 77 77 77 77 77 77 76 76 76 76 75 75 75 75 68 64 63 64 65 68 72 71 70 70 69 70 70 70 70 69 69
79 79 78 78 78 78 78 78 77 77 77 77 77 77 77 76 76 77 76 76 76 75 75 75 75 67 63 62 63 63 65 69 72 71 71 71 71 71 70 70 70 69
79 79 78 78 79 78 78 78 77 77 77 78 78 77 76 76 77 76 76 76 76 75 75 76 75 66 62 61 61 62 64 67 73 72 72 72 72 71 70 70 69 68
79 79 78 78 78 78 78 77 77 77 77 77 78 77 77 76 76 76 76 76 76 76 76 75 76 65 60 59 60 60 62 64 72 73 72 72 72 72 71 71 70 69
79 79 79 78 78 78 77 77 77 77 77 77 77 78 78 78 77 77 77 76 76 76 76 75 76 62 59 59 59 60 62 67 71 72 72 71 71 70 70 70 70 69
80 80 79 78 78 78 77 77 77 77 77 78 77 77 77 77 77 77 77 77 76 76 75 75 74 61 58 57 58 59 61 69 70 71 71 71 70 70 69 68 69 69
81 80 79 78 78 77 77 78 78 78 78 78 77 77 77 78 78 77 77 78 77 76 76 75 73 60 56 56 57 58 62 69 69 69 70 70 69 68 68 68 70 73
82 81 80 79 78 78 79 78 78 78 79 78 78 78 78 78 78 77 77 77 78 77 72 74 73 61 55 56 57 57 62 70 70 69 69 69 68 67 67 67 67 71
82 81 80 80 79 79 79 79 79 79 78 78 78 79 78 78 78 77 77 77 76 76 74 75 72 64 59 55 56 55 59 70 70 69 69 69 69 67 65 64 65 66

ECMWFNIL_sfc_temp_036.txt.gz
Temp
78 77 77 77 77 77 76 75 76 76 76 76 76 76 76 77 77 76 76 76 76 76 75 74 74 74 73 72 72 72 72 71 72 72 71 71 71 71 71 71 70 70
78 78 78 77 77 77 76 77 76 76 76 76 76 76 77 77 77 77 76 76 76 76 75 75 74 74 73 72 72 71 71 71 71 72 71 70 71 71 72 71 71 70
78 77 77 77 77 77 78 77 77 76 76 77 77 77 77 77 76 76 76 76 76 76 75 74 74 74 73 72 72 72 72 70 71 72 71 71 71 70 71 72 71 70
78 78 78 78 78 77 77 77 76 76 77 76 76 77 77 77 77 76 76 76 76 75 75 75 74 74 73 73 72 71 72 71 72 71 71 71 71 71 71 70 71 70
78 78 78 78 78 78 77 77 77 77 77 77 77 77 77 76 76 76 76 76 76 76 75 75 75 74 73 72 72 71 71 71 71 71 70 70 71 71 71 70 70 70
78 78 78 78 78 78 77 77 77 77 77 77 77 78 77 77 76 76 76 76 76 76 75 75 75 75 74 73 72 72 72 71 71 70 70 70 71 71 72 70 70 70
78 78 78 79 78 78 77 77 77 77 78 78 77 77 77 77 76 76 76 76 76 76 75 75 74 74 74 73 72 71 71 72 71 70 70 70 70 70 71 71 70 70
79 79 79 79 78 78 78 78 78 78 78 77 77 77 77 77 76 77 76 76 76 75 75 75 74 74 74 73 72 71 72 72 72 70 70 71 70 70 70 70 70 70
79 79 78 78 78 79 79 79 79 78 78 77 77 78 77 77 77 77 76 76 76 75 75 75 74 74 74 73 72 72 72 72 72 71 71 71 70 70 70 70 70 70
78 79 79 79 79 79 79 80 80 79 79 78 78 78 77 77 77 77 76 75 75 75 75 75 74 74 74 73 73 72 72 72 72 71 71 72 71 71 71 70 70 70
79 79 79 79 79 80 80 80 80 80 80 79 79 78 78 77 76 77 76 75 75 75 75 75 75 75 74 74 73 73 73 73 72 71 71 71 71 71 71 70 70 71
79 79 79 79 79 80 80 81 81 80 80 79 79 78 78 78 77 76 76 75 76 76 76 75 75 75 74 74 74 73 73 73 73 72 72 71 71 71 71 71 71 71
79 79 79 79 79 79 80 80 80 81 81 80 79 79 78 78 77 76 76 76 76 76 76 76 75 75 74 74 74 73 73 72 72 72 72 71 72 72 72 72 72 72
79 79 79 79 79 79 79 80 80 80 79 79 79 79 79 78 78 77 77 77 76 76 76 76 75 75 74 74 74 73 73 73 72 72 72 71 71 72 72 72 72 72
79 80 80 79 79 78 79 79 79 79 79 79 78 78 79 79 79 78 77 76 76 76 76 76 75 75 75 75 74 73 73 73 72 72 72 71 71 71 71 71 72 72
79 79 79 79 78 78 78 78 79 79 79 78 78 78 78 78 78 77 77 76 76 76 76 76 75 76 71 65 68 74 73 73 72 72 72 72 71 70 71 71 72 73
79 78 78 78 78 78 78 78 78 78 78 78 78 77 77 77 77 77 77 77 77 76 75 75 76 75 66 63 65 67 73 73 72 72 72 71 71 71 70 71 71 72
79 78 78 78 78 78 78 78 78 78 77 77 77 77 77 77 77 77 77 77 77 77 76 76 76 68 64 63 64 64 68 73 73 73 72 72 72 72 72 72 72 72
78 78 78 78 78 78 78 78 77 77 77 77 77 77 77 76 76 77 77 77 77 76 76 77 77 68 63 62 63 63 65 70 74 73 73 72 72 72 72 72 72 71
78 78 78 78 78 78 78 77 77 77 78 78 78 77 77 77 77 77 77 76 77 76 76 77 77 67 62 61 62 62 63 67 75 73 73 73 73 73 73 72 72 71
78 78 78 78 78 78 78 77 77 77 77 78 78 78 77 76 77 76 77 77 77 77 77 77 78 64 60 60 60 60 62 65 74 74 73 73 73 73 73 73 73 72
79 78 78 78 78 78 77 77 77 77 77 78 78 78 78 79 78 78 77 77 77 77 77 76 78 63 59 59 59 59 61 68 73 73 73 73 73 73 73 73 73 72
79 79 78 78 78 77 77 77 77 77 78 78 77 78 78 78 78 78 78 78 77 77 76 76 78 64 58 57 58 58 61 71 72 73 73 72 72 73 73 72 72 72
80 79 78 78 78 77 77 78 79 79 79 78 78 78 78 79 79 78 78 78 78 77 78 77 78 65 56 56 57 56 63 71 71 71 72 72 72 72 72 71 72 72
80 80 79 79 78 78 79 78 78 78 79 79 79 79 79 79 78 78 78 78 80 79 71 75 78 67 55 56 56 56 63 72 71 71 71 71 71 71 70 70 70 71
81 79 79 79 78 79 79 79 79 79 79 79 79 79 79 79 78 78 78 78 79 79 78 77 78 72 60 55 55 55 59 72 72 71 70 71 71 70 68 68 68 69

ECMWFNIL_sfc_temp_039.txt.gz
Temp
83 82 82 82 82 83 83 82 83 83 83 84 84 84 84 84 85 84 84 84 84 84 83 83 83 83 82 82 81 81 81 81 82 82 81 81 81 82 81 81 81 81
82 83 82 83 82 83 83 83 83 83 82 83 84 85 85 84 85 84 84 84 84 84 84 84 84 82 82 82 81 81 80 80 80 83 80 80 81 82 82 82 81 82
83 83 83 82 83 83 85 84 83 83 84 84 84 84 85 85 85 84 84 84 84 84 83 83 83 82 82 82 81 81 81 80 80 83 80 80 81 81 82 84 83 81
82 83 83 84 84 84 84 83 83 83 84 84 84 85 85 85 85 84 83 83 83 83 84 84 83 83 82 81 80 81 81 80 81 81 80 80 80 81 81 82 82 82
83 83 84 84 84 84 84 83 84 84 84 84 85 85 84 83 83 84 83 83 83 83 83 83 84 83 82 81 80 80 80 81 81 80 80 79 80 80 81 81 80 80
83 83 83 83 84 83 83 84 84 85 85 85 84 85 85 84 83 84 83 84 84 84 84 84 83 83 83 81 80 80 81 82 81 79 79 79 80 81 81 80 79 79
83 83 83 84 84 84 83 83 84 84 85 85 85 84 85 84 83 83 83 83 84 83 84 83 82 82 82 81 80 79 80 80 81 79 78 79 79 79 80 79 79 79
84 85 84 84 84 84 83 84 84 84 84 84 84 84 84 85 83 85 84 83 84 83 83 83 82 81 83 82 80 79 80 81 80 79 78 79 79 78 79 79 79 78
85 84 84 84 84 85 86 86 86 85 85 84 85 86 85 85 84 85 83 83 83 82 82 82 82 82 82 81 80 80 80 80 81 80 79 79 79 78 79 79 78 78
83 84 86 86 86 86 86 87 88 86 85 85 85 87 85 84 85 84 83 82 82 82 82 82 82 82 82 82 81 80 80 79 80 80 80 80 80 80 80 79 79 78
85 85 85 85 86 87 87 88 89 88 87 86 86 86 86 85 83 84 83 82 82 82 82 82 82 82 81 82 82 81 81 81 80 80 80 80 80 80 79 79 79 79
84 85 85 86 87 88 88 88 89 88 88 87 87 86 86 86 84 84 83 82 82 83 82 82 82 82 81 82 83 82 81 82 81 80 80 80 80 81 80 80 80 80
84 84 85 86 85 86 88 88 88 89 89 87 87 87 86 86 86 84 83 83 82 83 83 82 82 82 81 81 81 81 81 80 81 81 80 80 81 81 82 81 81 81
84 84 85 84 85 84 85 87 88 88 87 86 86 86 87 87 86 84 84 84 83 83 83 83 82 82 82 81 81 81 81 80 81 81 81 80 80 81 82 82 82 82
84 85 85 84 84 84 84 85 86 86 86 85 85 86 86 88 87 86 84 83 83 83 83 83 83 82 83 82 81 81 81 81 80 80 80 80 80 81 81 81 82 82
84 84 83 83 83 83 83 83 85 85 85 84 84 85 85 85 85 85 85 84 83 83 83 83 82 83 75 68 71 81 81 81 81 80 80 80 79 79 80 80 81 83
84 83 83 82 83 83 83 83 83 84 83 83 83 83 83 83 84 84 85 85 84 84 83 83 83 82 68 65 66 69 79 81 80 79 80 79 80 78 78 79 80 81
84 83 83 82 82 82 82 82 83 83 82 82 83 82 82 83 83 83 83 84 84 85 85 83 83 71 65 64 65 65 69 81 81 81 80 80 80 80 79 80 80 80
83 83 82 82 82 82 83 82 82 82 82 82 82 83 83 82 82 83 82 83 84 83 84 85 85 70 64 63 64 64 64 73 82 82 81 80 80 80 80 79 79 79
83 83 82 82 83 82 82 82 82 81 82 84 84 83 82 82 83 82 82 82 82 82 82 84 85 69 63 62 62 62 63 68 82 81 81 81 80 80 80 80 79 79
83 83 82 83 83 82 82 82 82 82 82 83 84 83 82 81 82 82 82 82 83 84 83 84 86 66 61 61 60 60 61 65 80 81 81 81 81 81 80 80 80 79
84 83 83 83 83 82 82 81 82 81 81 83 83 84 84 84 84 84 83 83 83 84 83 83 86 64 60 60 59 59 60 72 78 79 80 80 80 80 80 80 80 80
85 84 83 83 83 82 82 82 81 81 82 83 83 83 84 84 84 84 84 84 83 83 82 82 85 69 59 58 58 57 62 75 77 79 79 79 80 80 80 80 80 80
84 84 83 83 82 82 82 83 83 83 83 83 83 84 84 85 85 84 85 84 84 84 84 83 86 71 57 57 57 56 64 76 77 78 79 79 79 80 80 80 79 74
85 84 83 83 82 82 83 83 83 83 84 84 85 85 85 85 85 85 85 85 87 86 74 81 86 75 55 57 55 55 65 77 78 78 78 78 80 79 80 80 79 74
86 84 84 83 82 83 84 84 84 85 85 85 85 86 85 86 86 85 85 85 87 86 85 84 84 84 66 56 55 54 59 76 79 78 78 78 80 80 79 78 78 78

ECMWFNIL_sfc_temp_042.txt.gz
Temp
87 87 87 88 88 89 88 88 89 89 88 90 90 90 90 91 91 91 91 90 89 89 89 89 88 88 89 88 87 87 87 87 87 88 87 86 86 87 86 87 86 86
87 87 87 88 88 88 89 89 88 88 88 89 90 91 91 91 91 91 90 90 89 89 89 90 88 88 87 88 87 87 86 86 86 89 86 85 86 87 88 87 87 87
88 87 88 87 89 89 91 90 89 89 90 90 90 91 92 92 91 90 90 90 90 91 89 89 89 88 88 88 87 87 87 86 86 90 86 85 86 86 87 89 88 87
87 88 89 89 89 89 90 89 89 89 90 90 90 92 92 92 91 91 89 89 89 89 90 90 89 90 89 88 87 87 87 87 87 87 86 86 86 87 86 87 88 88
88 88 89 89 90 89 89 89 90 90 90 90 91 90 90 89 90 91 90 89 89 90 89 89 89 89 88 87 87 86 88 88 87 86 86 85 85 86 87 86 86 86
88 88 88 89 89 89 89 90 89 91 90 92 90 92 91 90 90 90 90 90 91 91 91 91 89 90 89 88 87 86 88 89 89 86 85 85 86 87 88 86 85 85
89 89 89 90 90 90 89 89 89 90 91 92 91 90 91 90 89 89 90 90 91 89 91 89 88 88 89 88 86 86 87 87 88 86 84 85 85 85 87 86 84 84
89 90 90 89 90 90 89 90 90 90 90 90 91 90 91 92 90 91 90 90 91 89 89 90 88 87 90 88 87 86 86 88 87 86 84 84 85 84 85 86 85 83
90 90 90 89 90 91 92 92 92 91 91 90 91 93 91 91 91 91 89 89 89 89 88 88 88 88 88 88 87 86 86 87 88 86 85 84 84 84 85 85 84 83
89 90 92 92 92 92 93 93 94 93 92 91 92 94 92 90 91 91 90 88 88 88 88 88 88 88 88 88 87 87 86 86 86 86 86 85 85 85 86 85 85 83
91 92 91 92 93 94 94 95 95 95 93 92 93 93 93 92 90 90 89 88 88 88 88 87 88 88 87 89 88 88 88 88 87 86 86 86 86 86 84 85 85 85
91 91 91 93 93 95 95 96 96 96 95 94 94 93 93 94 91 90 89 88 88 88 88 88 88 88 87 88 90 90 88 89 88 87 87 86 87 87 87 86 86 85
91 90 91 93 92 93 96 96 96 97 97 95 94 94 94 94 94 90 89 89 88 89 89 88 88 88 87 87 88 88 88 88 88 88 87 87 87 88 89 88 87 87
90 90 91 90 91 91 92 95 95 95 94 94 94 93 94 94 94 92 91 91 89 89 89 89 88 88 88 87 87 88 88 87 88 88 88 88 87 88 89 90 88 89
90 91 91 90 90 90 90 92 93 93 93 93 92 93 94 95 95 94 91 89 90 89 89 89 89 88 89 88 87 87 88 88 88 88 88 87 87 88 88 88 89 89
89 89 89 89 89 88 88 90 92 92 93 92 91 92 92 92 92 92 93 91 89 89 89 89 89 89 80 71 75 87 88 88 88 87 87 87 86 86 88 88 89 91
89 88 88 87 88 88 88 88 89 90 90 90 90 90 90 89 90 91 92 92 91 91 90 89 90 89 70 67 68 72 84 87 87 86 87 87 87 85 85 87 88 88
89 88 87 87 87 87 87 88 88 89 88 88 89 89 88 90 89 90 90 91 91 92 92 91 91 75 67 66 67 67 73 87 88 88 87 87 87 87 86 87 87 88
88 88 87 87 87 87 87 87 87 87 88 88 88 88 89 87 88 89 89 90 91 89 91 92 93 72 65 64 66 66 67 77 89 89 88 87 87 87 87 86 86 86
88 88 87 87 87 87 87 87 86 86 88 89 89 88 87 88 88 88 88 88 89 89 88 92 93 72 64 63 64 64 65 71 88 88 88 88 87 87 87 87 86 85
88 88 87 87 87 87 86 86 86 86 87 89 90 89 88 86 87 87 88 88 90 90 90 91 94 69 62 61 61 61 63 67 85 87 87 87 87 87 87 87 87 86
89 88 87 87 87 87 86 86 86 86 86 87 88 89 89 90 89 90 89 89 89 90 90 89 93 67 60 60 60 60 61 76 83 84 85 86 86 86 86 86 87 86
90 90 88 87 87 87 86 86 86 86 87 88 87 89 90 89 89 90 89 90 89 88 88 88 92 73 59 59 59 58 64 80 82 83 84 84 85 86 86 86 86 86
90 89 88 87 87 86 86 87 88 88 88 88 88 89 90 92 91 90 90 90 91 89 90 89 91 76 57 58 57 57 67 80 82 82 83 83 84 85 86 85 85 77
91 90 89 88 87 87 88 88 88 88 89 89 90 90 90 91 91 91 91 91 94 93 77 86 92 80 56 59 56 56 68 82 82 83 81 82 84 84 85 86 85 79
92 89 88 88 88 88 89 89 90 91 90 91 90 91 91 92 92 91 91 91 93 93 93 91 90 91 71 56 56 55 60 80 84 82 82 82 84 84 84 84 84 85

ECMWFNIL_sfc_temp_045.txt.gz
Temp
89 89 89 89 89 90 90 90 91 90 90 92 92 91 91 92 92 93 93 92 91 91 91 90 90 89 90 90 89 88 89 88 89 89 88 88 87 88 87 88 88 88
88 89 89 90 89 90 90 91 90 90 90 90 92 93 92 92 93 93 93 92 92 91 91 91 90 89 89 90 89 88 87 88 87 91 88 87 87 88 89 88 88 88
89 89 89 90 91 91 93 92 91 91 92 92 92 93 94 94 93 92 92 93 92 92 91 90 90 89 89 90 89 89 88 87 87 91 88 87 88 87 87 91 89 89
89 89 90 91 92 91 92 91 91 91 92 92 92 94 95 95 93 93 92 91 91 91 91 91 90 91 89 90 89 89 89 87 88 89 88 87 87 87 87 88 89 89
89 89 91 91 92 91 91 91 92 92 93 92 94 93 92 92 92 93 92 91 91 91 91 91 91 91 89 89 89 88 89 88 88 88 87 86 87 87 88 88 87 88
90 89 90 91 91 91 91 92 92 93 93 95 93 94 94 93 93 93 92 92 93 93 93 93 91 92 91 89 88 88 89 89 89 87 87 86 88 88 89 88 87 86
91 90 91 92 92 92 91 91 92 92 94 94 93 93 94 93 92 92 92 92 93 91 93 91 90 90 91 89 88 87 88 88 89 88 86 87 86 87 88 87 86 86
92 92 92 92 92 92 91 92 92 92 93 93 94 93 93 94 92 93 92 93 93 91 91 92 90 89 92 90 88 87 88 90 90 88 86 86 86 85 86 87 86 85
93 92 92 92 93 93 94 95 94 93 93 93 94 95 94 93 93 93 91 91 91 91 90 91 90 90 91 90 88 87 87 89 90 89 87 86 86 85 86 87 86 85
91 92 94 94 94 95 95 96 96 95 94 94 95 97 95 93 93 93 92 90 90 90 90 90 90 90 90 90 89 88 88 87 88 88 88 87 87 87 87 86 86 85
94 95 94 94 95 96 97 97 98 98 96 95 96 96 97 95 92 93 91 90 90 90 90 90 90 90 89 90 90 90 89 89 89 88 88 88 87 87 86 86 86 86
93 94 94 95 96 97 98 98 99 98 98 96 96 96 96 97 94 93 92 90 90 91 91 90 90 90 89 89 91 91 89 90 90 89 89 88 88 88 88 88 87 86
93 93 94 96 94 96 98 98 99 100 100 98 97 96 97 97 97 93 92 92 90 91 91 90 90 90 89 89 90 90 89 89 90 90 89 89 89 89 90 89 89 88
93 93 93 93 94 93 95 98 99 99 97 97 96 96 97 97 98 95 94 93 92 91 91 91 90 90 89 89 89 90 90 89 89 90 90 89 89 90 91 91 90 90
92 93 94 93 93 93 94 95 97 96 96 96 95 96 97 98 98 98 94 92 92 91 91 91 91 90 91 90 89 89 90 90 89 90 90 89 89 90 90 90 91 91
92 92 91 92 92 91 91 93 96 96 97 96 95 96 95 94 95 95 97 94 92 91 91 91 91 91 83 74 78 89 89 91 90 89 89 89 88 88 90 90 92 93
91 91 91 90 91 91 91 91 92 94 93 93 93 94 93 92 93 95 96 96 93 93 92 92 92 91 73 69 70 74 87 89 89 88 89 89 89 88 87 89 90 91
91 91 90 90 90 90 90 90 91 92 92 92 92 93 92 93 93 93 93 95 95 94 94 93 93 78 69 68 69 69 75 89 91 90 90 89 89 89 89 89 90 91
91 90 90 89 89 90 90 90 90 90 91 92 92 92 93 91 91 92 92 93 94 92 93 94 95 75 67 66 68 68 69 80 92 91 90 90 89 89 89 88 88 89
90 90 89 89 90 90 90 89 89 89 91 93 93 92 91 91 92 91 91 91 92 92 91 94 95 74 65 65 66 66 67 74 91 91 91 91 90 90 90 89 88 88
90 90 89 89 89 89 89 89 89 89 90 92 93 93 91 90 91 90 91 91 93 94 93 95 97 71 63 63 63 63 65 70 88 90 90 90 90 90 89 90 89 88
91 90 89 89 89 89 89 88 88 88 88 90 91 93 93 93 92 93 92 92 92 93 93 92 96 69 62 62 62 62 64 78 86 87 88 89 89 89 89 89 89 89
92 91 90 89 89 89 88 88 88 88 89 90 91 92 93 92 91 93 92 93 92 91 91 91 95 75 59 60 60 60 65 81 84 86 86 87 88 89 89 89 89 89
92 91 90 89 89 88 88 90 91 91 91 90 90 92 93 94 94 93 93 93 93 92 93 92 94 78 57 59 59 58 68 82 84 85 85 85 87 88 89 88 88 79
93 92 91 91 89 89 90 90 90 90 91 91 93 93 93 93 93 93 93 93 96 95 80 89 94 82 56 59 57 57 68 83 84 84 84 85 86 86 88 88 88 80
94 91 91 91 90 90 91 91 92 93 92 93 92 93 93 94 94 94 94 94 95 95 95 94 93 93 72 57 56 56 60 81 85 84 84 84 85 85 86 86 87 88

ECMWFNIL_sfc_temp_051.txt.gz
Temp
82 81 81 81 82 82 81 81 82 82 81 81 81 81 82 82 83 83 83 82 82 82 81 81 81 81 82 81 80 80 80 80 80 79 78 78 77 76 76 76 75 75
81 82 82 82 81 81 81 82 82 82 81 81 82 81 82 82 83 84 82 82 82 83 82 81 81 81 81 81 80 79 79 79 79 81 78 78 77 77 77 76 76 75
82 81 82 81 82 82 83 83 82 82 82 83 82 82 82 83 83 83 83 82 82 83 82 82 81 81 81 81 80 80 79 78 79 81 78 78 78 78 77 78 76 75
82 82 82 83 83 82 83 82 82 82 83 82 83 84 84 84 83 83 83 83 82 82 83 83 82 82 81 81 80 79 79 79 80 80 79 78 78 79 77 77 78 77
82 82 83 83 83 83 83 83 83 82 83 83 84 83 83 83 83 83 82 83 82 82 82 82 82 82 81 80 80 79 79 79 79 78 78 77 78 78 78 77 76 76
82 83 83 83 83 83 83 83 83 83 83 84 84 85 84 84 84 84 83 83 83 83 83 83 82 82 82 81 80 80 80 80 79 78 77 77 78 79 80 78 76 75
82 82 83 83 83 83 83 83 83 83 84 85 84 84 84 83 83 84 84 83 83 83 83 82 82 82 82 81 80 80 80 80 80 79 78 77 77 78 79 78 77 75
83 83 83 83 83 83 83 83 83 83 84 84 84 84 85 85 83 84 84 84 84 83 83 83 82 82 82 82 81 80 80 81 80 79 79 77 77 77 78 78 77 76
83 83 83 83 83 84 84 84 84 84 84 84 85 85 85 86 85 84 83 84 84 83 82 82 82 82 82 81 81 80 80 80 81 80 79 78 77 77 78 78 77 76
83 83 84 84 84 84 84 85 86 85 85 85 85 86 85 85 85 85 83 82 83 83 82 82 82 82 82 82 81 81 80 80 80 80 80 79 79 78 78 78 78 76
83 84 83 83 84 85 85 86 86 87 86 85 86 86 86 85 84 85 84 82 83 83 83 83 82 82 82 82 82 82 81 81 80 80 80 80 80 79 79 78 78 78
84 84 84 84 84 85 86 86 87 87 86 86 86 86 86 86 85 85 85 83 83 83 83 83 83 83 82 82 83 82 81 81 81 81 80 80 80 80 80 79 79 78
84 84 84 85 84 85 86 87 87 88 88 87 87 87 87 86 86 85 84 84 84 84 84 83 83 83 82 82 82 82 81 81 81 81 81 80 80 81 81 81 80 80
84 85 85 84 85 85 85 87 87 88 87 87 87 87 87 87 86 85 85 85 85 84 84 84 83 83 83 82 82 82 82 81 81 81 81 81 81 81 81 81 81 81
85 85 85 85 85 84 85 86 86 86 87 87 86 87 87 88 88 87 85 84 84 84 84 84 84 83 83 83 82 82 83 82 81 81 81 80 80 81 81 81 82 82
85 85 84 84 84 84 84 85 86 86 87 86 86 86 87 87 87 86 86 85 84 84 84 84 84 84 79 72 75 83 82 83 82 81 81 81 80 80 81 81 82 83
85 84 84 83 84 84 84 84 85 85 85 85 85 85 85 85 86 86 86 86 85 84 84 84 84 84 72 68 69 72 81 82 82 81 81 81 81 80 80 81 81 82
85 84 84 83 83 83 83 84 84 84 84 84 84 84 84 85 85 85 85 86 86 85 85 84 84 75 69 67 68 68 72 83 83 82 81 81 81 81 81 81 81 82
85 84 84 84 83 84 84 83 83 83 83 83 84 85 85 84 84 85 85 85 85 85 85 85 85 74 67 66 66 67 67 75 84 83 82 82 82 81 81 81 81 81
85 84 84 84 84 84 84 83 83 83 84 85 85 85 84 84 85 85 85 85 85 85 84 86 85 74 66 65 65 65 66 70 84 83 83 82 82 82 82 82 81 81
85 85 84 84 84 84 83 83 83 83 84 85 86 85 84 84 85 85 85 85 86 86 85 86 87 72 65 63 63 63 65 67 82 83 83 83 83 83 82 82 82 81
85 85 84 84 84 83 83 83 83 83 83 84 85 86 86 86 85 86 85 85 86 87 86 84 88 70 64 63 62 62 64 72 80 82 82 83 83 83 83 83 83 82
86 86 84 84 84 83 83 83 83 83 84 85 84 86 86 86 86 86 86 86 86 86 85 86 87 73 63 61 61 61 63 75 78 81 81 82 82 82 83 83 83 83
86 86 85 84 84 83 83 84 85 85 85 85 85 85 86 87 87 87 87 87 86 86 87 86 87 76 60 60 59 59 65 77 78 79 80 81 81 82 82 82 83 77
87 86 85 85 84 84 85 84 85 85 85 85 86 86 87 87 86 86 87 87 88 88 79 84 87 79 59 58 57 58 65 77 79 79 79 80 80 81 82 82 83 79
87 86 85 85 84 84 85 85 85 85 85 85 85 86 86 86 86 86 87 87 87 87 88 85 86 87 72 55 56 56 59 76 79 78 78 79 80 80 80 81 82 82

ECMWFNIL_sfc_temp_057.txt.gz
Temp
78 78 77 77 77 77 77 76 76 76 76 75 75 75 76 77 77 77 77 77 77 77 77 77 77 77 77 76 76 76 76 76 76 75 75 74 73 73 72 71 69 70
78 78 78 77 76 76 76 77 76 76 76 76 77 77 76 76 77 77 77 77 77 77 77 77 77 77 77 76 76 75 75 75 75 77 75 74 74 73 73 72 71 70
78 78 77 77 77 76 77 77 77 76 77 77 77 76 76 77 77 77 77 77 77 77 77 77 77 77 77 76 76 76 75 75 75 76 75 74 74 73 73 73 71 70
78 78 78 78 78 77 77 77 76 76 77 76 76 77 78 78 77 77 76 78 77 77 77 77 77 77 77 77 76 75 76 75 76 75 75 75 74 74 74 73 73 71
78 78 78 79 79 78 77 77 77 77 77 78 78 77 77 76 76 76 76 77 76 76 77 77 77 77 77 77 76 75 75 75 75 75 74 74 74 74 74 73 72 72
78 78 78 78 78 78 77 77 77 78 78 78 77 78 77 77 77 77 77 77 77 77 77 77 77 77 77 77 76 76 76 75 75 75 74 74 75 74 75 74 73 72
78 78 78 79 78 78 78 78 78 78 78 79 77 77 77 77 77 77 77 77 77 77 77 76 76 77 77 77 76 76 76 76 75 74 74 75 74 74 74 74 73 73
79 79 79 78 78 78 78 78 78 78 78 77 77 78 77 78 78 78 78 77 77 77 77 77 77 77 77 77 76 76 76 77 76 75 74 74 74 74 73 74 74 73
79 79 78 78 78 78 78 79 78 78 78 78 78 78 78 78 78 78 78 77 77 77 77 77 77 77 77 77 76 76 76 76 76 75 75 74 74 74 74 74 73 73
78 79 79 79 78 79 79 79 80 79 79 78 79 79 78 78 78 78 78 77 77 77 77 77 77 77 77 77 77 76 76 76 76 76 76 75 75 75 74 74 74 73
79 79 78 78 79 79 79 80 80 80 80 79 79 79 79 79 78 78 77 77 77 77 77 77 77 77 77 77 77 77 77 77 76 76 76 76 76 76 76 74 74 74
79 79 79 79 79 79 80 80 81 80 80 80 80 79 79 80 79 78 78 78 78 78 78 78 78 78 77 77 78 77 77 77 77 77 77 76 76 76 76 75 75 75
79 79 79 79 79 80 80 80 80 81 81 80 80 80 80 80 80 79 79 79 79 79 78 78 78 78 78 77 77 77 77 77 77 77 77 77 77 77 77 76 76 75
79 80 80 79 80 79 79 80 80 80 80 80 80 80 80 80 80 79 80 80 79 79 79 79 78 78 78 78 78 78 78 77 77 77 77 77 77 77 77 77 77 76
79 80 80 79 79 79 79 79 80 80 80 80 80 80 81 81 81 81 80 79 79 79 79 79 79 78 79 79 78 78 78 78 77 77 77 77 76 77 77 77 77 77
79 79 79 79 79 78 78 79 79 79 80 79 79 80 80 80 80 80 80 80 79 79 79 79 79 79 75 69 71 79 78 78 78 78 77 77 76 76 76 76 77 78
79 79 79 78 78 79 78 78 78 79 79 78 79 79 79 79 79 79 80 80 80 79 79 79 79 79 70 66 66 68 77 78 78 77 77 77 77 76 76 76 77 77
79 79 78 78 78 78 78 78 78 78 78 78 78 78 78 79 79 79 79 80 80 80 80 80 80 72 68 66 65 65 68 78 79 78 77 77 77 77 77 77 77 77
79 79 79 78 78 78 78 78 78 78 78 78 78 79 79 78 78 79 79 79 80 79 80 80 80 71 67 65 64 64 64 70 79 79 78 78 77 77 77 77 77 77
80 79 79 79 79 79 78 78 78 77 78 79 79 79 78 78 79 78 79 78 79 79 79 80 80 72 66 64 63 63 63 66 77 79 79 78 78 78 78 77 77 77
80 79 79 79 79 79 78 78 78 78 78 79 79 79 78 78 78 78 79 79 80 80 80 80 82 70 64 62 61 61 62 63 75 78 79 79 79 79 78 78 78 78
80 80 79 79 79 79 78 78 78 78 78 79 79 79 80 80 79 80 79 79 80 80 80 80 82 69 64 62 60 60 61 68 73 76 77 79 79 79 79 79 79 79
81 81 80 79 79 79 78 78 78 78 79 79 79 79 79 79 80 80 80 80 80 79 79 80 81 72 62 60 59 59 60 70 72 75 76 77 78 79 79 79 79 79
82 82 81 80 80 79 79 79 80 80 80 80 79 79 79 80 81 80 81 81 80 80 81 80 80 74 62 59 58 58 63 72 73 74 75 76 77 78 79 79 80 76
83 82 81 81 80 80 80 80 80 80 81 80 80 81 80 81 81 81 81 81 82 81 76 79 81 75 61 59 57 57 63 73 74 74 75 75 76 77 78 79 79 77
84 82 82 82 81 81 81 81 81 81 81 80 80 81 81 81 81 81 81 81 82 81 82 80 80 81 72 58 57 55 58 72 75 74 74 75 76 76 77 77 78 79

ECMWFNIL_sfc_temp_060.txt.gz
Temp
78 77 77 76 76 77 76 76 76 76 75 76 76 76 76 77 77 77 78 78 78 78 77 77 78 77 78 78 78 78 78 77 78 78 77 77 76 76 75 74 74 73
77 78 78 77 76 76 76 77 76 76 75 75 76 76 76 77 77 78 77 77 78 78 78 78 78 78 78 77 77 77 77 77 77 78 77 76 76 76 76 76 75 74
78 78 78 77 77 77 78 77 76 76 76 76 76 76 76 77 77 77 78 78 78 78 78 78 78 78 78 77 77 77 77 77 77 78 77 76 77 76 76 77 76 75
77 78 78 79 78 77 78 76 76 76 77 76 76 77 77 78 77 77 77 78 77 77 78 78 78 78 78 78 77 77 77 77 78 78 77 77 77 77 76 76 76 75
78 78 78 79 79 78 77 77 77 77 77 77 77 76 76 76 76 77 77 77 77 78 77 77 78 78 78 78 77 77 77 77 77 77 76 76 77 76 77 76 75 75
78 78 78 78 78 77 77 77 77 77 77 78 77 77 77 77 77 77 77 77 78 78 78 78 78 78 78 78 77 77 77 77 77 76 76 76 77 77 77 76 75 75
78 78 78 79 79 78 77 77 77 78 78 78 77 77 77 77 77 77 77 77 78 77 78 77 77 77 78 78 77 77 77 77 77 76 76 76 76 76 77 76 75 75
78 79 79 78 78 78 78 78 78 78 78 77 77 77 77 78 77 78 77 77 78 77 77 78 77 77 78 78 77 77 77 77 77 76 76 76 76 76 76 76 76 75
79 78 78 78 78 78 79 79 78 78 78 77 78 79 78 78 78 78 77 77 77 77 77 77 77 77 78 77 77 77 77 77 78 77 76 76 76 76 77 76 76 75
78 78 79 79 78 79 79 79 80 79 79 78 79 79 78 78 78 78 78 77 77 77 77 77 77 77 77 78 77 77 77 77 77 77 77 77 77 77 77 76 76 75
79 79 78 78 79 80 79 80 80 80 79 79 79 79 79 78 78 78 77 77 77 77 77 77 77 77 77 78 78 78 78 78 78 77 77 77 77 77 77 77 76 76
79 79 79 79 79 80 80 80 81 80 80 80 80 79 79 79 78 78 78 77 77 78 78 78 77 77 77 78 78 78 78 78 78 78 78 78 78 78 78 78 77 77
79 78 79 79 79 79 80 80 80 81 81 80 80 80 80 80 80 78 78 78 78 78 78 78 78 78 77 77 78 78 78 78 78 78 78 78 78 78 79 78 78 78
79 79 79 78 79 78 79 80 80 80 80 80 80 79 80 80 80 79 79 79 79 79 79 79 78 78 78 78 78 78 78 78 78 78 78 78 78 79 79 79 79 79
78 79 79 78 79 78 78 79 79 79 79 79 79 80 80 81 81 81 80 79 79 79 79 79 79 79 79 79 78 78 78 78 78 78 78 78 78 79 79 79 79 79
78 78 78 78 78 77 77 78 79 79 80 79 79 79 79 79 79 79 80 80 79 79 79 79 79 79 75 68 71 78 78 79 79 78 78 78 77 77 78 79 79 80
78 78 78 77 77 77 77 77 78 78 78 78 78 78 78 78 79 79 80 80 80 80 79 79 79 79 69 65 65 67 77 79 78 78 78 78 78 77 77 78 79 79
78 78 77 77 77 77 77 77 78 77 77 77 77 78 77 79 78 78 78 80 80 80 80 80 80 71 67 65 65 64 68 78 80 79 79 78 78 78 78 79 79 79
78 78 77 77 77 77 77 77 77 77 77 77 77 78 79 77 77 78 78 79 79 79 80 81 81 70 66 64 64 64 64 70 80 80 79 79 79 79 79 78 78 78
78 78 77 77 78 78 77 77 77 77 78 79 79 78 77 78 78 78 78 78 78 78 78 80 80 71 65 63 63 62 63 66 77 79 80 80 79 79 79 79 79 78
78 78 78 78 78 78 77 77 77 77 77 79 79 79 78 77 78 78 78 78 79 80 79 80 82 70 64 62 61 60 61 63 75 78 79 79 79 80 79 80 79 79
79 78 78 78 78 78 77 77 77 77 77 78 78 79 79 80 79 80 79 79 79 80 79 79 82 68 64 62 60 59 60 68 74 76 77 78 79 79 80 80 80 80
80 80 79 78 78 78 77 77 77 77 78 79 78 79 79 79 79 80 79 80 79 79 79 79 81 72 62 60 59 58 60 71 73 75 76 77 78 79 79 80 80 80
80 80 79 79 78 78 78 79 79 79 79 79 79 79 79 80 80 80 80 80 80 80 80 79 80 74 62 59 58 57 63 73 74 74 75 76 77 78 79 79 80 76
81 81 80 80 78 79 79 79 79 79 80 80 80 80 80 80 80 80 80 80 82 82 75 78 81 76 62 59 58 56 63 74 75 75 75 75 76 77 78 79 79 77
82 80 80 80 79 79 80 80 80 81 81 80 80 81 80 81 81 80 80 81 82 82 82 80 80 81 74 58 57 55 58 73 75 75 74 75 76 77 77 77 78 79

ECMWFNIL_sfc_temp_063.txt.gz
Temp
82 82 82 82 83 83 83 83 84 84 83 85 85 85 84 85 86 86 86 86 85 85 85 84 84 84 85 84 84 84 84 84 85 86 85 85 85 85 85 85 85 84
82 82 82 83 83 83 83 84 83 83 83 83 85 85 85 85 86 86 85 85 85 85 85 85 84 84 84 85 84 84 84 84 84 87 84 84 85 85 86 85 85 85
83 82 83 83 84 83 85 85 84 84 84 85 85 85 85 86 85 85 85 85 85 86 85 85 85 84 84 84 84 84 85 83 83 87 85 84 85 85 85 88 87 86
82 83 84 84 85 84 85 84 84 84 85 84 85 86 86 86 85 85 84 84 85 85 86 86 85 86 85 85 84 84 85 84 85 85 84 85 85 85 85 86 86 86
83 83 84 85 85 84 84 84 85 85 85 85 86 85 84 84 84 85 85 84 84 85 85 85 85 85 85 84 84 84 84 85 85 84 84 84 84 84 85 85 84 84
83 83 83 84 84 84 84 84 84 85 85 86 85 86 85 85 84 85 85 85 86 86 86 87 86 86 86 85 84 84 85 86 86 84 83 83 85 86 86 85 84 83
84 83 84 85 85 85 84 84 84 84 86 86 85 85 86 85 84 84 84 85 86 85 86 85 84 85 85 85 84 83 84 84 85 84 83 84 84 84 86 85 83 83
84 85 85 85 85 85 84 85 85 84 85 85 85 85 85 86 85 86 85 85 86 85 84 85 84 84 86 85 84 83 84 85 84 83 83 83 84 83 84 85 84 83
85 85 85 85 85 86 86 86 86 86 86 85 86 87 86 86 86 86 84 84 84 84 84 84 84 84 85 85 84 83 83 85 85 84 83 83 83 83 84 85 84 83
84 85 86 86 86 86 87 88 88 87 86 86 86 88 86 85 86 86 85 83 83 83 83 84 84 84 85 85 84 84 84 83 84 84 84 84 84 85 85 84 84 83
85 86 85 85 86 87 88 88 89 89 87 86 87 87 88 86 85 85 84 83 84 84 83 83 84 84 84 85 85 85 85 85 84 84 84 84 84 84 84 84 84 84
85 86 86 86 87 88 88 88 89 88 88 87 88 87 87 88 86 85 85 83 84 84 84 84 84 84 84 84 86 86 85 85 85 85 85 85 85 85 85 85 85 85
85 85 85 87 86 87 88 88 88 89 89 88 88 87 87 88 88 86 85 85 84 85 85 84 84 84 84 84 84 84 84 84 85 85 85 85 85 86 87 86 86 86
85 85 86 85 85 85 86 88 88 88 87 88 87 87 88 88 88 87 87 86 85 85 85 85 85 84 84 84 84 84 85 84 85 85 85 85 85 86 87 88 87 87
84 86 86 85 85 84 85 86 86 86 86 86 86 87 88 89 89 88 87 85 86 85 85 85 85 85 85 85 84 84 85 85 85 85 85 85 85 86 87 86 87 88
83 84 83 84 83 83 83 84 86 86 87 86 85 86 86 86 86 86 88 86 85 85 85 85 85 86 79 70 74 84 85 85 85 84 84 85 84 84 86 86 87 89
83 83 83 82 83 83 83 83 83 84 84 83 84 84 84 84 84 85 86 87 86 86 86 85 86 85 71 66 67 69 82 85 84 84 84 84 84 83 83 85 87 87
83 83 82 82 82 82 82 82 83 83 83 83 83 83 83 84 84 84 84 86 87 87 87 87 87 75 67 66 66 65 70 83 86 85 85 85 85 84 85 85 85 87
83 82 82 82 81 82 82 82 82 82 82 82 83 83 84 82 83 84 84 85 86 85 86 88 88 73 66 65 65 64 64 73 86 86 86 86 85 85 85 84 85 85
82 82 82 82 82 82 82 82 82 81 83 85 85 83 82 83 84 83 84 83 84 84 84 87 87 74 65 63 63 62 63 67 84 85 86 86 85 86 86 85 84 84
83 82 82 82 82 82 82 81 81 82 82 84 85 84 83 82 83 83 83 84 85 86 85 86 89 71 63 61 61 60 61 65 82 84 84 85 85 86 85 85 85 85
83 83 82 82 82 82 81 81 81 81 81 83 84 85 85 86 85 85 85 85 85 86 86 85 88 69 63 61 59 60 60 74 80 81 83 84 85 85 85 85 85 85
84 84 83 82 82 82 81 81 81 81 82 83 83 84 86 85 85 86 85 86 85 85 85 85 87 74 62 59 58 58 62 78 80 81 82 83 83 84 85 85 85 86
84 84 83 82 82 82 82 83 84 84 84 83 83 84 85 87 87 86 87 86 87 86 87 85 87 76 60 59 57 56 65 79 80 81 81 81 82 84 85 84 85 80
85 85 84 84 82 83 84 84 84 84 85 85 86 86 86 86 86 86 87 87 89 89 78 83 87 80 60 59 57 56 66 80 81 81 80 81 83 83 84 85 84 81
86 84 84 84 83 83 84 84 85 86 86 86 86 87 86 87 87 87 87 87 89 88 89 87 87 88 76 57 57 55 58 78 82 81 80 81 82 82 83 83 84 84

ECMWFNIL_sfc_temp_066.txt.gz
Temp
87 87 87 87 88 89 88 88 90 90 89 92 92 91 91 91 91 92 92 92 91 91 91 90 89 89 90 90 89 89 89 89 90 91 90 90 90 90 90 90 90 89
87 87 87 87 87 88 89 90 89 89 89 89 92 93 91 91 92 92 91 91 91 91 91 91 90 89 89 90 89 89 88 89 88 92 89 89 89 90 91 90 90 90
88 87 87 87 89 89 91 90 89 90 91 91 91 92 93 92 92 91 91 91 91 93 91 90 90 89 90 90 89 89 89 88 87 92 89 88 90 90 90 93 92 91
87 88 89 90 90 89 90 90 90 89 91 91 91 93 93 94 92 92 90 90 91 91 92 92 91 92 90 90 89 89 89 88 89 89 89 88 89 90 90 91 92 92
88 88 90 90 90 89 90 89 91 91 91 91 93 92 91 90 91 92 91 90 89 91 91 90 91 91 90 89 89 88 89 90 89 88 88 88 89 89 91 91 90 90
88 88 88 89 89 89 90 90 90 91 91 93 92 93 92 91 91 91 91 91 92 92 93 93 92 92 92 90 89 89 90 91 92 89 87 87 89 91 92 91 89 88
89 88 89 90 91 90 89 89 90 90 92 93 92 91 92 92 90 90 91 91 92 92 93 91 90 91 91 90 89 88 89 89 90 89 87 88 88 88 91 90 89 88
90 91 90 90 90 90 89 91 91 90 91 91 92 91 92 93 91 92 91 91 92 91 90 92 90 89 92 91 89 88 89 91 90 88 87 88 88 87 88 90 89 87
91 90 90 90 91 92 93 93 92 92 92 91 92 94 92 92 92 93 90 90 90 90 89 90 89 90 90 90 90 88 88 90 91 89 88 88 88 87 89 89 89 88
90 91 92 92 92 93 93 94 95 94 92 92 93 94 93 91 92 92 91 89 89 89 89 89 89 90 90 90 89 89 88 88 89 89 89 89 89 90 90 89 89 88
92 93 92 92 93 95 95 95 96 96 94 93 93 94 95 93 91 91 90 89 89 89 89 89 89 89 89 91 91 91 90 90 89 89 89 89 89 89 89 89 89 90
91 92 93 93 94 95 96 96 97 96 96 94 94 93 94 95 92 92 91 89 89 89 89 89 89 89 89 90 92 92 91 91 91 90 90 90 90 90 90 90 90 90
92 92 92 94 93 95 96 96 96 97 97 96 94 94 94 95 95 92 91 90 89 90 90 89 89 90 89 89 90 90 90 90 91 91 90 91 91 92 93 92 92 92
92 92 93 92 92 92 93 96 96 96 95 95 94 93 95 95 96 94 93 92 91 90 90 90 90 90 89 89 89 90 90 90 90 90 92 91 91 92 93 94 94 94
91 92 93 91 92 91 92 93 94 94 94 94 93 94 96 96 96 96 93 91 92 90 90 91 91 90 91 90 89 89 90 91 90 90 91 90 91 93 93 92 94 95
90 90 90 90 90 89 89 91 93 93 94 93 92 93 93 93 93 94 95 93 91 91 91 91 91 92 84 75 79 90 90 92 91 90 90 90 90 90 92 93 94 96
89 89 89 88 88 89 89 89 90 91 91 90 90 91 91 90 92 93 94 94 93 92 92 92 92 92 74 68 70 73 87 90 90 89 89 89 90 88 88 91 93 94
89 88 87 87 88 87 87 88 89 89 89 89 89 90 89 91 91 91 91 93 94 94 93 93 93 79 69 67 68 68 74 89 92 91 91 90 90 90 90 91 91 94
88 88 87 87 87 87 87 87 87 88 88 89 89 89 90 88 88 90 90 91 93 91 93 94 95 76 66 65 66 66 67 78 92 92 92 92 91 90 90 90 90 90
88 87 87 87 87 87 87 87 86 86 89 91 91 89 88 88 90 89 89 88 90 90 90 93 94 76 65 63 64 64 65 71 89 91 91 91 91 91 91 90 89 89
87 87 86 87 87 87 86 86 86 86 87 90 92 91 88 87 89 89 89 89 91 91 91 93 97 70 63 62 62 61 63 68 87 89 89 90 90 90 90 91 90 89
88 87 87 87 87 86 86 86 86 86 86 88 90 91 91 91 90 91 91 90 91 91 91 91 95 70 61 61 60 60 61 78 85 85 87 88 89 89 90 89 90 90
89 89 87 87 87 86 86 86 86 86 87 88 89 91 92 91 91 92 91 92 91 90 90 90 94 76 60 59 59 58 64 83 84 86 85 86 87 88 89 89 90 90
89 89 87 87 87 86 86 88 89 89 89 89 89 90 92 94 93 92 92 92 92 92 92 91 93 79 59 58 57 57 69 84 84 85 85 85 86 87 89 88 89 84
91 90 88 88 87 87 88 88 88 88 90 90 91 92 91 92 92 92 93 93 96 95 82 89 94 82 58 60 56 56 69 85 85 85 84 85 87 87 88 89 88 85
91 88 88 88 87 88 88 89 90 91 91 91 91 92 92 93 93 92 92 93 95 95 95 93 92 94 74 57 56 55 60 83 86 85 84 85 86 86 87 87 88 89

ECMWFNIL_sfc_temp_069.txt.gz
Temp
89 89 89 89 90 91 90 90 92 91 90 93 93 92 92 93 93 94 94 93 91 91 91 91 90 90 91 90 90 89 89 90 90 92 90 90 91 91 91 91 91 90
89 89 88 90 89 90 91 92 91 91 90 91 93 94 93 93 94 94 93 93 92 92 91 92 91 90 90 90 90 89 89 89 89 93 90 90 90 91 92 92 92 91
89 89 89 90 91 91 94 93 91 92 93 93 93 94 95 95 94 93 93 93 93 94 91 91 91 90 90 90 90 90 90 88 88 92 91 90 91 90 91 94 94 92
88 89 91 91 92 92 93 92 92 91 93 93 93 96 96 98 94 93 92 92 92 92 93 92 91 92 91 90 90 90 90 89 90 90 90 90 90 91 91 91 93 93
89 90 91 91 92 92 91 92 93 93 93 94 95 94 93 93 93 93 92 92 91 93 92 92 92 92 91 90 90 89 90 91 91 90 89 89 90 90 91 91 91 91
89 89 89 91 91 91 92 92 93 94 94 96 94 96 95 94 94 93 93 93 93 94 94 94 93 93 93 91 90 89 90 92 93 90 89 88 90 92 94 92 90 90
91 90 91 92 93 92 92 92 92 93 95 96 95 94 95 94 93 93 93 93 94 92 94 92 91 92 92 91 89 89 89 90 91 91 88 89 88 90 93 92 90 90
92 92 92 92 93 93 92 93 93 93 94 94 95 94 95 95 93 95 94 94 94 93 92 94 92 91 94 92 90 89 89 92 91 89 89 88 89 88 89 91 91 89
93 92 92 92 93 94 94 95 95 94 94 94 96 97 95 95 95 95 93 92 93 93 92 93 91 92 93 92 91 90 89 91 92 90 89 89 89 88 90 90 90 89
92 93 94 94 94 95 95 96 97 96 95 95 96 98 96 94 95 94 93 91 92 92 92 92 92 92 92 93 91 91 90 89 90 91 91 90 90 90 91 90 90 89
94 95 94 94 95 96 97 97 98 98 96 96 96 97 98 95 93 94 92 91 92 92 91 91 92 92 91 93 93 92 91 91 90 90 91 90 90 90 90 91 91 91
94 95 95 95 96 97 98 98 99 99 98 96 97 96 97 98 94 94 93 91 91 92 92 91 91 91 90 91 94 94 92 92 92 91 91 91 91 91 91 91 91 91
95 94 95 96 95 97 98 98 99 100 100 97 97 97 97 98 97 94 93 93 91 92 92 91 91 92 90 90 92 92 92 91 92 92 92 92 92 93 94 93 93 93
94 95 96 94 95 94 96 98 99 99 98 98 96 96 97 98 98 95 95 95 93 92 92 92 91 91 91 90 91 92 93 92 92 92 93 92 92 93 94 95 95 95
93 95 96 94 95 94 95 96 97 97 97 97 96 96 98 99 99 98 95 93 93 92 92 93 93 92 92 92 91 91 92 93 92 92 92 92 92 94 94 94 96 97
92 93 93 93 93 92 92 94 97 97 98 97 96 96 95 95 95 96 97 95 93 93 93 93 93 94 86 78 82 91 91 94 93 91 91 91 91 91 94 95 96 97
92 92 92 91 92 92 92 92 94 95 95 94 94 94 93 93 95 96 97 96 95 94 94 94 95 95 77 71 73 77 90 92 92 91 91 91 92 90 90 93 95 96
92 91 91 91 91 90 91 91 93 93 92 92 93 94 92 94 95 94 94 97 96 96 95 95 95 83 70 70 71 71 78 91 94 93 93 92 91 92 92 92 93 96
91 91 90 90 90 90 90 91 91 92 92 93 94 93 94 92 91 94 94 95 96 94 95 96 97 77 67 68 69 69 69 81 95 94 94 94 92 92 92 91 92 92
90 90 90 89 90 90 90 90 90 90 93 95 95 93 91 92 94 92 93 92 93 94 92 96 97 75 66 65 67 66 68 73 92 95 95 95 93 93 93 92 91 91
90 90 89 89 89 90 89 89 89 90 91 93 95 94 91 90 92 92 92 93 94 95 95 96 100 70 65 63 64 64 66 71 89 92 93 93 93 94 92 93 92 92
91 90 89 89 89 89 89 88 89 89 89 92 93 95 94 94 93 94 93 93 93 95 95 93 97 63 64 62 63 63 64 81 87 87 88 90 91 92 92 91 92 92
91 91 89 89 89 89 88 89 88 89 90 92 92 94 95 94 93 94 93 94 93 93 93 92 96 70 61 60 61 60 66 85 86 87 87 87 89 90 91 91 92 92
91 91 89 89 89 88 88 90 91 91 91 91 92 94 95 96 95 94 95 94 94 93 94 94 96 76 58 59 60 58 70 85 86 86 86 86 87 89 90 90 90 86
93 92 90 90 88 89 90 90 90 90 92 92 94 95 95 96 95 94 95 94 97 97 85 92 97 83 57 60 58 57 71 86 87 86 85 86 87 88 89 90 90 87
93 91 90 90 89 90 90 91 92 93 93 93 93 95 95 97 97 95 95 95 97 97 97 96 95 94 70 58 57 56 62 84 87 86 85 85 87 87 88 88 88 89

ECMWFNIL_sfc_temp_072.txt.gz
Temp
86 86 86 86 86 86 86 85 87 86 85 87 87 86 86 87 88 89 89 88 88 88 88 87 87 87 88 87 87 87 86 87 88 87 87 87 86 88 88 88 86 84
86 86 85 86 85 85 86 87 86 86 85 85 87 87 87 88 89 89 88 89 88 88 88 89 88 87 87 87 86 86 85 86 86 90 87 87 86 87 89 88 88 86
86 86 87 87 88 88 90 89 87 87 87 89 89 88 89 90 89 88 88 89 88 90 88 87 87 87 87 87 86 86 86 85 85 89 87 86 87 86 87 90 89 89
86 87 88 89 89 88 89 88 88 87 89 88 89 92 91 93 90 89 88 89 87 88 88 88 88 88 87 87 86 85 86 85 86 86 86 86 87 87 87 87 88 89
87 87 88 88 89 88 88 89 90 89 90 89 91 89 88 87 88 90 88 88 87 88 88 87 88 88 87 86 86 85 86 86 86 86 85 85 86 87 87 87 86 87
87 86 87 88 88 88 89 89 89 90 90 92 90 91 91 90 90 90 89 90 90 91 90 90 88 89 89 87 86 85 86 87 87 85 85 84 86 88 89 87 86 85
88 87 88 89 90 90 89 89 89 89 91 92 90 90 91 91 90 89 89 89 90 89 90 88 86 87 88 87 85 85 85 85 86 86 84 85 85 85 89 87 85 85
88 89 89 89 90 90 89 90 90 90 90 90 91 90 91 92 90 92 90 90 90 89 88 89 87 86 89 88 86 85 86 88 87 85 84 84 85 84 85 87 87 85
89 88 88 89 90 90 91 92 91 92 91 91 92 93 92 92 91 92 89 89 89 88 87 88 87 88 88 88 86 85 85 87 88 86 85 85 85 85 86 86 86 85
88 89 90 90 90 91 91 92 93 93 92 92 93 95 93 91 91 91 89 87 88 88 87 87 87 88 88 88 87 87 86 85 86 86 86 86 86 86 86 86 86 85
90 90 89 89 90 92 92 93 94 94 93 93 94 94 94 92 90 90 88 88 89 89 88 88 88 88 87 89 89 88 87 87 87 86 86 86 86 86 87 86 86 86
90 90 90 90 91 92 93 94 95 94 94 94 94 93 93 94 92 91 90 88 88 89 89 88 88 88 87 88 90 90 88 88 88 87 87 87 87 87 87 87 87 86
90 90 90 91 91 92 94 94 94 95 95 94 94 94 94 94 94 91 90 90 88 89 89 88 88 89 87 87 88 88 87 87 88 88 87 87 88 89 89 89 89 88
90 91 92 90 90 90 92 94 95 95 94 94 93 93 95 95 94 93 92 92 90 89 89 89 88 88 87 87 87 88 88 88 87 88 88 88 88 89 90 90 90 90
89 91 92 90 90 90 91 92 93 93 93 93 92 93 95 96 96 95 92 91 91 89 89 90 90 89 89 88 87 87 88 89 88 88 88 87 88 89 89 89 91 92
88 89 89 89 89 89 88 90 93 93 95 93 92 92 91 91 92 92 93 92 90 89 90 90 90 90 85 78 81 87 87 90 89 87 87 87 86 87 89 90 91 92
89 88 88 88 88 88 88 89 90 92 91 89 90 90 90 89 91 92 93 92 92 91 90 91 92 91 77 71 73 77 87 87 87 86 86 86 87 85 85 88 90 91
89 88 87 87 87 87 87 88 89 89 88 88 89 90 88 91 92 91 90 93 92 92 91 91 91 82 71 70 71 71 78 88 89 88 88 87 87 87 87 88 88 91
88 88 87 87 87 87 87 88 87 88 88 90 91 90 91 89 88 91 90 92 92 90 91 91 92 78 68 69 69 69 71 81 90 89 90 89 88 87 87 86 86 86
88 88 87 87 87 87 87 87 87 87 91 93 93 90 88 89 91 90 90 88 90 90 89 92 92 77 67 67 68 68 69 74 89 90 90 90 88 88 89 88 86 85
88 88 87 87 87 87 87 87 87 87 89 92 94 92 89 88 90 90 90 90 92 92 91 93 96 72 65 64 65 65 67 71 86 90 89 88 88 88 87 88 87 87
89 88 88 87 87 87 87 87 87 86 87 90 91 94 93 92 91 92 91 91 91 93 93 91 95 67 64 63 64 64 66 77 84 85 86 87 87 88 87 87 88 87
91 90 88 87 88 87 87 87 87 87 88 90 90 93 93 92 91 92 90 92 91 90 91 90 93 69 62 61 62 62 66 80 83 84 84 84 85 86 86 87 88 88
90 90 88 88 88 87 87 89 90 90 90 90 91 92 93 94 93 91 92 92 92 92 92 91 93 72 58 60 61 60 69 81 82 83 83 83 84 85 85 85 87 88
91 90 89 89 87 88 89 89 89 89 91 91 93 93 92 92 91 91 92 92 95 95 84 89 94 78 55 60 58 58 69 83 83 83 82 83 84 84 85 85 85 85
91 89 88 88 87 88 89 89 90 91 91 92 92 93 93 94 93 92 92 92 94 94 94 93 92 90 68 58 57 57 62 82 83 82 82 82 83 83 84 84 84 85

ECMWFNIL_sfc_temp_075.txt.gz
Temp
81 80 81 80 79 80 81 79 78 79 78 79 79 80 80 81 83 83 82 82 82 82 81 81 81 81 83 82 79 80 80 79 81 81 81 80 79 81 81 80 79 78
81 81 81 81 79 79 80 81 80 79 78 79 80 79 80 81 82 83 82 82 82 83 82 82 81 81 81 81 80 79 79 79 79 83 80 80 80 80 81 81 81 80
82 81 81 81 81 80 82 82 81 81 80 81 81 81 81 82 81 81 82 83 83 83 82 82 81 81 81 81 79 80 80 78 78 80 79 79 80 81 80 82 81 81
82 82 82 83 83 82 82 81 81 81 82 80 81 83 84 86 83 81 81 84 82 82 83 82 82 82 81 81 80 79 80 79 79 79 79 79 80 81 80 81 81 80
82 82 83 83 83 83 83 82 82 82 82 82 83 82 82 83 82 83 81 82 82 82 82 82 81 82 81 81 80 79 80 79 79 80 79 78 79 80 80 80 78 80
83 83 83 83 83 83 83 83 83 83 83 83 83 83 83 83 83 83 83 82 82 83 83 83 82 82 82 81 80 80 80 80 80 79 79 78 79 80 83 81 79 78
83 83 83 84 84 84 84 84 83 84 84 85 84 84 84 83 83 84 84 83 83 83 83 82 82 82 81 81 80 79 79 79 79 79 79 79 78 78 81 80 79 79
83 84 84 84 84 84 84 84 84 84 84 84 84 85 85 85 83 85 84 85 84 83 83 83 82 81 82 81 80 79 80 82 80 79 79 79 79 79 79 80 79 78
84 84 84 84 84 85 85 85 85 85 85 85 85 86 86 86 85 85 84 84 84 83 82 82 81 82 82 81 81 80 80 81 82 79 79 79 79 79 79 80 79 78
83 84 84 84 84 85 85 86 87 87 86 86 86 87 86 86 86 85 84 83 84 83 82 82 81 82 83 82 81 81 80 80 80 80 79 79 80 79 80 80 80 78
84 84 84 84 85 86 86 87 87 88 87 87 87 87 87 86 85 85 83 83 84 83 83 83 82 82 82 83 83 82 82 81 81 80 80 79 80 80 81 79 79 79
84 84 84 84 85 86 86 87 88 88 88 87 87 87 87 87 86 86 85 82 83 84 83 83 83 82 82 83 84 83 82 82 82 81 80 80 80 80 80 80 81 80
84 84 85 85 85 86 87 87 88 88 88 88 88 88 88 88 87 85 85 84 83 84 84 83 83 83 82 82 83 83 82 82 82 81 81 80 81 82 82 81 81 81
85 85 85 85 85 85 86 87 88 88 88 88 88 88 88 88 88 86 86 85 85 84 84 84 83 83 82 82 83 83 82 82 82 82 82 82 81 82 83 83 83 83
85 86 86 85 85 85 86 86 87 87 87 87 87 88 89 89 89 88 86 85 85 84 84 84 84 84 84 83 83 83 83 82 82 82 82 81 82 82 82 82 84 85
84 85 85 84 84 84 84 86 87 87 88 87 87 87 88 88 87 87 87 86 85 84 84 84 84 85 81 76 78 84 83 84 83 82 82 81 81 81 82 82 84 85
84 84 84 83 84 84 84 84 85 87 86 85 86 86 86 86 86 86 87 87 86 85 84 85 86 86 75 70 71 75 83 82 82 81 81 81 81 80 80 81 83 84
85 84 83 83 83 83 83 84 85 85 85 85 85 85 85 86 86 85 86 87 87 86 85 85 85 79 71 69 70 70 76 83 83 82 82 81 81 81 81 81 82 83
84 84 83 83 83 83 83 84 84 84 85 85 85 86 86 85 85 85 84 86 87 85 85 86 86 76 69 68 68 68 70 79 84 83 81 82 82 82 81 80 80 81
84 84 83 83 83 83 83 83 83 83 85 87 86 86 85 85 86 86 84 84 86 85 85 86 85 77 67 66 66 66 68 73 84 84 83 82 82 82 83 81 79 79
85 84 84 84 83 83 83 83 83 84 84 86 87 86 85 84 86 86 85 84 85 86 85 86 88 73 65 64 64 64 66 70 83 84 83 82 81 82 82 82 81 80
85 84 84 84 83 83 83 83 83 83 83 85 86 87 86 86 86 87 86 85 85 86 86 85 88 69 65 63 63 63 65 74 80 81 82 82 82 81 81 81 82 82
87 86 84 84 84 83 83 83 83 83 84 85 86 87 86 86 86 87 87 87 86 85 85 85 87 71 64 62 62 62 65 76 79 81 81 81 81 79 80 81 82 82
87 86 85 84 84 83 83 84 85 86 86 86 86 87 87 87 87 87 88 88 87 87 86 84 87 73 61 61 61 60 67 77 79 79 80 80 81 80 79 78 80 85
88 87 86 85 84 84 85 85 85 85 86 87 87 88 88 88 87 87 88 88 89 89 83 85 87 75 58 61 60 59 67 79 79 79 79 79 80 80 80 80 79 82
89 87 86 86 85 85 86 86 86 86 87 87 87 88 88 89 87 87 88 88 88 88 88 87 88 84 65 59 58 58 61 78 79 79 78 79 79 79 79 79 80 81

ECMWFNIL_sfc_temp_078.txt.gz
Temp
77 77 78 79 78 78 77 76 75 76 77 78 78 78 78 79 80 80 80 80 79 79 79 79 79 79 80 78 78 78 78 78 78 78 77 78 77 77 78 77 76 76
78 78 78 79 78 78 76 78 76 76 77 77 79 79 79 78 79 80 80 79 80 80 79 79 79 79 79 79 77 77 76 77 78 80 78 77 77 77 78 78 78 77
79 78 78 78 79 79 79 78 77 77 77 78 79 79 79 80 79 79 80 80 79 80 79 79 79 79 79 79 78 78 78 76 77 78 78 77 77 77 78 79 77 78
79 79 79 79 80 80 81 78 76 76 78 77 78 79 80 81 80 79 79 81 79 79 80 79 79 79 79 79 78 77 78 77 78 77 77 77 77 78 78 78 78 77
80 79 80 80 80 80 80 80 79 78 77 78 79 78 79 79 78 79 79 79 79 79 79 79 79 79 79 79 78 78 77 77 77 76 76 76 76 77 78 78 77 77
80 80 80 80 80 79 80 80 80 80 79 79 79 80 79 79 79 79 79 79 79 80 80 79 79 79 79 79 78 78 78 77 77 76 76 76 77 77 79 78 77 76
80 80 80 81 81 80 80 80 81 81 81 81 80 79 80 79 79 79 78 79 80 79 80 79 79 79 79 79 78 77 77 77 77 76 76 76 76 76 77 78 77 77
81 81 81 81 81 81 80 80 80 81 81 81 80 80 80 81 80 81 80 79 79 79 79 80 79 79 79 78 78 77 77 78 78 76 76 76 76 76 76 77 77 76
82 81 81 81 81 81 81 82 81 81 81 81 81 82 81 81 81 82 81 80 79 79 79 80 79 79 79 79 78 78 78 78 79 77 77 76 76 76 77 76 76 76
81 81 82 82 81 82 82 83 83 83 82 82 82 83 82 81 81 81 81 80 80 79 79 79 79 79 79 79 79 79 78 78 78 78 77 77 77 77 77 77 77 76
82 82 81 81 82 83 83 83 84 84 83 82 83 83 83 82 81 81 80 80 80 80 79 79 80 80 79 80 80 80 79 79 78 78 77 77 77 77 79 77 77 77
82 82 82 82 82 83 83 84 84 84 84 83 83 83 83 83 82 82 81 80 80 81 80 80 80 80 79 80 80 80 79 79 79 78 78 78 77 77 78 77 77 77
82 82 82 82 82 83 84 84 84 85 85 84 84 84 84 83 83 82 82 81 80 81 81 81 80 80 79 79 80 79 79 79 79 78 78 78 78 78 78 78 78 78
82 82 83 82 82 82 83 84 84 84 84 84 84 84 84 84 84 83 83 82 81 81 82 82 81 80 79 79 79 80 79 79 79 78 78 78 78 78 79 79 79 79
82 83 83 82 82 82 82 83 83 84 84 84 84 84 85 85 85 84 83 82 82 81 81 82 81 81 81 80 79 79 80 79 79 79 79 78 78 79 78 79 79 80
82 82 82 82 81 81 81 82 83 83 84 83 83 84 84 84 84 84 84 83 82 81 81 82 82 82 79 74 76 81 80 81 80 79 79 79 78 78 78 78 80 81
82 81 81 80 81 81 81 81 82 83 83 82 82 83 83 83 83 83 84 84 83 83 82 82 83 83 74 70 70 73 80 80 79 79 79 79 78 78 78 78 79 80
82 81 81 80 81 80 81 81 81 81 81 82 82 82 82 83 83 83 83 84 84 83 83 83 83 77 70 68 69 69 74 81 81 80 79 79 79 79 79 79 79 80
82 81 81 81 80 81 81 81 80 80 81 81 82 83 83 82 82 83 83 83 84 82 83 83 83 75 68 67 67 67 68 76 82 81 80 79 79 79 79 79 79 79
81 81 81 81 81 81 81 80 80 80 82 83 83 83 82 82 83 83 83 82 83 83 82 84 83 76 68 65 65 66 67 71 82 81 80 80 80 80 80 79 78 78
81 81 81 81 81 81 80 80 80 80 81 82 83 83 82 82 82 82 83 83 83 84 83 83 85 73 66 64 63 63 65 68 80 82 81 80 80 80 79 80 79 79
81 81 82 81 81 81 80 80 80 80 80 82 83 84 84 84 83 84 83 83 83 84 84 83 86 71 65 63 62 62 64 71 77 79 80 80 79 79 79 79 80 79
82 82 81 81 81 81 81 81 80 80 81 82 82 83 84 83 83 84 84 84 83 83 83 83 85 73 64 62 61 61 63 73 76 78 79 79 80 79 79 79 79 79
82 82 82 82 82 81 81 82 83 83 82 83 82 83 83 84 85 84 85 85 84 83 84 83 84 76 61 61 60 60 66 75 76 77 78 79 79 80 79 77 79 83
81 82 82 83 82 82 83 82 83 83 83 83 84 84 84 85 84 84 85 85 86 85 80 83 85 78 60 61 60 59 65 77 77 77 77 78 79 79 79 78 77 80
83 82 82 83 83 83 83 84 84 84 84 84 84 85 85 85 85 85 84 85 86 85 85 84 84 84 71 59 59 58 60 76 78 77 76 77 78 78 78 77 77 77

ECMWFNIL_sfc_temp_081.txt.gz
Temp
76 76 76 76 74 75 74 74 74 75 75 75 75 75 76 77 77 77 77 77 77 77 77 77 77 77 78 76 76 76 76 75 76 76 76 76 75 76 77 76 74 73
76 76 77 77 75 74 74 75 74 75 75 75 76 76 76 76 77 77 77 77 77 78 77 77 77 77 77 76 75 75 74 75 75 77 76 75 76 75 76 76 76 75
76 76 76 76 77 75 76 75 75 75 76 76 77 76 76 77 77 76 77 77 77 78 77 77 77 77 77 76 75 76 76 74 74 76 76 75 75 75 75 76 75 75
76 77 77 78 78 77 77 75 74 75 76 75 76 77 78 79 77 76 76 78 77 77 77 77 77 77 77 77 76 75 75 75 75 75 75 76 76 75 75 75 76 76
78 77 77 78 78 78 77 76 76 75 76 76 77 76 76 76 76 76 76 76 76 76 76 76 77 77 77 77 76 75 75 75 74 74 75 75 75 75 76 75 74 75
78 78 77 77 77 77 77 77 77 76 76 76 76 77 76 77 76 77 77 76 76 77 77 76 76 77 77 77 76 76 76 75 75 74 74 74 75 75 76 76 74 74
78 78 77 78 77 77 77 78 78 77 77 78 76 76 76 76 76 76 77 77 77 77 77 76 76 76 77 76 76 76 75 75 74 74 74 74 74 74 74 74 74 74
79 79 79 78 78 77 77 77 78 78 77 76 76 77 76 77 76 77 77 77 77 76 76 77 76 76 77 76 76 75 76 77 76 75 74 74 73 74 75 75 74 73
80 79 79 78 78 78 78 78 78 78 78 77 77 77 76 77 77 77 77 76 76 76 75 76 76 76 76 76 76 76 76 76 76 75 75 74 74 74 74 74 74 74
79 79 79 79 79 79 79 79 80 79 78 78 78 78 77 77 77 77 76 75 75 76 75 75 75 76 76 76 76 76 76 76 76 75 75 75 75 75 74 74 74 74
80 80 79 79 79 80 80 80 80 80 80 79 79 78 78 77 76 76 75 74 75 75 75 75 76 76 76 76 77 77 77 77 76 75 75 75 75 75 76 74 74 74
80 80 80 80 80 80 81 81 81 81 80 80 80 79 79 79 77 77 77 76 76 76 76 76 76 76 76 76 77 77 77 77 76 76 75 75 75 75 75 75 75 75
80 80 80 80 80 81 81 81 82 82 82 81 81 80 80 80 79 78 78 77 77 77 77 76 76 76 76 76 77 77 76 76 76 75 76 75 75 75 76 75 75 75
80 81 81 80 81 80 81 81 82 82 82 82 81 80 80 80 80 79 79 78 78 78 78 77 76 76 76 76 76 77 77 76 76 76 76 76 76 76 76 76 76 76
80 81 81 81 81 80 80 81 81 81 81 81 81 81 82 82 82 81 80 78 78 78 78 78 78 77 77 77 76 76 77 77 76 76 76 76 76 76 76 76 76 77
80 80 80 80 80 79 79 80 81 81 81 81 80 81 81 81 80 81 81 80 78 78 78 78 78 79 77 72 73 78 77 78 77 76 76 76 76 75 76 76 77 77
80 80 80 79 79 79 79 79 79 80 80 79 80 80 80 80 80 80 80 81 80 79 78 79 80 80 72 68 68 71 77 77 77 76 76 76 76 75 75 76 76 77
80 79 79 79 79 79 79 79 79 79 79 79 79 79 79 80 80 80 80 81 81 80 80 80 80 75 69 67 67 67 71 78 78 77 77 76 76 76 76 76 76 77
80 79 79 79 79 79 79 79 78 78 78 79 79 80 80 78 79 80 79 80 81 80 80 81 80 73 68 66 66 66 66 73 79 78 77 77 76 76 76 76 76 76
80 80 79 79 79 79 79 78 78 78 79 80 80 80 79 79 80 79 79 79 80 80 80 81 80 74 67 65 64 64 65 68 78 79 78 78 77 77 77 77 76 76
80 80 79 79 79 79 79 78 78 78 78 80 80 80 79 79 79 79 79 80 80 81 80 81 82 72 66 64 63 62 64 66 76 79 79 78 78 78 77 78 77 77
80 80 80 79 79 79 79 78 78 78 78 79 80 80 81 81 80 81 80 80 80 81 80 80 83 70 65 63 62 61 63 69 73 76 78 78 78 77 78 78 78 78
81 81 80 79 79 79 78 79 78 78 79 80 79 80 80 80 80 81 81 81 80 80 80 80 82 73 64 62 61 60 62 71 72 75 76 77 78 78 78 78 78 78
81 81 80 80 79 79 79 80 80 80 80 80 80 80 80 81 81 81 82 82 81 81 81 81 81 75 63 60 59 59 65 72 73 74 75 76 77 78 78 77 78 81
81 81 81 81 80 80 80 80 80 80 81 81 81 81 81 82 82 81 82 82 82 82 78 80 82 77 63 60 59 58 64 74 74 74 74 75 76 77 78 78 76 79
81 80 81 81 81 81 81 81 81 82 81 81 81 82 81 82 82 82 81 82 82 82 83 81 82 82 75 60 58 56 59 73 75 74 74 75 76 76 77 76 77 76

ECMWFNIL_sfc_temp_084.txt.gz
Temp
76 75 75 74 74 74 74 74 75 76 75 76 76 76 76 77 77 78 78 78 78 78 78 77 78 78 78 78 78 78 77 77 78 78 78 78 78 78 78 78 78 77
76 76 76 75 74 74 74 75 75 75 75 75 76 77 77 77 77 78 77 77 78 78 78 78 78 78 78 78 77 77 77 77 77 79 78 77 78 78 79 79 79 78
76 76 76 76 76 75 76 75 75 75 76 77 77 76 77 77 77 77 77 78 78 78 78 78 78 78 78 78 77 77 78 76 77 78 78 77 78 78 79 80 79 79
76 76 77 77 77 76 76 74 74 74 76 76 76 77 78 78 77 77 77 78 77 78 78 78 78 79 78 78 77 77 77 77 78 78 77 78 78 78 78 78 79 79
77 76 77 77 77 76 75 75 75 75 75 76 77 77 77 76 76 77 77 77 77 78 78 78 78 78 78 78 78 77 77 77 77 77 77 77 77 78 78 78 78 78
77 77 76 77 77 76 75 75 76 76 76 76 76 77 77 77 77 77 77 77 78 78 78 78 78 78 79 78 78 77 78 78 78 77 77 77 78 78 79 78 78 77
78 77 77 77 77 77 76 75 76 76 76 77 77 76 77 77 76 76 77 77 78 78 78 78 77 77 78 78 77 77 77 77 77 77 77 77 77 77 77 78 77 77
78 78 78 77 78 77 77 76 76 76 76 76 76 76 76 77 77 77 77 77 77 77 77 78 77 77 78 78 77 77 77 78 77 76 76 77 76 77 77 77 77 77
79 78 78 77 78 78 78 78 78 77 76 76 77 77 76 77 77 78 76 76 77 77 76 77 77 77 77 77 77 77 77 78 78 77 77 77 76 77 77 77 77 77
78 78 79 79 78 79 78 79 80 79 77 77 78 78 77 76 77 77 77 76 76 76 76 77 77 77 77 77 77 77 77 77 77 77 77 77 77 78 78 77 77 77
79 80 79 79 79 80 80 80 80 80 79 78 78 78 78 77 76 77 76 75 76 76 76 76 77 77 77 77 78 78 78 78 78 77 77 77 78 77 78 77 77 77
79 79 79 79 79 80 80 81 81 81 80 79 79 78 78 78 77 76 77 75 76 77 77 77 77 77 77 77 78 78 78 78 78 78 78 78 78 78 78 78 78 78
80 79 80 80 80 80 81 81 81 81 81 80 80 80 79 79 78 77 77 77 76 77 77 77 77 77 76 77 77 77 77 77 78 77 78 78 78 78 78 78 78 78
80 80 80 79 80 79 80 81 81 81 81 81 80 79 80 80 80 78 78 78 77 77 77 77 76 76 76 77 77 77 77 77 77 78 78 78 78 78 79 79 78 79
79 81 81 79 80 79 79 80 80 80 80 80 79 80 81 81 81 81 79 77 78 77 77 77 77 77 77 77 77 77 77 78 78 78 78 77 78 78 78 78 79 79
79 79 79 79 79 78 78 79 80 80 81 80 79 80 79 79 79 79 80 79 78 77 77 78 78 78 76 71 73 78 77 78 78 78 78 78 77 77 78 78 79 80
79 78 78 78 78 78 78 78 78 79 79 78 78 79 78 78 79 79 80 81 80 79 78 78 80 80 72 67 67 70 77 78 78 77 77 77 78 77 77 78 78 79
79 78 78 78 78 77 78 78 78 78 78 77 78 78 77 79 79 78 78 80 81 81 80 80 80 74 68 67 67 66 70 78 79 78 78 78 78 78 78 78 79 79
79 78 78 78 78 78 78 78 77 77 78 78 78 79 79 77 77 79 79 79 80 79 80 81 81 72 67 66 66 66 66 72 80 79 79 79 78 78 78 78 78 78
79 79 78 78 78 78 78 78 77 77 79 80 80 79 78 78 79 78 79 78 79 79 79 81 81 73 66 65 65 65 65 68 78 80 79 79 79 79 79 78 78 77
79 79 78 78 78 78 78 78 78 78 78 79 81 80 79 78 79 79 79 79 80 80 80 81 83 71 65 63 63 63 64 66 76 79 79 79 79 79 79 79 79 79
80 79 79 79 78 78 78 78 78 77 77 79 79 81 81 81 80 81 80 80 80 81 81 80 83 69 64 63 62 62 63 70 75 76 78 79 79 79 79 79 79 79
78 79 79 79 79 78 78 78 78 78 78 79 79 80 80 80 80 81 80 81 81 80 80 80 82 72 63 61 60 60 63 72 74 76 76 77 78 79 79 79 79 79
74 76 78 79 79 78 78 79 80 80 80 80 79 80 80 81 81 81 81 82 81 81 81 80 81 75 63 60 59 59 65 73 74 74 75 76 77 78 79 79 79 80
76 75 76 78 79 79 80 80 80 80 81 81 81 81 81 81 81 81 82 82 83 83 77 79 82 77 63 60 59 58 64 75 75 75 75 75 77 77 79 79 79 79
76 77 79 80 79 80 80 80 81 81 81 81 81 81 81 82 82 81 81 82 83 83 83 82 82 82 75 59 58 56 59 74 75 74 74 75 76 77 77 77 78 79

ECMWFNIL_sfc_temp_087.txt.gz
Temp
83 83 83 83 83 84 84 84 86 85 84 86 86 86 85 85 86 86 86 86 85 86 85 85 85 85 86 86 85 85 85 85 87 87 86 86 86 87 87 86 86 86
83 83 83 84 83 83 83 85 84 84 84 84 85 86 85 85 86 86 85 85 86 86 85 86 85 85 85 86 86 86 85 85 85 88 86 85 86 87 87 87 87 87
83 83 83 83 85 84 86 85 84 85 86 86 86 85 86 86 86 85 85 86 86 87 85 85 85 85 85 86 85 86 86 85 85 88 86 85 87 87 87 90 89 88
83 83 85 86 86 85 85 84 84 84 86 85 86 87 87 88 86 86 85 84 85 85 86 86 86 87 86 86 85 85 86 85 87 86 85 86 86 87 87 88 88 89
83 83 85 85 86 85 85 84 85 85 86 86 87 86 84 84 85 86 85 85 84 86 86 85 86 86 85 85 85 85 86 86 86 85 85 85 86 86 88 87 86 87
84 83 83 84 85 84 85 85 85 86 86 87 86 87 86 85 86 86 86 86 87 87 87 88 87 87 87 86 85 85 86 87 88 85 84 84 86 88 89 87 86 86
84 84 84 85 86 85 84 84 85 85 86 87 86 86 86 86 85 85 85 86 87 87 88 86 85 86 86 86 84 84 85 85 86 85 84 85 85 85 87 86 85 85
85 86 85 85 86 86 84 85 85 85 85 85 86 86 86 87 86 87 86 86 87 86 86 87 85 84 87 86 85 84 85 87 86 84 84 84 85 84 85 86 85 84
86 86 85 85 86 86 87 87 87 86 86 85 87 88 86 87 87 88 85 85 85 85 84 85 84 85 86 86 85 84 84 86 87 85 84 85 85 84 86 86 85 85
85 85 87 86 86 87 87 88 89 88 87 86 87 89 88 86 87 87 86 84 84 84 84 84 84 85 86 86 85 85 85 84 85 85 85 85 86 86 87 86 86 85
86 87 86 86 87 88 88 89 89 89 88 87 88 88 89 88 85 86 84 84 85 85 84 84 85 85 85 86 87 87 86 86 86 85 85 85 85 85 85 86 86 86
86 87 87 87 87 88 89 89 89 89 89 88 88 87 87 88 87 86 86 84 84 85 85 85 85 85 85 85 87 88 86 87 86 86 86 86 86 86 86 86 86 86
87 86 86 87 87 88 89 89 89 90 89 89 88 88 88 88 89 86 86 86 85 86 86 85 85 85 84 84 85 86 86 86 87 86 86 86 87 87 88 88 88 88
87 87 87 86 86 86 87 88 89 89 88 88 88 87 88 88 89 88 87 87 86 86 86 86 85 85 85 84 85 86 86 86 86 86 87 87 87 87 88 89 89 89
85 87 87 86 86 85 85 86 87 87 87 87 86 87 89 89 89 90 88 87 87 86 86 87 87 86 87 86 85 85 86 87 86 86 86 86 86 88 88 88 88 89
84 84 84 85 85 84 83 85 86 86 88 87 86 86 86 86 86 87 88 87 86 86 86 87 86 87 81 74 76 85 86 88 87 86 86 86 85 85 87 88 89 90
84 83 83 82 83 84 83 83 84 85 85 84 85 85 84 84 85 86 87 88 87 87 87 87 88 88 74 68 68 71 83 86 85 85 85 85 86 84 84 87 88 89
84 83 82 82 83 82 83 83 83 83 83 83 84 84 83 85 85 85 85 87 88 88 88 88 88 78 70 67 67 66 71 84 87 87 87 86 86 86 86 86 87 89
84 83 83 83 82 82 83 83 82 82 83 84 84 85 86 83 83 85 85 86 87 86 87 88 89 76 68 66 66 66 65 74 87 87 87 88 87 86 86 85 86 86
84 83 83 83 82 82 82 82 82 82 84 86 86 85 83 84 85 84 84 83 85 85 85 88 88 77 67 65 65 64 65 68 84 87 87 87 87 87 87 86 85 84
83 82 81 81 81 81 81 81 81 82 82 85 87 86 84 83 84 84 84 85 86 86 86 88 90 74 66 63 63 62 63 67 82 86 86 86 86 87 85 87 86 85
80 80 80 79 77 78 78 79 80 81 81 83 84 87 87 87 86 87 86 86 86 87 87 86 90 72 65 63 61 61 62 75 80 81 83 85 86 86 86 85 86 86
76 77 78 77 76 76 76 77 78 79 80 83 82 84 87 87 87 87 86 87 87 86 86 86 88 76 63 61 60 60 64 78 80 81 82 83 84 85 85 86 86 86
76 77 77 77 76 75 76 77 79 81 81 82 82 84 85 88 88 88 88 88 88 87 88 87 88 79 63 60 59 59 67 80 80 81 82 82 83 84 85 85 85 82
76 76 77 78 77 77 78 78 79 80 81 82 83 85 85 87 87 88 88 88 90 90 81 85 88 82 63 60 58 58 66 80 81 82 81 82 84 84 85 85 85 82
75 76 78 78 77 78 79 79 80 81 82 83 83 85 86 88 88 88 88 88 90 90 90 89 88 89 78 58 58 56 59 78 82 81 81 81 83 83 84 84 84 85

ECMWFNIL_sfc_temp_090.txt.gz
Temp
89 89 89 89 89 90 90 90 91 90 89 92 92 91 91 91 92 92 92 91 91 90 90 89 89 89 91 90 89 89 89 89 90 91 90 90 91 91 92 91 90 90
88 88 88 89 89 89 90 91 90 91 90 90 92 92 92 92 92 92 91 91 91 91 90 91 90 89 89 91 89 89 89 90 89 93 89 89 90 92 92 91 91 91
89 89 89 89 91 90 93 91 90 91 92 93 92 92 93 93 92 91 91 92 91 93 91 90 90 90 90 90 89 90 90 88 89 93 90 89 91 91 92 94 94 92
88 89 91 91 92 92 92 91 91 90 92 92 93 94 94 96 93 92 91 90 91 91 92 92 91 92 91 90 89 90 90 89 91 91 90 90 90 92 92 92 93 94
89 89 91 92 92 91 92 91 93 93 92 93 94 93 92 91 91 92 91 91 90 91 91 91 91 91 90 90 90 89 90 91 91 90 89 88 90 90 92 92 91 91
90 89 89 91 91 91 92 92 92 93 93 94 93 95 94 92 92 92 92 92 93 93 94 94 92 93 93 91 90 90 91 93 93 90 89 88 90 93 95 93 91 90
91 90 91 92 92 92 91 91 92 92 94 95 94 93 94 93 92 92 92 92 93 93 94 93 91 91 92 91 89 89 89 89 91 90 88 89 89 90 93 92 90 89
92 92 92 92 92 93 91 92 92 92 93 93 94 93 93 94 93 94 93 93 93 93 92 93 92 90 93 92 90 89 90 93 91 89 88 88 89 89 90 91 90 89
93 93 92 92 93 94 95 95 95 94 93 93 94 96 94 93 94 95 92 92 92 92 91 92 91 91 92 92 91 90 89 92 94 91 89 89 90 89 90 91 90 89
91 93 94 94 94 95 95 96 97 96 94 94 95 96 96 94 94 94 93 90 91 90 91 90 91 91 92 92 91 91 90 89 90 91 91 91 91 91 92 91 91 90
93 94 94 94 94 96 96 97 97 98 96 95 95 96 97 96 93 93 91 91 92 91 90 90 91 91 91 93 93 93 91 92 91 90 91 90 91 91 90 91 91 91
93 94 94 94 95 96 97 98 98 98 98 97 96 95 95 97 95 94 93 91 91 92 92 91 91 91 90 91 94 94 93 93 92 92 92 91 92 92 92 92 92 91
95 94 94 95 94 95 97 97 98 99 98 98 97 96 96 97 97 94 93 93 91 92 93 91 91 92 90 90 91 92 92 92 93 93 92 93 93 93 95 94 94 94
94 95 95 93 94 93 94 97 98 98 97 97 96 95 96 97 97 96 95 94 93 93 92 92 91 92 90 90 90 92 92 92 92 93 94 94 94 94 95 96 96 96
92 95 95 93 93 92 92 93 95 95 95 95 94 95 98 97 98 98 96 94 94 93 92 94 94 93 93 92 91 91 92 93 93 93 93 93 93 95 95 94 95 97
90 90 91 91 91 90 89 91 93 94 95 94 94 94 93 93 94 95 97 96 94 93 93 95 94 96 88 79 82 92 92 94 94 92 92 92 91 91 94 95 96 97
89 88 89 88 89 89 89 88 89 91 92 91 91 92 91 90 91 93 94 96 96 95 94 95 97 96 79 71 72 74 89 92 92 91 91 90 92 90 90 93 95 96
89 88 87 87 88 87 87 87 87 88 88 89 90 91 89 91 92 91 91 94 95 96 96 96 96 83 73 69 70 69 75 90 94 93 93 92 92 92 92 93 93 95
88 87 86 87 86 86 87 87 86 86 87 88 90 90 91 88 88 90 90 91 93 92 94 96 97 81 70 68 68 68 67 78 93 93 94 94 93 92 92 91 92 92
87 86 86 86 86 86 86 85 86 85 88 91 91 90 88 89 90 89 90 89 90 90 90 94 94 83 69 66 66 65 66 71 90 92 92 93 92 93 94 92 90 90
87 86 86 86 87 86 85 85 86 86 87 89 92 91 89 88 89 89 89 90 91 92 92 93 96 77 69 64 64 63 64 69 87 90 91 91 91 92 91 92 91 91
79 84 85 86 86 86 86 85 86 85 85 88 89 92 93 93 92 91 91 91 92 92 92 92 96 74 67 64 62 62 63 79 85 85 87 89 90 90 91 90 91 91
75 76 79 83 84 85 85 86 86 86 87 88 88 90 91 92 92 94 92 92 92 91 91 91 94 80 65 62 60 60 66 84 85 86 86 86 88 89 90 90 91 91
71 74 78 81 83 84 85 86 88 89 89 89 89 89 90 91 91 91 93 94 94 93 94 93 93 83 65 61 59 59 70 85 85 85 85 85 86 88 89 89 90 85
71 72 74 79 81 84 86 86 86 87 88 89 91 91 90 91 90 90 91 93 97 96 85 90 94 87 65 61 59 58 69 85 86 86 85 86 88 88 89 90 89 86
74 72 72 73 76 81 85 86 88 89 89 90 90 91 90 92 92 90 90 90 90 90 92 94 94 94 83 59 59 56 60 83 86 86 85 85 87 87 89 88 89 89

ECMWFNIL_sfc_temp_093.txt.gz
Temp
90 90 90 90 90 91 91 91 92 91 91 93 92 92 92 92 93 93 93 93 92 92 92 91 91 91 92 91 90 90 90 90 91 91 91 91 91 93 93 92 92 91
90 90 90 91 90 91 91 93 92 91 90 91 93 93 93 93 94 93 92 92 92 92 92 92 91 90 91 91 90 90 89 90 90 95 90 90 91 93 93 93 93 92
91 91 91 91 92 92 94 93 92 93 93 94 93 93 94 95 94 92 92 93 92 94 92 92 91 90 91 91 90 90 91 89 89 93 91 90 92 91 92 96 96 94
90 91 93 93 94 94 94 93 93 92 94 94 94 95 95 97 94 93 92 92 92 92 93 92 92 93 91 91 90 90 91 90 91 91 91 90 91 92 92 93 94 95
91 92 93 93 94 93 93 93 94 94 94 94 96 94 93 92 93 94 92 92 91 92 92 92 92 92 91 90 90 90 91 92 92 90 89 89 90 91 93 93 92 92
92 91 91 93 93 93 94 94 94 95 95 96 95 96 96 94 94 94 93 93 94 94 94 94 93 93 93 92 90 90 91 93 94 91 90 89 91 93 96 94 92 91
93 92 93 94 95 95 94 94 94 94 96 97 95 95 96 95 94 93 93 94 95 93 95 93 92 92 93 92 90 89 90 90 91 91 90 90 90 90 94 93 91 91
94 95 94 94 95 95 94 95 95 95 95 95 97 95 96 97 94 96 94 94 95 93 93 94 93 91 94 93 91 90 90 94 92 90 89 89 89 89 90 93 92 90
95 95 94 95 96 96 97 98 97 97 96 95 97 98 96 96 97 96 94 93 93 93 92 93 92 93 93 93 92 90 90 92 94 92 90 90 90 89 90 91 91 90
94 96 97 97 97 98 98 98 99 98 97 97 98 99 98 95 96 96 95 92 93 92 93 92 92 93 93 93 92 92 91 90 91 92 92 92 91 91 92 91 91 90
96 97 97 96 97 99 99 100 100 100 98 98 98 98 99 98 95 95 94 93 94 93 92 92 93 93 92 94 94 94 92 93 92 91 92 92 92 92 92 92 92 92
96 97 97 97 97 99 99 100 100 100 100 99 98 97 98 100 97 96 95 93 93 93 93 92 92 92 92 92 95 96 94 94 93 92 93 92 92 93 93 93 93 92
97 97 97 98 97 98 100 100 100 101 101 101 99 98 98 99 100 97 95 95 93 94 94 93 92 93 91 91 92 93 94 93 94 94 93 93 94 94 96 95 95 95
95 98 98 96 96 95 97 99 100 100 99 99 99 98 99 99 100 99 98 97 95 95 94 94 93 93 92 91 92 93 94 94 94 94 95 95 95 95 96 97 97 97
94 97 97 95 96 95 96 96 98 98 98 98 97 99 101 100 100 101 99 97 96 95 94 95 96 95 95 93 92 92 93 94 94 94 94 94 94 96 96 96 97 98
92 93 93 94 94 93 93 94 96 97 99 98 97 97 96 96 96 97 99 98 96 95 95 97 97 98 90 83 85 93 93 95 95 93 93 93 92 93 96 97 98 99
91 91 91 90 92 92 92 92 93 94 94 93 94 95 94 93 94 95 97 98 99 98 96 97 99 99 82 74 75 78 91 93 93 92 93 92 93 91 91 94 96 98
90 89 89 89 89 91 91 91 92 92 91 92 93 94 92 95 95 94 93 96 98 98 98 98 98 87 74 72 73 72 78 92 95 94 95 94 94 93 93 94 95 97
78 80 84 83 84 85 90 89 89 90 91 92 93 93 94 91 91 93 93 94 95 94 96 98 98 84 72 70 71 71 71 82 95 95 96 96 95 94 94 92 93 94
74 73 72 74 77 79 81 86 87 88 90 93 94 92 91 92 93 92 92 91 92 93 92 96 96 87 71 68 68 69 69 75 93 94 94 95 94 95 96 94 92 91
74 74 75 75 75 76 77 77 78 80 85 90 93 94 91 90 92 91 91 92 93 94 94 95 98 81 70 65 65 66 67 73 91 94 93 93 93 94 92 94 93 94
71 71 73 76 78 77 76 76 76 78 77 81 86 94 95 95 93 93 93 93 93 94 94 93 97 76 69 63 63 63 66 81 88 88 90 91 92 92 92 91 93 93
72 72 73 74 76 77 77 76 77 77 78 79 79 85 95 95 94 94 92 94 94 93 93 93 96 81 66 63 61 61 67 85 87 89 88 88 89 90 91 92 92 92
75 73 73 74 74 75 77 79 79 78 77 77 77 79 85 95 95 95 96 95 95 94 96 94 94 85 65 61 60 59 71 86 87 87 88 87 88 89 90 90 91 86
78 78 75 74 73 75 76 76 76 77 78 79 79 79 82 89 92 94 96 96 99 98 89 93 96 88 65 61 59 58 70 87 88 88 86 87 89 89 89 90 90 88
80 78 77 76 74 75 76 75 75 77 78 79 79 80 81 85 87 91 91 92 97 97 98 97 96 96 83 60 59 57 62 84 88 87 86 86 88 88 89 89 89 90

ECMWFNIL_sfc_temp_096.txt.gz
Temp
87 87 87 87 87 87 87 87 88 88 87 89 88 88 88 88 90 90 90 89 89 88 87 88 87 87 89 88 87 85 83 85 83 85 86 87 86 88 89 88 89 85
87 87 86 88 86 87 87 88 87 87 87 88 88 88 89 89 91 90 89 89 89 89 88 89 88 87 88 88 87 87 85 86 85 89 86 87 87 87 88 90 91 88
88 88 88 88 89 89 91 90 88 89 89 90 90 89 90 91 90 89 89 89 89 90 88 88 88 87 88 87 86 87 87 85 85 88 86 87 88 87 88 91 89 90
87 88 89 90 90 90 91 89 89 88 89 89 90 92 92 94 90 90 89 89 88 89 89 89 88 89 88 88 87 86 87 86 87 87 86 86 87 88 88 89 90 89
88 88 89 90 90 89 89 90 91 90 91 89 92 90 89 89 89 90 89 88 88 89 89 88 89 89 88 87 87 86 87 87 87 86 86 85 87 87 89 88 86 88
88 87 88 89 90 89 90 91 90 91 91 93 91 92 91 90 90 90 89 90 91 91 91 91 89 90 90 87 87 86 87 89 89 86 86 85 87 89 92 89 87 87
90 89 90 91 92 92 91 90 90 91 92 93 91 91 91 91 90 89 89 90 91 89 91 88 87 88 88 87 86 85 86 86 87 87 85 86 85 86 90 89 87 88
91 91 91 91 92 92 91 92 92 91 91 91 93 91 92 93 90 92 91 91 91 90 88 90 88 87 90 89 86 86 86 90 88 86 86 86 87 85 86 88 88 86
92 91 91 91 92 93 93 94 94 93 92 92 94 94 92 92 92 92 89 89 89 89 87 89 87 89 89 88 87 86 86 88 90 87 86 86 86 85 87 87 87 86
83 91 92 93 93 94 94 95 95 95 94 94 95 95 94 92 92 92 90 87 89 88 88 88 88 89 89 89 88 87 86 86 86 87 87 87 87 87 88 87 87 85
75 78 90 92 93 94 95 95 96 96 94 94 95 95 95 93 91 91 89 88 90 89 88 88 89 89 88 90 90 89 88 88 87 87 87 87 87 87 88 86 87 87
75 76 83 93 93 95 96 96 96 96 96 95 95 94 94 96 92 93 92 88 89 89 89 88 88 88 87 88 91 91 89 89 88 88 88 88 88 89 88 88 88 87
78 77 78 85 93 95 97 96 97 98 97 96 95 95 95 96 96 92 91 91 89 90 91 89 88 89 87 87 88 88 89 88 90 89 88 88 89 90 91 90 90 89
78 77 76 80 87 91 94 97 98 98 96 95 95 94 95 96 97 95 93 93 91 91 90 89 88 89 87 87 88 89 90 89 89 89 90 89 90 90 91 92 91 92
78 78 77 78 79 80 87 92 95 94 93 94 93 95 98 97 97 98 94 92 92 90 90 91 92 91 91 89 88 88 89 90 89 89 90 88 89 91 91 90 92 94
77 76 76 76 76 74 73 73 76 84 95 95 93 95 92 91 91 92 95 93 92 91 91 93 92 94 87 81 82 88 88 90 90 88 88 88 87 87 90 91 93 94
78 77 76 75 76 76 76 77 77 77 75 81 90 91 90 90 91 92 94 96 94 93 92 93 94 95 82 74 74 78 88 88 87 86 87 87 88 86 85 89 91 92
78 78 77 77 77 77 77 77 77 75 76 76 81 89 89 92 93 91 90 93 96 96 95 94 94 86 75 72 73 73 79 88 90 89 90 88 88 88 88 89 89 92
75 77 77 77 77 79 78 76 75 76 77 79 81 84 87 88 88 91 91 92 93 90 93 95 95 82 73 69 71 71 72 81 91 90 90 91 89 88 88 87 87 87
72 73 74 77 77 77 78 78 76 76 77 80 81 82 82 82 86 89 90 88 90 90 89 93 94 84 73 68 68 69 70 75 89 91 90 90 88 89 91 89 86 86
72 71 72 73 76 78 78 77 78 77 77 78 79 81 81 81 81 80 82 85 89 92 91 93 95 81 71 66 66 66 68 72 87 91 91 89 89 88 86 88 87 87
72 71 71 74 75 76 77 78 78 77 77 78 78 78 79 80 79 80 80 80 79 80 82 87 93 77 73 66 64 65 67 77 84 85 87 89 88 88 88 86 87 87
74 72 72 73 74 74 75 76 77 78 78 78 77 78 80 80 80 81 81 81 81 81 82 84 89 81 71 64 62 63 66 78 82 85 85 86 87 87 87 87 88 87
77 76 74 73 74 74 74 76 77 77 78 79 78 78 78 80 80 79 79 79 80 80 83 85 89 84 70 62 60 61 69 80 81 83 84 84 85 86 87 86 87 87
80 79 77 77 75 75 76 75 75 76 77 78 78 78 78 78 79 79 79 79 80 82 80 81 86 84 71 62 60 58 67 81 82 83 83 84 86 85 86 86 85 86
80 79 79 78 78 78 77 77 77 76 77 77 77 77 77 78 79 79 79 80 82 82 83 84 85 88 85 62 59 57 61 80 83 82 82 83 85 84 84 84 85 85

ECMWFNIL_sfc_temp_099.txt.gz
Temp
80 80 80 80 80 81 80 80 81 81 80 81 81 81 81 83 84 83 84 82 82 82 82 81 81 81 83 81 79 79 79 79 79 79 80 80 80 81 84 82 81 79
80 81 81 81 80 81 80 81 80 80 80 80 81 81 81 84 83 84 83 82 82 83 82 82 81 81 81 81 80 79 78 80 78 84 80 80 81 81 82 82 82 80
80 80 81 80 82 82 83 83 82 81 82 82 83 83 83 85 83 83 83 84 82 83 82 82 82 81 81 81 80 80 80 79 79 82 80 80 80 80 81 84 83 83
80 81 82 82 82 82 83 82 81 81 83 82 82 85 86 88 83 83 82 84 82 82 83 82 82 83 81 81 80 79 80 79 80 80 80 81 81 81 81 81 82 82
81 81 82 83 82 81 81 82 83 82 82 83 84 82 83 81 82 83 82 82 82 82 82 82 82 82 81 80 80 80 80 80 80 80 79 79 80 81 83 82 80 82
81 80 81 82 82 81 83 82 82 83 83 83 84 84 84 82 84 84 83 82 83 83 83 83 82 82 83 81 80 80 81 81 81 79 79 78 79 81 85 83 80 80
83 81 82 83 84 83 83 82 82 83 85 84 84 84 85 83 82 83 84 83 84 82 83 82 81 81 81 81 80 79 80 79 80 80 79 79 79 80 82 82 79 80
84 84 83 82 84 83 83 84 83 82 84 84 84 84 85 86 83 84 84 84 85 83 82 82 81 81 82 81 80 79 80 84 82 78 79 79 78 79 79 81 81 78
84 85 84 83 84 85 85 86 86 85 83 85 84 85 85 86 86 86 82 83 84 82 82 81 81 82 82 81 80 80 80 81 82 79 78 79 79 79 80 80 80 79
76 77 81 83 85 85 85 87 88 87 85 85 87 86 86 84 85 86 84 80 83 82 82 82 81 82 82 82 80 81 80 80 80 79 80 80 80 80 80 79 79 78
77 78 79 79 80 83 86 88 88 88 88 87 87 87 87 86 82 84 83 82 83 82 81 82 82 81 81 83 82 82 81 82 81 80 79 80 80 80 82 80 80 80
73 75 76 75 77 75 76 76 80 86 88 88 88 87 85 87 86 84 85 82 82 83 81 81 81 81 81 82 84 83 81 82 82 82 81 80 81 81 81 81 81 80
75 75 76 76 76 75 78 78 78 78 82 88 89 89 89 87 88 86 83 84 83 83 84 81 81 81 80 80 82 82 82 81 82 82 82 82 81 81 83 82 82 82
76 75 75 75 75 75 75 77 79 80 79 80 86 89 89 90 88 88 86 85 84 84 84 83 82 82 81 81 81 82 82 82 82 82 83 83 83 83 83 83 83 83
74 75 75 75 75 75 76 77 79 80 79 79 80 85 91 91 90 89 88 86 85 84 84 85 85 84 84 83 82 81 83 82 81 83 83 82 82 84 84 84 85 86
74 74 74 75 75 74 75 76 79 78 80 80 80 80 81 84 88 87 88 87 86 85 85 86 86 87 83 79 80 83 82 85 84 81 81 82 81 81 83 83 86 87
74 74 74 74 74 74 74 75 76 79 79 79 80 80 79 79 82 87 88 87 88 87 85 87 89 89 79 72 73 76 84 82 82 81 79 79 80 79 80 82 84 85
73 75 75 75 75 74 74 74 75 75 75 75 76 78 78 80 81 83 86 86 88 88 87 87 88 82 74 70 71 71 76 84 83 83 83 81 80 81 81 81 82 84
72 72 73 73 74 75 75 75 74 74 75 75 77 78 79 78 77 80 81 82 85 84 87 88 87 78 72 70 69 70 70 78 85 84 83 83 82 81 81 81 81 81
71 71 72 72 73 74 75 75 75 74 75 76 76 76 76 77 80 80 79 77 79 80 81 85 85 81 71 69 67 67 68 72 85 85 84 84 83 83 84 82 80 80
71 70 71 72 72 73 74 74 75 75 75 75 76 76 76 76 76 77 78 79 80 80 81 83 88 78 70 67 65 64 66 69 82 85 85 84 84 83 82 83 81 81
71 70 71 72 72 73 73 74 75 75 75 75 75 75 75 76 76 77 77 78 78 78 78 79 83 72 67 67 64 62 63 71 77 80 83 84 84 83 82 80 80 80
70 70 70 71 72 72 72 73 73 74 74 76 75 75 76 76 76 77 77 78 77 78 78 78 80 74 68 60 59 61 63 71 74 77 79 81 83 83 82 82 82 81
71 70 71 71 72 72 72 72 73 74 74 76 75 75 75 76 76 76 77 77 77 77 78 78 79 77 67 62 61 60 65 72 73 75 77 78 80 82 82 81 82 86
73 73 73 73 73 73 74 73 73 73 74 75 75 75 75 75 76 75 76 76 78 78 77 77 79 76 68 65 63 62 64 70 72 74 75 77 79 81 82 82 82 83
73 73 72 72 72 73 74 73 74 74 74 75 75 75 75 75 76 76 76 77 79 79 81 79 77 77 74 64 60 61 60 68 69 70 72 74 77 79 80 80 81 81

ECMWFNIL_sfc_temp_102.txt.gz
Temp
77 78 78 77 77 78 77 77 78 78 78 78 78 78 78 79 80 80 81 80 80 79 79 78 78 78 80 78 78 77 78 77 78 78 78 78 77 78 80 80 78 77
77 78 79 78 77 78 77 78 78 78 78 78 79 78 79 80 80 80 80 80 80 80 79 79 78 78 78 78 77 77 77 77 77 80 78 78 78 78 79 79 79 78
77 77 78 78 78 78 80 79 78 78 79 79 79 79 80 81 80 80 80 80 80 80 79 79 79 78 78 78 77 77 77 76 77 78 77 77 78 78 79 80 78 78
77 78 79 79 79 79 79 79 78 77 78 78 79 81 82 84 81 81 80 82 79 79 79 79 79 79 78 78 77 77 77 77 78 77 77 78 78 78 79 77 78 78
79 78 79 79 79 79 79 79 80 79 79 79 80 80 80 79 79 81 80 80 79 79 79 79 79 79 78 78 78 77 77 77 77 77 76 76 77 78 80 79 77 78
78 77 78 79 79 78 79 79 80 80 80 80 80 81 81 80 80 80 80 80 80 80 80 80 79 80 80 78 77 78 78 78 78 76 76 76 77 78 81 80 77 76
79 78 78 80 80 80 79 79 80 80 80 81 80 80 81 81 79 80 80 81 81 80 80 79 79 79 79 78 77 77 77 77 76 76 76 76 76 77 78 78 77 76
79 79 79 79 80 79 79 79 79 79 80 80 80 81 80 82 80 82 81 81 82 80 79 80 79 78 79 79 77 77 77 80 78 76 76 76 76 76 77 78 77 76
80 79 79 79 81 81 80 82 81 80 80 81 81 82 81 81 81 82 80 80 81 80 79 79 78 79 78 78 78 77 77 78 80 77 76 76 76 76 77 77 76 75
73 75 80 81 81 81 81 82 83 82 81 81 82 82 82 81 81 81 80 79 80 79 79 79 78 78 79 78 78 78 78 77 78 78 77 76 77 77 77 77 77 76
73 73 73 75 79 82 82 82 83 84 82 82 83 83 83 82 81 80 79 79 81 80 79 79 79 79 78 79 79 79 79 79 78 78 77 77 77 77 79 77 77 77
72 73 73 74 75 76 78 78 79 80 81 81 82 83 82 83 82 82 81 79 80 81 80 80 80 79 79 79 80 80 79 79 79 78 78 78 77 77 77 77 78 77
73 73 75 75 75 74 76 76 76 77 78 79 80 81 83 83 83 81 81 81 80 80 80 80 80 79 78 78 79 79 79 78 79 78 78 78 78 78 79 78 78 78
73 74 75 75 75 75 75 75 77 77 77 77 77 79 81 83 83 82 82 82 82 81 80 80 79 79 78 78 79 79 79 78 78 79 79 79 79 78 79 79 79 80
73 74 74 74 75 74 74 74 76 77 77 77 77 79 82 81 84 84 83 81 81 81 81 82 81 81 81 80 79 78 79 79 78 78 78 78 79 79 79 79 79 80
73 74 73 74 73 73 73 74 76 76 78 78 77 78 78 77 77 79 83 82 81 81 81 82 82 83 81 77 78 81 79 81 80 78 78 78 78 78 79 79 81 82
73 72 72 73 73 72 73 73 74 75 75 75 75 76 75 75 77 77 79 82 83 83 82 82 84 85 78 71 71 74 82 80 79 78 77 77 77 76 77 78 80 80
73 73 73 73 73 72 72 73 73 73 72 73 74 75 75 77 77 76 76 78 82 83 83 84 84 80 73 70 70 69 74 81 80 80 80 77 77 77 78 78 78 80
71 71 72 72 72 72 73 73 72 73 73 73 74 75 76 75 74 76 77 77 77 77 81 84 84 77 71 70 69 68 68 75 82 81 81 81 80 79 78 78 78 78
70 70 70 71 71 71 72 72 73 73 73 74 74 74 74 74 76 75 75 75 76 76 75 77 79 77 69 66 65 65 66 69 80 82 82 82 81 81 81 80 79 78
70 70 70 71 71 72 72 72 73 73 73 74 74 74 73 73 74 74 74 76 77 77 77 78 81 64 66 66 65 64 64 66 72 77 79 80 81 81 80 81 80 79
70 70 70 71 71 71 72 72 72 72 72 74 74 74 74 74 74 75 74 75 75 76 76 76 78 65 65 65 63 62 63 69 71 72 75 77 79 79 79 79 80 80
70 70 70 71 71 71 71 71 71 72 73 74 73 74 74 74 74 75 75 75 75 75 75 74 76 65 61 62 66 62 64 69 70 72 72 74 76 77 77 77 77 78
70 69 69 70 70 70 71 71 72 72 72 74 73 73 73 74 74 74 74 75 75 75 76 75 76 71 59 57 59 59 67 71 70 71 71 72 74 75 76 77 78 82
71 71 70 70 70 70 71 71 71 71 73 73 73 73 74 74 74 74 74 74 75 76 76 76 76 72 59 57 56 57 64 70 70 70 71 72 73 74 76 76 77 79
70 70 70 70 69 70 71 71 72 73 72 73 73 73 73 74 74 73 73 74 75 76 78 77 75 75 74 63 60 59 61 70 69 70 70 70 71 73 73 75 76 77

ECMWFNIL_sfc_temp_105.txt.gz
Temp
76 76 76 76 75 76 76 76 76 76 76 76 75 76 76 77 78 78 78 78 77 77 77 76 77 77 78 76 76 76 76 76 75 75 75 75 75 75 78 77 76 75
75 76 77 76 76 77 76 77 76 76 76 76 76 76 76 77 77 78 78 78 78 77 77 77 77 77 76 76 75 75 75 75 75 78 75 75 75 75 76 76 76 75
75 76 76 76 76 76 77 77 77 77 77 77 77 77 77 78 77 77 77 78 77 78 77 77 77 77 77 76 75 75 75 74 75 76 76 75 75 75 76 77 76 76
76 76 77 77 77 76 77 76 75 76 77 77 77 79 79 80 78 77 77 79 77 77 77 77 77 77 77 76 75 75 75 75 75 75 75 75 76 76 76 76 77 76
77 76 76 77 77 77 76 77 77 76 77 77 78 77 78 77 78 78 77 77 77 77 77 77 77 77 77 76 76 75 75 75 75 75 74 75 75 75 77 76 75 76
76 76 76 76 76 76 76 76 77 77 77 77 77 78 78 77 77 78 78 78 78 78 78 77 77 77 77 77 76 76 77 76 76 75 75 75 76 76 78 77 75 75
77 76 76 77 77 77 77 77 77 77 77 78 76 77 77 77 76 77 78 78 79 78 79 78 77 77 77 77 76 76 76 76 76 75 75 75 75 75 76 75 75 74
77 77 77 76 77 76 77 77 77 77 77 76 77 77 77 78 77 78 77 78 78 78 78 78 77 77 77 77 76 75 75 77 76 75 74 75 74 74 75 76 75 74
77 77 76 77 77 77 77 78 78 77 77 77 78 78 77 78 78 78 77 77 77 77 77 77 77 77 77 77 76 76 76 76 77 75 75 75 75 75 75 75 74 74
75 76 77 77 78 78 78 78 79 78 78 78 79 79 78 78 78 78 77 76 77 76 76 76 76 76 76 76 77 76 76 76 76 76 75 75 75 75 75 74 74 74
74 74 76 77 78 79 79 79 79 80 79 79 79 79 80 79 77 77 76 76 78 77 77 76 76 76 76 76 76 76 77 77 76 75 75 75 75 75 77 75 75 75
73 73 74 76 78 79 79 79 80 80 80 79 79 79 79 80 79 78 78 76 77 77 78 77 77 76 76 77 77 77 76 76 77 76 76 76 75 75 75 75 75 75
72 72 73 75 76 76 77 77 78 79 79 79 79 79 79 79 79 78 78 77 77 77 78 78 77 77 77 76 77 76 76 76 77 76 76 76 76 76 76 76 76 76
72 72 73 73 73 73 74 74 75 75 75 75 76 77 79 80 80 79 79 78 78 78 78 78 78 77 77 76 77 77 77 76 76 76 76 76 76 76 76 77 77 77
73 73 73 73 74 73 73 73 74 74 74 74 73 75 78 78 79 80 79 78 78 78 78 78 78 78 79 78 77 76 77 77 77 76 76 76 76 76 76 76 77 77
73 73 73 73 73 73 73 73 75 74 75 74 74 75 74 74 74 74 76 78 78 78 78 79 79 80 79 75 76 79 77 78 78 76 76 76 75 75 76 76 77 78
72 72 72 72 72 72 72 72 72 73 73 73 73 74 74 73 75 75 75 76 77 78 78 79 81 82 76 70 69 72 79 77 77 76 76 75 76 75 75 76 76 77
72 72 72 72 72 72 72 72 72 72 72 72 72 73 73 74 74 74 74 74 76 77 78 80 80 77 72 69 69 68 72 78 78 78 77 76 76 76 76 76 77 77
71 71 71 71 72 72 72 72 71 71 71 71 72 73 74 73 73 74 74 74 74 72 74 76 78 76 70 68 67 67 66 71 77 78 77 77 77 76 76 76 76 76
70 71 70 71 71 72 72 72 72 71 72 72 73 73 72 72 73 74 73 73 73 74 73 74 74 70 66 66 66 66 66 68 74 76 77 78 77 77 78 77 76 76
70 70 71 71 71 71 71 72 72 71 72 72 72 72 71 71 72 72 72 73 74 74 73 76 78 65 66 65 63 63 65 68 73 75 77 77 77 77 77 78 77 77
69 69 70 70 71 71 71 71 71 71 71 72 73 73 72 72 72 72 73 73 73 73 74 73 75 62 64 63 62 62 63 70 71 72 74 75 76 76 77 76 77 77
69 69 69 70 70 70 71 71 71 70 71 72 72 72 73 72 72 73 73 73 73 73 73 73 75 65 60 60 59 59 64 69 69 70 71 72 73 74 75 76 76 76
69 69 69 69 69 69 70 70 71 71 71 72 72 72 72 73 73 72 72 73 73 73 74 73 74 69 58 57 58 57 67 70 69 69 70 70 71 72 73 73 75 79
67 67 67 68 67 68 70 68 69 70 72 72 72 72 72 72 73 73 73 72 74 74 75 75 74 72 59 57 57 56 63 70 70 70 70 71 71 72 73 73 74 76
67 67 68 68 67 68 68 68 69 70 70 71 71 72 72 72 73 72 72 72 74 74 75 74 73 73 68 57 55 56 57 68 68 69 69 70 70 71 72 72 73 73

ECMWFNIL_sfc_temp_108.txt.gz
Temp
76 76 76 76 76 76 76 76 76 77 76 77 77 77 77 78 78 79 79 79 79 79 79 78 79 79 80 79 79 78 78 78 79 78 78 78 78 78 80 80 79 79
76 76 77 77 76 77 76 77 77 77 76 76 77 77 77 78 79 79 79 79 79 79 79 79 79 79 79 79 78 78 78 78 78 80 78 78 79 79 79 79 80 79
76 76 77 76 77 77 78 77 77 77 78 78 78 77 78 79 79 78 79 79 79 80 79 79 79 79 79 79 78 79 79 77 78 79 79 78 79 79 79 80 80 80
76 77 77 78 77 77 78 77 77 77 78 77 78 79 79 80 79 79 78 80 79 79 79 79 79 79 79 79 78 78 78 78 79 78 78 78 78 79 79 79 80 80
77 77 77 78 78 78 77 77 78 77 78 78 79 78 78 78 78 79 78 78 78 79 79 79 79 79 79 78 78 78 78 78 78 78 78 78 78 79 80 79 79 80
77 77 77 77 77 77 77 77 78 78 78 78 78 79 79 79 79 79 79 79 79 79 80 79 79 79 79 79 78 78 79 79 79 77 78 78 79 79 80 80 79 79
77 77 77 78 78 78 78 77 78 78 78 80 79 78 79 78 78 78 79 79 80 79 80 79 78 79 79 79 78 78 78 78 78 78 78 78 78 78 79 79 78 78
78 77 78 77 78 78 78 78 78 78 78 78 79 79 79 79 78 79 79 79 80 79 79 80 79 79 79 79 78 78 78 79 78 78 77 78 77 77 78 78 78 77
78 77 77 77 78 78 79 79 79 79 78 78 79 79 79 79 79 79 78 78 79 79 78 79 79 79 79 79 78 78 78 79 79 78 77 78 77 77 78 78 78 77
76 77 78 78 78 79 79 79 80 79 79 79 80 80 79 79 79 79 79 78 78 78 78 78 78 79 79 79 79 79 78 78 78 78 78 78 78 78 79 78 78 77
75 76 77 78 79 79 79 80 80 80 79 80 80 80 80 80 78 79 78 77 79 78 78 78 79 79 78 79 79 79 79 79 79 78 78 78 78 78 79 78 78 78
74 74 75 76 78 79 80 80 80 80 80 80 80 80 80 80 80 79 79 78 78 79 79 79 79 79 78 79 80 80 79 79 79 79 79 79 78 78 78 79 79 78
74 74 75 76 77 77 78 79 80 80 80 80 80 80 80 80 81 79 79 79 78 79 79 79 79 79 78 78 79 79 79 79 79 79 79 79 79 79 80 79 79 79
74 75 75 76 76 75 76 77 78 79 79 79 79 79 80 81 81 80 80 79 79 79 79 79 78 78 78 78 78 79 79 79 79 79 79 79 79 79 80 80 80 80
73 74 74 74 75 75 74 75 76 77 77 78 78 79 81 81 82 82 80 79 79 78 79 79 79 79 79 79 78 78 79 79 79 79 79 79 79 80 80 79 80 81
72 72 72 72 73 73 73 74 76 76 77 76 77 77 78 77 78 78 80 80 79 78 78 79 79 80 78 74 76 79 78 79 79 78 78 78 78 78 79 79 80 81
71 72 72 71 72 71 71 71 72 74 75 75 75 75 75 76 77 77 78 79 79 79 79 79 81 82 74 69 68 71 79 79 78 78 78 78 78 78 78 79 80 80
71 72 72 71 71 71 71 71 72 72 73 74 75 75 75 76 76 77 77 78 79 79 79 80 81 76 70 68 68 67 71 79 80 79 79 78 78 78 79 79 79 80
71 71 71 71 71 71 71 71 70 70 71 72 74 76 76 75 75 76 77 77 78 77 78 79 81 74 68 67 67 66 66 72 80 80 80 80 79 78 79 78 78 79
70 71 71 71 71 71 72 72 71 71 71 72 72 73 74 75 76 76 76 76 77 77 77 78 78 75 68 66 65 65 65 68 77 78 79 80 79 79 80 79 78 78
69 69 70 70 70 71 71 71 71 71 72 73 74 73 73 74 75 75 75 76 77 78 78 79 81 69 63 64 63 62 64 67 76 77 78 78 79 80 79 80 80 79
67 67 66 66 66 67 68 68 69 69 70 71 72 72 73 73 75 75 75 76 76 77 77 77 80 66 63 64 63 62 62 71 74 75 76 77 78 78 79 78 79 79
65 65 65 65 64 64 64 65 66 67 68 70 71 71 72 74 75 75 76 76 75 76 75 76 78 69 61 59 59 60 66 73 73 74 74 75 76 77 77 78 78 78
65 65 65 64 63 64 64 64 65 66 67 69 68 70 71 73 74 74 75 75 76 76 77 76 77 72 62 59 58 57 65 73 72 72 73 73 73 74 75 75 76 77
65 66 65 65 65 65 65 65 65 65 67 67 68 69 71 72 73 73 73 74 76 77 75 76 77 73 60 58 59 58 65 73 72 73 73 74 74 75 76 76 76 76
66 66 66 65 65 65 66 65 67 66 65 66 67 69 70 72 72 73 72 72 73 75 76 76 75 76 71 59 57 57 59 68 71 72 73 73 73 74 74 75 75 76

ECMWFNIL_sfc_temp_111.txt.gz
Temp
84 84 85 85 85 86 85 85 86 86 85 87 87 87 86 86 87 87 87 87 86 87 86 86 86 86 88 87 86 86 86 86 87 88 87 87 87 88 89 88 87 87
84 84 84 85 84 84 85 86 85 85 85 85 86 87 87 87 87 87 87 87 87 87 87 87 87 86 86 87 86 86 86 86 86 90 87 86 87 88 88 88 88 88
85 84 85 85 87 86 88 87 86 86 87 88 87 86 88 88 87 86 87 87 87 89 87 86 87 86 87 87 86 86 87 85 86 89 87 86 88 87 88 90 90 89
84 85 87 88 88 87 88 86 86 85 87 87 87 89 88 90 88 87 86 86 87 87 88 88 87 88 87 87 86 86 87 86 88 87 86 87 87 88 88 88 89 90
85 85 87 88 88 87 87 86 88 87 87 87 89 88 86 86 86 88 87 87 86 87 87 87 87 88 87 86 86 86 87 88 87 86 86 86 87 87 89 88 87 88
85 85 85 86 87 86 87 87 87 88 88 89 88 89 88 87 87 88 88 88 89 89 89 89 88 89 89 88 87 87 88 89 89 86 86 85 87 89 90 88 87 86
86 85 86 87 88 87 87 87 87 87 89 90 89 88 89 88 87 87 87 88 89 89 90 88 87 87 88 87 86 86 86 86 87 86 85 86 86 86 88 87 86 86
87 87 87 87 88 88 87 88 88 87 88 88 89 88 88 89 88 90 89 88 89 88 88 89 87 86 89 89 87 86 87 90 88 85 85 85 85 85 86 88 86 85
87 87 87 87 88 89 89 90 90 89 89 88 89 91 89 89 90 90 88 87 88 87 87 87 86 88 88 88 87 86 86 88 90 88 86 86 86 86 87 87 86 86
85 86 88 88 88 89 89 90 91 90 89 89 90 92 91 89 89 90 88 86 87 87 87 87 87 88 88 88 87 87 87 86 87 87 87 87 87 87 88 87 87 86
83 85 87 87 88 90 90 90 91 91 90 90 91 91 91 90 88 88 87 86 88 88 87 87 88 88 87 89 89 89 88 88 88 87 87 87 87 87 86 87 87 87
82 83 84 86 88 89 89 90 91 90 90 89 90 90 90 91 90 89 88 87 87 88 88 88 88 88 87 88 90 90 89 89 89 88 88 88 88 88 88 88 88 87
83 82 84 86 85 86 88 88 89 90 90 90 90 90 90 91 91 89 88 88 88 88 89 88 87 88 87 87 88 88 88 88 89 89 88 88 89 89 90 90 90 89
83 83 84 84 84 83 84 86 88 89 88 89 89 89 90 90 91 91 90 90 89 89 88 88 88 88 87 86 87 88 88 88 88 88 89 89 89 89 90 91 91 91
82 82 82 81 81 81 82 82 84 86 86 87 87 88 91 91 91 91 90 89 89 88 88 89 90 89 90 88 87 87 88 88 88 88 88 88 88 90 90 90 90 92
79 79 79 80 80 80 80 81 83 83 85 85 86 87 87 87 88 88 90 89 89 88 89 90 90 90 85 78 80 88 88 90 89 87 87 87 87 87 89 90 91 92
74 75 76 76 78 78 79 79 79 81 81 81 82 83 84 84 85 87 88 89 89 90 89 91 91 91 79 70 70 71 84 88 87 86 87 86 87 85 85 88 90 91
72 72 74 74 74 74 75 74 75 76 77 79 81 82 82 84 85 85 86 88 89 90 90 91 92 84 72 69 68 67 72 84 89 89 89 88 87 87 88 88 89 91
72 72 73 73 73 73 72 72 72 74 75 76 79 82 82 82 82 84 85 86 87 86 88 90 91 81 70 68 67 66 66 74 87 89 89 90 89 88 88 87 87 88
72 73 73 72 73 72 72 71 72 72 74 76 78 79 79 80 83 83 84 83 84 85 85 88 89 83 72 67 65 65 65 69 85 87 88 89 88 88 89 88 86 86
67 68 68 69 70 72 72 73 73 73 74 75 77 78 78 78 80 81 82 83 84 84 84 86 90 76 69 66 64 62 63 68 83 87 88 88 88 88 86 87 87 87
66 66 66 67 67 67 67 67 68 69 70 72 75 75 76 76 77 78 79 80 79 79 79 79 83 65 64 64 63 63 64 79 82 83 84 86 86 86 86 85 86 86
65 65 65 66 66 66 66 66 67 67 68 70 71 72 73 74 76 76 76 78 77 77 76 76 81 68 61 61 62 61 71 84 82 83 83 83 84 84 84 85 85 85
67 68 67 66 66 66 66 67 68 67 67 68 69 71 72 74 75 75 75 75 76 78 79 77 77 69 63 58 59 60 70 82 82 82 82 81 82 83 84 83 82 78
68 68 68 67 66 66 66 66 67 69 69 68 69 69 71 74 75 75 75 74 74 74 75 73 71 70 60 58 57 58 70 81 81 82 82 83 85 84 84 84 83 80
70 69 69 68 69 69 69 67 68 68 70 70 69 69 69 71 73 75 74 72 71 71 72 72 71 70 66 56 56 57 61 75 78 79 79 79 80 80 80 81 81 81

ECMWFNIL_sfc_temp_114.txt.gz
Temp
89 90 89 90 90 91 90 90 92 91 90 93 92 92 91 92 92 92 92 91 90 91 90 89 89 89 91 90 89 89 89 89 91 91 90 91 92 93 94 92 92 92
89 89 89 91 90 90 90 91 91 91 90 90 92 92 92 92 92 92 91 91 91 91 90 91 90 89 89 90 89 90 89 90 89 94 90 89 91 93 93 92 93 92
90 90 90 90 93 91 93 92 91 91 93 93 93 92 94 94 93 91 91 91 91 93 91 90 90 89 90 90 89 90 90 88 89 93 90 89 92 91 92 95 95 93
89 90 92 93 93 94 94 92 92 91 93 93 93 95 94 97 93 92 91 90 90 90 92 92 91 92 91 90 89 90 90 89 91 90 89 90 91 93 92 93 94 94
90 90 92 93 93 93 93 93 94 94 93 93 94 93 92 91 91 93 92 91 90 91 91 91 91 92 90 90 90 90 91 92 91 90 89 89 90 91 94 93 91 91
90 90 90 91 92 92 93 94 93 94 94 95 94 95 94 93 93 93 93 93 94 94 94 94 93 93 93 91 90 90 92 94 94 90 89 89 91 94 96 93 90 90
92 91 91 92 93 93 92 93 93 93 95 96 95 94 94 94 93 92 92 93 94 93 95 92 91 91 92 91 90 89 90 90 90 90 89 90 90 90 93 92 90 89
93 94 92 92 93 94 93 94 94 93 94 94 95 94 94 95 93 95 94 93 94 93 92 93 91 89 93 93 91 90 90 95 93 89 89 89 89 89 90 92 91 89
93 94 94 93 94 95 96 97 96 95 95 94 95 96 95 95 95 96 93 92 93 92 91 92 90 92 93 92 91 90 90 92 94 92 90 90 90 89 91 91 91 90
91 93 95 95 95 95 95 97 98 97 96 95 96 97 97 95 95 95 94 91 91 91 91 91 91 92 93 93 91 91 91 90 91 91 92 92 91 92 93 92 91 90
90 92 93 94 94 96 97 97 97 98 97 96 96 96 97 96 94 94 92 91 93 92 91 91 92 92 92 93 94 94 93 93 92 91 91 91 91 91 91 91 91 92
88 90 91 93 94 96 96 97 98 98 97 97 97 95 95 97 95 94 94 92 92 92 93 92 91 92 91 92 94 95 94 94 93 92 92 92 92 93 93 93 93 92
88 88 90 92 92 93 96 96 97 98 97 97 96 95 95 96 97 94 94 94 92 93 93 92 92 93 91 91 92 92 93 93 94 93 93 93 94 94 95 95 95 95
90 89 89 89 90 89 91 94 96 96 96 96 95 94 95 96 97 96 96 95 94 94 93 93 92 92 91 91 91 93 93 93 93 93 94 94 95 95 96 97 97 97
88 89 89 87 87 87 87 89 92 93 93 94 93 94 96 96 97 97 96 95 95 94 93 95 96 95 95 93 92 91 92 93 93 93 93 93 93 95 95 95 96 97
85 86 86 86 85 85 85 87 90 91 93 93 92 93 92 92 93 94 96 95 94 93 94 96 96 97 91 84 85 92 93 95 95 93 92 92 92 92 94 95 97 98
81 83 84 84 84 84 84 84 86 89 89 88 89 90 90 90 91 92 94 95 95 95 95 97 97 98 82 75 75 76 88 92 92 91 92 91 92 91 90 93 95 96
77 78 80 82 82 83 83 83 84 84 85 86 87 88 87 89 90 90 91 93 95 96 96 97 98 86 71 72 72 71 77 89 93 93 94 93 93 93 93 94 95 96
77 76 76 77 77 79 81 81 81 81 82 84 86 87 88 86 86 89 90 91 93 92 94 96 99 75 71 70 70 69 68 78 92 93 93 94 94 93 94 93 93 94
76 74 74 74 75 75 75 77 78 79 81 83 85 85 85 86 88 87 89 89 90 91 90 93 97 76 69 69 69 66 67 73 90 92 92 93 92 93 95 94 92 92
75 75 74 75 74 74 74 73 75 76 78 81 83 84 83 83 86 86 87 88 90 91 92 93 90 64 65 65 65 65 65 73 88 92 92 92 93 93 92 93 92 92
71 71 72 72 71 71 72 72 72 74 75 77 78 80 82 82 83 87 88 88 88 90 91 91 81 61 63 64 63 66 65 86 89 88 89 91 91 92 92 91 92 91
70 70 69 70 70 71 71 70 70 71 70 71 74 77 78 78 80 83 84 85 85 85 86 86 86 65 59 59 61 61 71 87 88 88 88 89 90 91 91 91 91 90
71 70 68 67 68 68 68 69 69 69 68 70 70 72 74 77 78 79 80 80 79 78 83 85 80 66 58 58 59 61 72 85 87 87 86 87 88 89 90 90 86 80
72 72 70 69 68 68 69 69 69 69 71 71 70 70 71 72 73 74 74 72 72 72 73 76 76 69 57 57 56 58 68 82 84 85 84 85 89 89 89 89 86 80
73 71 70 71 70 69 69 69 69 69 69 70 70 70 70 71 72 71 70 70 71 74 75 75 73 72 63 55 56 58 61 75 82 82 81 80 76 75 75 75 76 78

ECMWFNIL_sfc_temp_117.txt.gz
Temp
91 91 91 90 91 91 91 91 92 92 91 94 93 92 92 92 93 93 93 92 92 91 91 90 90 90 92 91 90 91 88 87 88 88 91 92 93 94 95 94 93 93
90 90 90 92 90 91 91 92 92 92 90 90 93 88 92 92 94 93 92 92 92 92 91 91 91 90 90 92 90 90 88 90 89 94 91 91 92 94 94 94 94 93
91 91 92 92 93 92 95 93 92 92 93 94 94 93 94 95 94 92 93 92 92 94 91 91 91 90 91 91 89 89 90 88 88 89 92 90 92 92 93 96 96 94
90 92 94 94 95 93 94 93 92 91 94 93 94 94 96 98 94 94 92 92 92 92 92 91 92 93 92 91 89 90 89 88 89 87 90 89 92 93 94 94 96 96
92 92 93 94 95 94 94 94 94 94 94 94 96 95 94 93 93 94 93 92 91 92 92 92 92 93 91 90 90 90 88 87 88 90 89 89 91 92 94 94 92 92
92 91 92 93 93 94 95 95 94 95 96 96 95 96 95 94 94 95 94 94 94 94 95 95 94 94 94 92 90 89 87 87 83 86 90 89 92 94 97 95 92 91
94 93 93 94 95 95 94 94 95 94 96 97 95 95 96 95 94 94 93 94 96 94 96 92 92 92 93 92 89 89 89 87 85 87 87 91 90 91 94 93 91 91
95 95 94 94 95 95 94 95 95 95 95 96 97 95 96 96 94 96 95 95 95 94 93 95 92 91 94 94 91 90 91 95 93 89 88 89 90 89 91 93 92 90
95 95 95 95 95 96 97 98 97 97 96 96 97 97 96 96 96 96 94 93 94 93 92 93 91 92 93 93 92 90 90 93 95 90 89 90 90 90 91 92 92 91
94 95 96 96 96 96 96 98 99 98 97 97 97 98 98 96 96 96 95 92 93 92 92 92 92 93 93 94 92 92 91 91 91 92 92 92 92 92 93 92 92 91
93 95 95 96 97 98 98 99 99 99 97 97 98 97 98 97 95 95 94 92 95 93 92 92 93 93 92 94 94 94 93 93 93 92 92 92 92 92 92 92 92 92
91 93 94 95 96 98 98 99 99 99 98 94 97 97 97 98 96 96 95 93 93 94 94 92 92 93 92 92 95 96 94 94 94 92 93 93 93 94 94 94 94 93
92 91 94 95 95 96 98 98 99 100 98 98 97 97 97 97 98 96 95 95 93 94 94 93 93 94 92 92 93 93 93 93 94 94 94 93 94 95 96 96 96 96
92 92 92 93 93 92 94 97 98 98 97 97 97 95 96 97 97 98 97 97 96 95 94 94 93 93 92 92 92 93 94 94 93 93 94 95 95 95 96 97 97 98
90 92 92 91 91 91 91 92 95 95 96 96 95 95 98 97 97 98 97 96 96 95 95 96 97 96 96 94 92 93 93 94 94 94 94 94 94 96 96 96 97 98
87 88 89 89 88 88 88 90 93 94 96 96 95 96 94 93 94 95 96 97 96 96 96 97 97 98 92 88 88 92 92 93 93 90 90 92 92 93 95 97 98 98
84 85 84 81 84 86 87 88 89 92 92 91 93 93 92 91 93 94 95 95 97 97 96 98 98 98 83 77 79 83 92 92 91 89 90 92 93 91 90 93 95 97
83 82 80 77 78 84 86 87 87 87 87 89 91 92 90 93 93 92 92 95 96 96 96 98 98 89 72 74 76 77 84 92 94 94 95 94 93 93 93 94 95 97
83 83 82 81 78 78 84 85 85 85 86 87 89 91 92 89 89 91 92 92 93 92 93 95 99 73 71 72 73 72 74 85 94 94 94 95 95 94 94 93 94 94
81 82 82 82 82 81 80 82 82 82 84 87 87 87 88 89 90 88 89 88 89 90 90 93 96 72 70 70 71 70 70 78 93 94 94 94 94 94 96 95 93 92
78 80 80 81 81 80 79 80 80 79 81 83 85 84 83 84 86 87 87 88 89 90 90 94 76 62 64 66 65 67 66 77 91 94 94 93 94 94 92 94 93 93
72 74 77 79 78 77 77 77 78 78 77 78 78 80 83 84 84 85 86 85 83 83 83 80 73 61 61 62 63 65 66 86 89 88 89 91 92 93 92 92 94 91
73 73 71 71 72 74 76 76 76 76 76 76 76 77 78 78 76 79 78 77 76 75 75 74 76 62 58 59 60 61 71 86 88 88 89 90 91 92 93 86 82 84
74 73 71 69 69 71 72 73 73 74 73 74 73 73 72 72 72 73 75 75 75 75 77 77 74 63 57 57 58 59 69 82 85 86 80 76 74 74 75 78 81 79
73 72 72 70 71 72 73 73 74 74 74 74 73 73 73 73 73 72 72 74 75 74 74 75 74 67 57 57 57 59 71 81 83 81 76 75 76 77 76 76 79 76
77 75 76 76 74 74 74 73 73 72 72 73 72 73 73 73 72 72 72 72 73 73 74 74 73 72 63 54 56 58 63 79 79 75 74 76 78 76 77 78 77 77

ECMWFNIL_sfc_temp_120.txt.gz
Temp
87 87 88 87 87 87 86 87 88 87 85 88 87 87 86 87 88 88 88 89 89 88 87 87 87 87 89 87 87 86 85 85 85 85 86 87 86 88 88 85 86 86
87 87 87 88 87 88 87 88 88 87 86 86 87 87 88 88 89 88 88 88 89 89 87 88 88 87 87 87 86 86 83 84 84 90 86 86 86 89 89 87 87 87
89 88 89 89 90 89 91 90 88 88 88 89 88 87 90 91 90 89 89 88 88 90 87 88 87 87 88 84 84 86 86 85 85 88 84 85 87 86 86 88 84 87
88 89 90 91 91 90 92 90 89 89 90 89 89 90 91 92 90 90 89 89 88 88 89 89 88 89 88 87 85 86 87 85 87 85 84 84 86 87 88 84 87 88
89 89 90 91 91 90 90 90 91 91 91 89 91 90 88 83 87 90 89 89 88 89 88 88 89 89 88 87 86 85 86 85 87 85 85 84 85 87 89 88 86 86
89 88 89 90 90 89 90 91 91 92 92 91 90 91 90 87 88 90 90 90 91 91 91 90 89 90 89 88 87 86 87 87 87 85 85 84 87 89 92 88 86 86
91 90 91 92 93 92 90 90 92 92 92 93 92 91 91 90 90 90 90 90 92 90 92 89 87 88 89 87 86 86 86 85 86 85 84 85 86 87 91 87 85 86
91 92 91 91 92 93 92 92 93 92 91 90 92 92 92 93 91 93 91 91 92 91 90 90 88 87 91 89 86 86 87 89 87 84 84 85 85 86 87 90 89 87
92 92 92 92 92 93 93 94 94 94 93 91 93 93 93 92 92 93 90 90 90 90 89 88 86 88 90 89 88 86 87 89 90 86 85 86 87 86 87 88 88 86
91 92 93 93 93 93 94 94 95 95 95 94 95 95 92 93 93 92 91 89 90 89 89 88 87 88 89 90 88 87 87 87 86 85 87 87 88 88 89 88 88 87
91 93 93 93 93 94 95 96 96 96 95 94 95 95 95 94 92 91 89 88 91 90 89 89 89 89 88 90 90 90 89 89 88 87 88 88 88 88 89 88 88 88
89 91 92 93 94 95 95 96 96 96 96 95 95 94 94 95 91 92 92 89 89 90 90 89 89 89 88 89 91 91 90 90 89 88 90 89 89 90 89 89 89 88
91 90 92 94 93 94 96 96 96 97 97 96 95 94 93 94 94 91 91 91 90 90 92 90 89 90 88 88 89 90 90 88 90 89 90 90 90 91 92 92 92 92
90 90 90 90 91 89 91 94 96 96 95 93 92 91 92 92 93 92 92 92 91 91 90 90 90 90 89 89 89 90 90 90 90 89 89 89 90 90 92 93 93 94
86 88 88 88 89 89 89 90 92 93 93 91 90 91 94 93 93 93 92 91 91 90 90 91 93 92 93 91 89 89 90 91 90 88 89 87 88 91 91 91 92 94
80 78 78 77 79 84 88 89 90 90 93 93 92 92 91 90 91 93 94 92 89 90 91 93 92 94 90 88 88 90 89 91 91 88 88 87 87 86 89 92 93 94
82 78 77 77 78 76 77 81 84 87 86 86 88 89 89 88 91 91 93 93 91 92 91 93 94 94 83 77 79 83 91 89 87 87 87 87 88 86 85 89 91 92
82 77 76 76 76 76 76 76 77 77 79 81 84 87 86 91 90 90 89 92 92 92 91 91 87 75 68 72 75 77 84 89 91 90 91 89 87 88 88 89 90 92
80 77 76 76 76 75 74 74 74 75 75 77 79 78 77 78 80 87 89 90 90 87 88 87 80 70 64 67 71 75 78 88 92 91 91 91 89 88 88 87 88 89
77 77 76 75 75 75 75 75 75 77 76 76 78 78 77 79 74 73 75 77 81 83 80 79 76 67 64 64 66 67 71 80 91 91 90 90 88 89 91 89 87 86
76 77 77 75 74 75 75 75 77 77 78 77 75 75 76 75 74 75 77 79 81 83 82 79 72 61 62 63 62 64 65 75 87 91 90 89 89 89 86 86 85 86
74 73 74 74 74 73 73 73 77 78 78 75 76 76 75 74 74 75 75 77 79 79 81 78 69 58 60 61 61 63 67 81 85 85 86 87 87 83 82 82 84 84
73 72 71 71 72 73 74 75 76 76 75 76 77 76 73 72 72 74 75 76 76 77 78 75 70 61 57 58 60 61 71 81 83 84 84 83 81 81 81 82 82 81
74 73 71 71 72 72 72 72 73 74 74 76 75 74 73 74 74 74 75 75 76 77 78 72 68 61 57 57 58 59 67 78 81 81 80 79 78 79 79 79 78 81
74 73 73 74 73 73 72 71 71 73 75 75 74 74 74 73 74 72 72 73 74 75 75 70 67 63 57 56 57 58 67 77 79 79 78 78 79 79 78 79 76 75
76 75 75 76 75 74 73 73 73 72 72 73 74 74 74 74 73 72 72 72 73 73 71 69 66 66 61 54 55 58 62 75 77 76 75 76 78 77 78 78 77 74

ECMWFNIL_sfc_temp_123.txt.gz
Temp
81 81 80 80 80 81 80 80 81 81 80 81 80 81 81 82 83 83 83 83 82 82 81 81 81 81 83 81 81 80 80 79 80 79 79 80 79 81 83 81 80 79
81 81 82 82 80 82 81 82 81 81 80 80 81 81 82 83 83 82 82 82 82 82 82 82 81 81 81 81 80 80 79 79 78 85 80 81 80 81 83 81 81 81
82 81 82 82 82 82 84 84 82 82 82 82 83 82 84 85 84 82 82 83 83 84 82 82 81 81 81 80 80 80 80 79 78 81 79 79 80 80 80 82 78 82
82 83 83 84 84 83 84 83 82 82 83 82 83 85 86 87 84 84 82 84 82 82 83 83 83 83 81 80 79 79 80 79 80 79 79 80 80 81 81 80 80 80
83 83 84 85 84 84 84 84 84 84 84 83 85 83 83 81 84 84 83 83 82 82 82 82 82 83 81 80 80 79 80 79 80 79 79 78 79 80 82 81 79 81
83 82 82 84 84 84 85 84 85 85 85 85 85 84 85 83 84 84 83 84 84 84 85 84 83 84 83 82 81 81 80 81 80 79 79 78 80 82 86 82 80 80
84 83 84 85 85 85 85 84 85 85 86 86 85 84 85 84 83 84 84 85 86 84 85 84 82 82 83 82 81 80 80 80 79 79 79 79 79 80 83 81 80 80
85 85 85 85 85 85 84 85 85 84 86 85 85 85 86 86 84 87 85 85 86 85 84 84 83 82 84 83 82 81 81 84 81 78 78 78 78 79 80 83 81 79
86 86 85 85 86 85 86 87 87 87 86 85 86 86 87 86 86 87 84 85 85 83 83 83 83 84 83 83 82 81 81 83 84 81 80 80 80 79 81 81 80 79
84 85 87 87 87 86 87 88 89 89 87 87 87 88 87 86 87 88 84 84 85 83 82 83 82 83 83 83 82 82 82 81 81 81 81 81 81 81 82 82 81 80
84 85 86 86 87 88 88 89 89 90 88 88 88 88 89 87 85 87 84 83 86 83 83 82 82 83 83 84 84 84 83 83 82 81 81 81 82 82 83 82 81 82
83 84 85 86 87 88 89 89 90 90 89 89 89 88 87 89 86 87 86 83 84 84 84 83 82 83 82 83 84 84 83 84 83 82 82 82 83 83 83 83 83 81
83 83 85 86 86 87 89 89 90 90 90 89 89 88 88 88 89 87 85 85 84 85 85 84 83 84 82 83 84 83 83 83 84 83 83 83 84 84 85 85 85 86
82 81 83 83 83 83 84 86 88 89 89 88 88 88 88 88 88 87 85 85 85 85 84 84 84 84 83 82 84 85 84 82 83 83 83 83 83 83 84 86 86 86
75 77 76 77 78 78 79 82 86 85 85 85 86 86 88 86 87 87 85 85 85 85 85 85 86 86 86 84 84 83 84 84 83 82 81 80 81 83 83 83 85 87
75 76 76 76 76 76 76 78 82 81 83 83 83 85 84 82 82 80 79 75 73 75 76 82 86 89 87 87 86 85 83 86 84 81 81 80 80 80 82 83 86 87
74 74 74 75 74 74 74 75 75 78 78 78 79 78 78 78 77 77 76 75 75 75 75 77 75 76 70 66 70 76 87 83 83 81 81 80 80 79 79 81 83 84
74 74 74 74 73 73 73 73 74 74 75 76 77 76 76 77 76 76 75 75 76 77 77 78 81 71 63 66 70 71 77 83 84 84 84 81 81 81 81 81 82 85
74 74 73 73 73 72 72 73 73 74 74 75 75 76 75 74 73 74 75 75 76 76 78 79 78 68 62 65 67 69 71 78 83 85 84 83 81 80 80 80 79 79
74 73 73 72 73 72 72 72 73 74 74 75 74 74 74 74 74 73 74 74 76 76 75 75 73 65 62 63 63 65 67 74 81 84 84 83 82 81 82 78 77 78
72 73 73 72 72 72 72 72 73 73 74 73 73 73 72 72 73 73 74 76 76 77 76 73 69 60 60 62 62 63 64 73 79 84 83 82 80 78 78 79 78 79
70 70 70 70 71 71 71 71 70 71 72 73 73 73 72 73 72 73 73 74 75 76 74 70 67 59 59 60 61 62 68 78 78 78 79 79 78 77 77 76 77 77
69 69 69 69 69 70 70 71 71 71 71 73 72 72 72 71 71 71 72 72 74 74 72 68 67 60 57 57 59 60 70 76 77 78 77 76 76 76 76 76 76 75
70 68 68 69 69 69 70 70 70 70 70 72 71 71 71 72 72 71 72 72 73 72 70 66 66 62 56 56 57 58 68 74 74 75 76 75 74 75 75 75 77 79
71 71 70 70 69 68 68 68 69 70 71 71 71 71 71 71 72 70 70 71 71 70 71 66 65 63 57 56 57 58 66 73 75 75 75 74 75 74 74 72 73 75
73 72 72 71 70 70 69 68 70 70 69 71 71 70 70 70 71 70 70 70 68 67 67 66 64 63 61 54 55 57 61 73 73 72 72 73 74 74 73 71 69 68